Date StartTime U_cm/s V_cm/s W_cm/s Ustd_cm/s Vstd_cm/s Wstd_cm/s Uvar_(cm/s)^2 Vvar_(cm/s)^2 Wvar_(cm/s)^2 KE_(m/s)^2 TurbulentKE_(m/s)^2 HorizWindSpeed_cm/s FrictionSpeec_cm/s DragCoef SpeedOfSound_m/s SonicTemperature_C Pressure_mb 
03/02/2014  00:00:00      -68.480      -24.671       -1.708       14.413       12.524        8.663      207.740      156.841       75.039        0.287        0.022       72.789        6.944        0.009      334.954        5.266      855.509
03/02/2014  00:01:00     -105.947      -56.616       -0.290       27.378       22.268       11.907      749.582      495.874      141.781        0.791        0.069      120.126        9.021        0.006      334.987        5.322      855.544
03/02/2014  00:02:00      -54.035      -48.418        3.152       31.699       19.807       16.443     1004.833      392.332      270.365        0.347        0.083       72.554       11.256        0.024      335.108        5.522      855.569
03/02/2014  00:03:00      -52.949      -74.443       -2.016       18.051       19.787       12.774      325.831      391.534      163.180        0.461        0.044       91.353       12.556        0.019      335.504        6.182      855.596
03/02/2014  00:04:00      -45.670      -81.147       -4.612       14.879       28.182       14.349      221.391      794.225      205.884        0.496        0.061       93.116       10.280        0.012      335.558        6.270      855.610
03/02/2014  00:05:00      -32.328      -69.464        3.805       36.585       31.815       27.490     1338.455     1012.173      755.704        0.450        0.155       76.618       12.923        0.028      335.513        6.197      855.618
03/02/2014  00:06:00      -44.121      -54.474        3.979       36.412       41.062       17.933     1325.837     1686.113      321.587        0.413        0.167       70.100       22.918        0.107      335.418        6.038      855.629
03/02/2014  00:07:00      -37.752      -40.316        3.202       39.854       47.586       21.178     1588.360     2264.435      448.511        0.368        0.215       55.232       17.125        0.096      335.354        5.930      855.634
03/02/2014  00:08:00       -7.988      -11.711        5.676       24.818       22.056       11.794      615.947      486.461      139.088        0.074        0.062       14.176       12.114        0.730      335.199        5.673      855.643
03/02/2014  00:09:00      -38.422      -10.626       -5.844       24.208       15.097       10.621      586.018      227.920      112.796        0.127        0.046       39.864        5.927        0.022      334.967        5.288      855.650
03/02/2014  00:10:00      -80.907      -40.070       -2.050       25.696       33.196       20.007      660.283     1101.942      400.299        0.516        0.108       90.286       12.057        0.018      334.925        5.218      855.669
03/02/2014  00:11:00      -88.366      -42.002        1.878       29.888       29.437       16.418      893.286      866.526      269.555        0.580        0.101       97.840       15.840        0.026      334.977        5.306      855.688
03/02/2014  00:12:00      -99.955      -40.712       -4.578       27.955       24.000       15.333      781.481      576.014      235.096        0.663        0.080      107.928       12.418        0.013      335.088        5.491      855.699
03/02/2014  00:13:00       -0.900        0.543       -4.236       35.486       23.858       14.588     1259.224      569.214      212.814        0.103        0.102        1.051       12.453      140.358      335.224        5.716      855.697
03/02/2014  00:14:00       62.790       36.351       10.710       19.636       17.990       19.739      385.562      323.652      389.630        0.324        0.055       72.554       14.065        0.038      335.182        5.647      855.679
03/02/2014  00:15:00       -6.096        9.741        1.661       39.533       10.883       13.404     1562.869      118.444      179.658        0.100        0.093       11.491       18.164        2.499      335.180        5.644      855.682
03/02/2014  00:16:00      -74.793      -47.177        1.388       60.876       37.935       28.480     3705.936     1439.067      811.138        0.689        0.298       88.429       28.337        0.103      335.194        5.665      855.693
03/02/2014  00:17:00      -72.873      -49.637       -5.137       39.456       19.915       16.029     1556.757      396.615      256.935        0.501        0.111       88.172       19.264        0.048      335.151        5.596      855.693
03/02/2014  00:18:00       -1.441       29.560       12.021       23.266       16.797       13.329      541.303      282.149      177.668        0.101        0.050       29.595       14.090        0.227      335.129        5.559      855.664
03/02/2014  00:19:00       74.597       65.469       10.426       35.854       22.877       15.298     1285.481      523.352      234.042        0.600        0.102       99.252       14.197        0.020      335.070        5.460      855.639
03/02/2014  00:20:00       70.066       35.664       -4.440       64.251       41.077       20.264     4128.146     1687.297      410.649        0.621        0.311       78.620       16.929        0.046      335.057        5.439      855.624
03/02/2014  00:21:00      -84.382      -50.569       -0.158       73.604       61.182       26.332     5417.523     3743.249      693.369        0.976        0.493       98.374       20.567        0.044      335.187        5.654      855.648
03/02/2014  00:22:00     -108.189      -74.177        8.210       70.120       64.228       33.078     4916.878     4125.219     1094.138        1.370        0.507      131.175       36.762        0.079      335.076        5.471      855.675
03/02/2014  00:23:00     -124.464       -5.201        0.635       53.585       33.925       28.919     2871.375     1150.939      836.304        1.019        0.243      124.572       32.028        0.066      334.882        5.148      855.675
03/02/2014  00:24:00     -102.972      -29.114       -1.018       30.100       24.104       17.205      905.993      581.007      295.998        0.662        0.089      107.009       14.461        0.018      334.970        5.293      855.662
03/02/2014  00:25:00     -138.291      -57.027       -2.544       41.802       19.298       16.326     1747.396      372.395      266.526        1.238        0.119      149.588       10.014        0.004      335.035        5.402      855.653
03/02/2014  00:26:00     -107.407      -59.462        0.465       42.706       35.817       23.167     1823.805     1282.866      536.712        0.936        0.182      122.768       22.378        0.033      334.887        5.155      855.646
03/02/2014  00:27:00      -76.547      -29.825       -6.137       20.072       19.196       12.628      402.893      368.472      159.477        0.386        0.047       82.152        9.495        0.013      334.853        5.100      855.617
03/02/2014  00:28:00      -34.648      -55.283        0.835       33.590       19.230       20.239     1128.311      369.795      409.637        0.308        0.095       65.243       18.080        0.077      335.059        5.443      855.596
03/02/2014  00:29:00      -78.278      -59.607       -0.146       43.793       31.693       23.230     1917.793     1004.424      539.645        0.657        0.173       98.390       18.318        0.035      335.105        5.518      855.592
03/02/2014  00:30:00     -111.230      -72.564        3.400       37.996       39.474       24.485     1443.696     1558.233      599.518        1.062        0.180      132.807       21.403        0.026      335.070        5.459      855.591
03/02/2014  00:31:00      -92.815      -57.634       -4.556       53.491       30.849       17.912     2861.248      951.678      320.835        0.804        0.207      109.253       14.614        0.018      335.040        5.411      855.584
03/02/2014  00:32:00      -45.262      -39.779       10.812       40.451       31.668       24.353     1636.261     1002.891      593.074        0.349        0.162       60.258       23.249        0.149      335.059        5.443      855.576
03/02/2014  00:33:00     -106.051        6.369       -0.433       50.737       26.744       25.153     2574.202      715.242      632.680        0.760        0.196      106.243       25.201        0.056      334.716        4.873      855.585
03/02/2014  00:34:00     -131.125      -46.650       -4.752       46.917       34.768       22.198     2201.168     1208.803      492.753        1.165        0.195      139.176       21.701        0.024      334.624        4.718      855.587
03/02/2014  00:35:00      -79.115      -32.855       -0.723       28.892       23.035       17.913      834.737      530.599      320.859        0.451        0.084       85.665       17.237        0.040      334.754        4.935      855.576
03/02/2014  00:36:00     -111.679      -50.790        3.158       36.702       26.647       22.715     1347.023      710.071      515.965        0.882        0.129      122.686       19.516        0.025      334.833        5.067      855.564
03/02/2014  00:37:00     -126.293      -50.011       -8.664       21.049       16.064       14.736      443.057      258.039      217.145        0.972        0.046      135.834       11.341        0.007      334.864        5.118      855.557
03/02/2014  00:38:00     -122.765      -43.105       -9.194       17.903       23.664       13.980      320.522      559.995      195.445        0.904        0.054      130.112       10.096        0.006      334.828        5.056      855.542
03/02/2014  00:39:00     -103.753      -35.421       -5.844       47.164       29.443       25.596     2224.410      866.891      655.149        0.790        0.187      109.633       20.574        0.035      334.826        5.054      855.540
03/02/2014  00:40:00     -123.476      -11.135      -15.534       58.804       37.120       26.936     3457.854     1377.895      725.530        1.059        0.278      123.977       28.749        0.054      334.506        4.523      855.558
03/02/2014  00:41:00     -111.158       12.981      -10.828       34.083       33.478       25.937     1161.641     1120.748      672.725        0.780        0.148      111.914       18.761        0.028      334.503        4.518      855.556
03/02/2014  00:42:00      -85.083        3.869       -6.199       54.824       24.424       16.633     3005.691      596.509      276.649        0.558        0.194       85.170       22.403        0.069      334.534        4.569      855.541
03/02/2014  00:43:00       -5.145      -16.730       -3.983       12.106       10.056        9.303      146.567      101.127       86.550        0.033        0.017       17.503        3.509        0.040      334.858        5.109      855.506
03/02/2014  00:44:00       -8.838       -4.157      -11.604       14.738       10.309       12.890      217.215      106.276      166.141        0.036        0.024        9.767        4.078        0.174      334.902        5.181      855.486
03/02/2014  00:45:00      -35.013      -13.173       -4.800       20.391       12.499        9.703      415.774      156.228       94.152        0.104        0.033       37.409        4.677        0.016      334.925        5.220      855.488
03/02/2014  00:46:00      -13.393      -17.989        0.320       22.905        8.834        7.292      524.629       78.033       53.179        0.058        0.033       22.428        5.502        0.060      334.925        5.221      855.491
03/02/2014  00:47:00       -9.389      -19.446        9.231       12.853       30.378       18.281      165.199      922.849      334.203        0.099        0.071       21.594       11.949        0.306      335.001        5.346      855.500
03/02/2014  00:48:00        7.227       36.287       17.789       21.080       13.996       22.996      444.365      195.879      528.828        0.143        0.058       37.000       17.679        0.228      334.807        5.024      855.506
03/02/2014  00:49:00        5.861       21.214       17.315       17.866       14.795       12.475      319.207      218.888      155.625        0.074        0.035       22.009        4.785        0.047      334.762        4.949      855.520
03/02/2014  00:50:00       -2.018       13.943       17.821        9.251       15.473       10.989       85.580      239.413      120.754        0.048        0.022       14.088        4.996        0.126      334.688        4.826      855.542
03/02/2014  00:51:00      -15.516       -0.033        8.239        8.693        9.112        9.646       75.576       83.030       93.046        0.028        0.013       15.516        4.687        0.091      334.576        4.638      855.563
03/02/2014  00:52:00       -2.251        4.220        0.046        6.205        3.925        7.952       38.497       15.409       63.241        0.007        0.006        4.783        5.124        1.148      334.673        4.800      855.577
03/02/2014  00:53:00        0.545       -2.652        5.598        3.948        4.150        6.863       15.590       17.222       47.107        0.006        0.004        2.708        4.834        3.187      334.666        4.790      855.589
03/02/2014  00:54:00        1.425        1.502       -0.152        3.673        5.929        5.121       13.492       35.153       26.223        0.004        0.004        2.071        3.863        3.481      334.701        4.846      855.598
03/02/2014  00:55:00       26.162       22.301        8.335       18.295       12.068        7.028      334.701      145.636       49.391        0.089        0.026       34.377        7.755        0.051      334.797        5.006      855.612
03/02/2014  00:56:00       76.380       37.241       17.187       17.959       12.178       14.633      322.537      148.295      214.131        0.410        0.034       84.975        4.748        0.003      334.840        5.078      855.622
03/02/2014  00:57:00       91.216       56.763       47.293       44.447       32.525       38.045     1975.503     1057.849     1447.407        0.913        0.224      107.436       24.163        0.051      334.875        5.136      855.622
03/02/2014  00:58:00      129.233       81.038       13.849       48.198       36.493       31.828     2323.091     1331.736     1013.046        1.406        0.233      152.540       25.862        0.029      334.836        5.071      855.619
03/02/2014  00:59:00      103.214       74.010       30.101       30.109       20.312       27.210      906.532      412.580      740.380        0.955        0.103      127.006       15.045        0.014      334.783        4.982      855.630
03/02/2014  01:00:00       71.250       63.364       17.309       28.647       19.410       14.749      820.674      376.753      217.525        0.540        0.071       95.349        8.054        0.007      334.710        4.861      855.637
03/02/2014  01:01:00       43.709       28.547       23.490       26.414       16.037       16.585      697.724      257.191      275.067        0.225        0.061       52.206       11.845        0.051      334.752        4.932      855.648
03/02/2014  01:02:00       78.077       41.331       11.204       24.347       18.822       22.580      592.792      354.266      509.859        0.469        0.073       88.342       17.567        0.040      334.719        4.876      855.667
03/02/2014  01:03:00       27.183       29.988       32.498       27.244       18.126       17.000      742.243      328.552      289.015        0.203        0.068       40.475       15.081        0.139      334.664        4.784      855.684
03/02/2014  01:04:00       39.553       41.123       44.964       28.555       19.622       16.099      815.379      385.010      259.186        0.337        0.073       57.057       14.095        0.061      334.676        4.804      855.714
03/02/2014  01:05:00       42.096       -3.064       22.846       38.855       43.649       30.054     1509.739     1905.260      903.233        0.331        0.216       42.207       33.665        0.636      334.751        4.931      855.737
03/02/2014  01:06:00       17.207      -29.030       12.882       21.486       36.571       21.280      461.665     1337.442      452.838        0.178        0.113       33.746       21.470        0.405      334.857        5.107      855.751
03/02/2014  01:07:00      -22.367        2.002       17.858       27.834       14.847       12.188      774.731      220.437      148.536        0.098        0.057       22.456        7.819        0.121      334.837        5.074      855.746
03/02/2014  01:08:00      -17.747       12.599       17.018       11.141       12.850       15.308      124.128      165.131      234.347        0.064        0.026       21.764       11.014        0.256      334.663        4.785      855.738
03/02/2014  01:09:00       11.210       26.402       21.298       24.333       19.880       20.700      592.113      395.201      428.481        0.135        0.071       28.683       19.127        0.445      334.716        4.873      855.724
03/02/2014  01:10:00       29.308       29.651       -3.908       25.434       22.138       18.093      646.884      490.092      327.356        0.161        0.073       41.691        8.950        0.046      334.682        4.816      855.719
03/02/2014  01:11:00        5.473        5.310       -1.326       25.148       15.079       15.254      632.398      227.380      232.699        0.058        0.055        7.625       10.352        1.843      334.557        4.608      855.730
03/02/2014  01:12:00       31.874       25.411        1.337       18.154       20.355       10.740      329.569      414.324      115.353        0.126        0.043       40.764        6.919        0.029      334.556        4.606      855.745
03/02/2014  01:13:00       24.433       25.850       -0.591       17.993       16.148       14.153      323.759      260.747      200.313        0.103        0.039       35.569       10.009        0.079      334.529        4.560      855.764
03/02/2014  01:14:00       23.722       54.058       -4.113       17.459       26.167       16.982      304.831      684.705      288.375        0.239        0.064       59.034       15.914        0.073      334.535        4.571      855.796
03/02/2014  01:15:00       17.145       47.406       -3.332       14.690       18.315       11.853      215.799      335.456      140.498        0.162        0.035       50.411        7.044        0.020      334.555        4.605      855.832
03/02/2014  01:16:00       14.071       44.829       -0.782       13.156       18.043       12.454      173.069      325.561      155.094        0.143        0.033       46.985       11.818        0.063      334.680        4.813      855.856
03/02/2014  01:17:00       12.386       48.163       -2.294        7.537        5.102        5.943       56.804       26.030       35.318        0.130        0.006       49.730        3.336        0.005      334.758        4.941      855.889
03/02/2014  01:18:00       18.131       44.448        0.848       10.633       16.727        9.113      113.053      279.796       83.042        0.139        0.024       48.003        8.450        0.031      334.687        4.822      855.897
03/02/2014  01:19:00       42.636       38.826        4.587       28.674       22.057       17.274      822.207      486.502      298.397        0.248        0.080       57.666       11.242        0.038      334.598        4.676      855.900
03/02/2014  01:20:00       60.197       42.409        8.916       21.738       17.901       14.968      472.541      320.450      224.043        0.326        0.051       73.635       11.874        0.026      334.565        4.622      855.894
03/02/2014  01:21:00       46.936       30.852        8.048       27.346       25.530       16.780      747.806      651.806      281.568        0.245        0.084       56.168       11.709        0.043      334.539        4.578      855.881
03/02/2014  01:22:00       29.577       30.443        4.166       19.553       19.617       13.276      382.313      384.837      176.262        0.138        0.047       42.445        8.189        0.037      334.524        4.553      855.871
03/02/2014  01:23:00       24.617       30.099       -0.460       23.097       20.917       15.968      533.463      437.502      254.983        0.137        0.061       38.884        8.572        0.049      334.516        4.539      855.859
03/02/2014  01:24:00       24.761       97.483      -14.146       13.652       29.556        9.216      186.366      873.566       84.926        0.573        0.057      100.578        9.630        0.009      334.610        4.695      855.846
03/02/2014  01:25:00        7.122      141.876      -24.478       12.438       16.799        7.312      154.692      282.208       53.469        1.063        0.025      142.055        4.343        0.001      334.684        4.816      855.832
03/02/2014  01:26:00      -21.502       96.605      -11.095       28.326       72.348       22.220      802.372     5234.233      493.732        0.822        0.327       98.969       29.296        0.088      334.810        5.028      855.823
03/02/2014  01:27:00      -42.714       13.470       -6.615       27.614       29.487       16.983      762.558      869.472      288.436        0.198        0.096       44.787       12.895        0.083      334.531        4.563      855.820
03/02/2014  01:28:00      -80.476        4.632      -12.569       17.870       34.780       15.857      319.320     1209.674      251.459        0.422        0.089       80.609       13.004        0.026      334.478        4.477      855.830
03/02/2014  01:29:00     -145.956        1.953      -14.671       50.644       40.139       25.280     2564.785     1611.152      639.082        1.317        0.241      145.969       21.607        0.022      334.299        4.179      855.854
03/02/2014  01:30:00     -180.731      -13.735      -11.138       60.690       33.543       27.798     3683.286     1125.163      772.715        1.928        0.279      181.252       31.956        0.031      334.131        3.899      855.876
03/02/2014  01:31:00     -202.803        9.424      -19.309       35.413       32.174       21.767     1254.113     1035.195      473.781        2.218        0.138      203.022       17.262        0.007      334.111        3.864      855.906
03/02/2014  01:32:00     -214.077       29.102      -12.859       39.002       37.003       23.937     1521.162     1369.205      572.990        2.515        0.173      216.046       20.032        0.009      334.128        3.892      855.924
03/02/2014  01:33:00     -192.358       15.198      -19.692       30.578       20.222       15.234      934.992      408.911      232.064        1.960        0.079      192.958        9.804        0.003      334.114        3.871      855.930
03/02/2014  01:34:00     -181.400       11.642      -22.483       19.057       18.681       13.700      363.187      348.975      187.689        1.722        0.045      181.773        6.670        0.001      334.128        3.897      855.925
03/02/2014  01:35:00     -120.454       -4.163       -6.964       26.181       32.296       16.027      685.468     1043.036      256.850        0.828        0.099      120.525       13.491        0.013      334.133        3.905      855.900
03/02/2014  01:36:00      -72.499       -1.747      -18.439       30.411       20.476       13.647      924.853      419.283      186.244        0.356        0.077       72.520       13.631        0.035      334.233        4.070      855.861
03/02/2014  01:37:00      -11.820       -1.327       -2.321       14.157       11.686       11.442      200.423      136.564      130.930        0.031        0.023       11.894        8.595        0.522      334.232        4.071      855.823
03/02/2014  01:38:00       -1.190      -19.655       -6.660       14.322        9.921        7.481      205.113       98.433       55.960        0.040        0.018       19.691        5.797        0.087      334.549        4.594      855.799
03/02/2014  01:39:00      -33.027      -30.744       -2.645       14.298       13.990       13.684      204.425      195.709      187.255        0.132        0.029       45.122       10.262        0.052      334.535        4.571      855.805
03/02/2014  01:40:00      -36.598      -15.113        0.775       30.887       12.076       11.527      954.036      145.832      132.868        0.140        0.062       39.596       14.985        0.143      334.386        4.326      855.803
03/02/2014  01:41:00      -53.654      -15.143       -4.483       13.318        9.318        8.686      177.381       86.826       75.442        0.173        0.017       55.750        7.364        0.017      334.276        4.142      855.798
03/02/2014  01:42:00      -29.593       -9.818       -2.689        9.140        8.947        8.288       83.548       80.048       68.684        0.061        0.012       31.179        6.977        0.050      334.285        4.158      855.788
03/02/2014  01:43:00      -32.523      -10.745       -5.699       12.608        9.139        6.373      158.950       83.514       40.609        0.074        0.014       34.252        5.801        0.029      334.252        4.103      855.775
03/02/2014  01:44:00      -21.436      -18.775       -3.638       17.921        9.898        7.734      321.149       97.966       59.810        0.065        0.024       28.495        7.577        0.071      334.230        4.068      855.763
03/02/2014  01:45:00      -40.468       -5.859       -1.897       13.976       11.330        9.926      195.321      128.372       98.522        0.105        0.021       40.890        2.979        0.005      334.211        4.034      855.734
03/02/2014  01:46:00      -31.128       -5.051      -10.471        9.158        5.257        8.844       83.871       27.639       78.217        0.065        0.009       31.535        6.235        0.039      334.165        3.958      855.706
03/02/2014  01:47:00      -30.238       -3.189       -6.407        8.417        8.110        7.240       70.851       65.767       52.411        0.058        0.009       30.406        4.594        0.023      334.217        4.044      855.681
03/02/2014  01:48:00      -54.023       -3.733       -6.340       13.267       31.812        9.100      176.003     1012.024       82.810        0.212        0.064       54.152        3.903        0.005      334.344        4.255      855.676
03/02/2014  01:49:00     -100.018      -28.841      -17.873       23.662       16.625        9.201      559.892      276.405       84.651        0.604        0.046      104.093        4.905        0.002      333.924        3.558      855.693
03/02/2014  01:50:00     -111.079      -41.822      -17.191       28.728       33.215       17.239      825.321     1103.223      297.173        0.830        0.111      118.691       13.277        0.013      333.847        3.432      855.711
03/02/2014  01:51:00     -129.057       18.142      -13.345       54.531       41.361       29.898     2973.673     1710.752      893.884        1.137        0.279      130.325       21.576        0.027      334.057        3.778      855.728
03/02/2014  01:52:00     -149.301       25.041       -9.603       61.520       44.664       31.140     3784.747     1994.882      969.676        1.488        0.337      151.386       19.632        0.017      334.027        3.727      855.738
03/02/2014  01:53:00     -106.761        5.341      -11.707       50.876       46.716       30.652     2588.404     2182.379      939.520        0.864        0.286      106.895       26.192        0.060      333.907        3.531      855.758
03/02/2014  01:54:00     -187.538       39.766      -20.856       51.997       41.438       28.893     2703.653     1717.105      834.814        2.122        0.263      191.708       29.287        0.023      334.068        3.795      855.765
03/02/2014  01:55:00     -169.426       48.409      -13.741       39.972       27.784       17.581     1597.759      771.956      309.085        1.696        0.134      176.206       11.919        0.005      334.002        3.686      855.772
03/02/2014  01:56:00     -143.599       36.095      -10.524       38.002       27.794       22.325     1444.152      772.528      498.393        1.237        0.136      148.066       19.107        0.017      333.896        3.512      855.783
03/02/2014  01:57:00     -164.231       28.856      -19.231       51.552       33.462       23.169     2657.562     1119.699      536.803        1.624        0.216      166.747       25.003        0.022      333.780        3.317      855.786
03/02/2014  01:58:00     -188.231       40.182      -18.536       51.647       39.148       30.009     2667.433     1532.579      900.526        2.124        0.255      192.472       21.528        0.013      333.722        3.221      855.782
03/02/2014  01:59:00     -212.318       59.361      -11.552       66.758       39.845       28.808     4456.678     1587.653      829.911        2.780        0.344      220.460       30.589        0.019      333.824        3.386      855.776
03/02/2014  02:00:00     -195.593       43.438      -10.044       40.269       22.213       20.825     1621.630      493.427      433.675        2.140        0.127      200.359       21.948        0.012      333.809        3.365      855.771
03/02/2014  02:01:00     -172.162       26.473      -12.294       35.790       31.627       22.128     1280.925     1000.260      489.665        1.663        0.139      174.185       17.624        0.010      333.794        3.341      855.779
03/02/2014  02:02:00     -161.021       14.210      -13.461       43.944       41.271       21.456     1931.040     1703.271      460.357        1.520        0.205      161.647       19.739        0.015      333.802        3.354      855.784
03/02/2014  02:03:00     -160.006        7.220      -13.081       35.750       31.452       18.346     1278.032      989.209      336.588        1.421        0.130      160.169       14.296        0.008      333.844        3.424      855.789
03/02/2014  02:04:00     -101.509       -4.952       -4.936       38.905       28.453       22.278     1513.583      809.595      496.289        0.659        0.141      101.630       20.720        0.042      333.855        3.444      855.800
03/02/2014  02:05:00     -108.683      -12.039       -5.905       42.903       34.577       24.571     1840.677     1195.587      603.716        0.782        0.182      109.348       24.148        0.049      333.879        3.484      855.825
03/02/2014  02:06:00      -98.770        6.972       -6.647       42.180       34.394       21.749     1779.166     1182.962      473.000        0.664        0.172       99.016       15.590        0.025      333.816        3.377      855.845
03/02/2014  02:07:00     -128.447       -8.807       -6.160       46.068       50.787       27.292     2122.252     2579.306      744.862        1.103        0.272      128.748       24.866        0.037      333.801        3.353      855.856
03/02/2014  02:08:00     -136.502       24.854       -9.654       47.528       42.628       26.301     2258.937     1817.184      691.743        1.205        0.238      138.746       18.755        0.018      333.822        3.387      855.856
03/02/2014  02:09:00      -97.751       12.875      -11.734       53.531       38.368       23.344     2865.526     1472.100      544.951        0.737        0.244       98.595       23.911        0.059      333.792        3.339      855.867
03/02/2014  02:10:00     -102.375       13.339       -7.599       40.245       37.403       24.659     1619.677     1399.021      608.063        0.717        0.181      103.240       23.690        0.053      333.932        3.571      855.850
03/02/2014  02:11:00      -68.479        7.668       -3.564       27.694       24.075       16.528      766.985      579.583      273.169        0.319        0.081       68.907       14.382        0.044      333.924        3.560      855.832
03/02/2014  02:12:00      -43.914      -12.052       -4.462       24.932       21.363       12.987      621.603      456.399      168.659        0.167        0.062       45.538        6.369        0.020      334.002        3.688      855.810
03/02/2014  02:13:00      -27.054      -14.429       -6.956       13.685       10.689       11.198      187.278      114.252      125.400        0.071        0.021       30.662        4.942        0.026      334.003        3.689      855.775
03/02/2014  02:14:00      -21.330       -9.218       -2.312        9.486       14.988        8.304       89.990      224.626       68.952        0.046        0.019       23.237        5.476        0.056      334.043        3.756      855.745
03/02/2014  02:15:00       -4.282       30.651       -5.865       30.476       22.900       11.500      928.796      524.389      132.251        0.129        0.079       30.949       12.499        0.163      334.273        4.137      855.724
03/02/2014  02:16:00       14.322       43.561       -0.590       17.724       27.021       14.524      314.125      730.116      210.936        0.168        0.063       45.855       13.104        0.082      334.162        3.952      855.693
03/02/2014  02:17:00      -16.670       58.017       -6.330       22.294       32.853       15.035      497.011     1079.318      226.063        0.274        0.090       60.365       20.568        0.116      334.229        4.064      855.667
03/02/2014  02:18:00      -29.899       23.412       -0.560       17.255       23.812       14.985      297.723      567.013      224.544        0.127        0.054       37.974        9.628        0.064      334.293        4.170      855.662
03/02/2014  02:19:00      -33.663       -2.329       -5.518       18.341       22.994       13.064      336.396      528.721      170.662        0.110        0.052       33.743       11.739        0.121      334.143        3.922      855.655
03/02/2014  02:20:00      -75.759      -29.848      -15.169       11.682       16.680       14.747      136.459      278.222      217.484        0.375        0.032       81.427       12.138        0.022      334.077        3.813      855.639
03/02/2014  02:21:00      -86.172      -14.307      -14.344       14.301       15.588       11.437      204.506      242.973      130.797        0.421        0.029       87.352        9.370        0.012      333.924        3.559      855.622
03/02/2014  02:22:00      -79.637      -16.072      -11.221       22.655       16.891       14.617      513.242      285.290      213.650        0.387        0.051       81.242       12.858        0.025      334.011        3.703      855.600
03/02/2014  02:23:00      -84.537       -9.377      -11.245       21.854       28.443       14.174      477.582      809.016      200.911        0.442        0.074       85.056        6.228        0.005      333.911        3.537      855.594
03/02/2014  02:24:00      -86.215       -8.450      -11.274       37.676       20.663       16.238     1419.497      426.957      263.669        0.487        0.106       86.628       18.559        0.046      333.981        3.652      855.580
03/02/2014  02:25:00      -63.895      -22.208       -7.641       34.835       32.847       19.028     1213.454     1078.929      362.064        0.364        0.133       67.645       14.837        0.048      333.874        3.477      855.572
03/02/2014  02:26:00      -59.527        2.749      -15.304       34.069       29.657       15.446     1160.674      879.562      238.579        0.303        0.114       59.590        6.837        0.013      333.902        3.523      855.574
03/02/2014  02:27:00      -80.402      -16.831      -18.299       29.544       24.645       16.200      872.823      607.395      262.439        0.441        0.087       82.145       12.038        0.021      333.831        3.403      855.578
03/02/2014  02:28:00      -78.960       -9.578      -16.423       27.396       20.584       17.102      750.561      423.708      292.465        0.403        0.073       79.539       12.414        0.024      333.748        3.267      855.585
03/02/2014  02:29:00      -77.146      -22.775       -8.377       27.675       24.161       15.005      765.916      583.771      225.148        0.406        0.079       80.438       14.277        0.032      333.750        3.270      855.598
03/02/2014  02:30:00      -79.844      -35.186       -8.915       28.755       19.933       16.425      826.873      397.334      269.794        0.459        0.075       87.253       13.187        0.023      333.749        3.267      855.608
03/02/2014  02:31:00      -46.668      -20.475        0.388       21.522       17.589       14.953      463.196      309.367      223.594        0.180        0.050       50.962        9.723        0.036      333.758        3.283      855.624
03/02/2014  02:32:00      -18.330      -46.753       -9.876       23.302       22.357       13.235      542.985      499.818      175.163        0.192        0.061       50.218        7.913        0.025      333.832        3.406      855.648
03/02/2014  02:33:00      -36.422      -35.835       -4.084       33.421       32.474       16.748     1116.940     1054.545      280.499        0.254        0.123       51.095       13.466        0.069      333.833        3.408      855.662
03/02/2014  02:34:00      -80.839      -48.541       -6.199       27.527       25.992       11.472      757.751      675.608      131.610        0.525        0.078       94.293        9.506        0.010      333.720        3.220      855.668
03/02/2014  02:35:00      -34.436      -27.060        7.631       41.269       29.389       26.382     1703.172      863.699      696.030        0.262        0.163       43.796       29.359        0.449      333.811        3.370      855.670
03/02/2014  02:36:00      -52.185      -12.895        2.087       27.423       21.356       15.997      752.032      456.083      255.917        0.218        0.073       53.755       15.847        0.087      333.751        3.271      855.660
03/02/2014  02:37:00      -80.533       -7.531      -12.726       28.058       18.470       15.790      787.254      341.139      249.324        0.404        0.069       80.885        9.490        0.014      333.694        3.176      855.653
03/02/2014  02:38:00      -43.757      -45.380       -6.844       40.700       28.691       14.761     1656.514      823.178      217.900        0.336        0.135       63.039       17.185        0.074      333.689        3.168      855.651
03/02/2014  02:39:00      -49.201      -14.164       -0.867       28.061       11.822       13.610      787.439      139.768      185.230        0.187        0.056       51.199       16.238        0.101      333.688        3.167      855.645
03/02/2014  02:40:00      -68.633      -29.012       -9.008       12.949        8.367       10.698      167.672       70.007      114.455        0.299        0.018       74.513        7.752        0.011      333.658        3.117      855.646
03/02/2014  02:41:00      -61.596      -18.292      -10.075        8.317       12.117        9.662       69.170      146.828       93.349        0.227        0.015       64.255        7.617        0.014      333.722        3.222      855.654
03/02/2014  02:42:00      -63.847       -9.455       -9.526       14.605       13.323       11.273      213.311      177.502      127.080        0.239        0.026       64.544        6.685        0.011      333.767        3.297      855.662
03/02/2014  02:43:00      -73.269       -3.832      -13.392       21.345       12.301        9.853      455.617      151.323       97.085        0.313        0.035       73.369        7.709        0.011      333.756        3.279      855.673
03/02/2014  02:44:00      -88.615       -7.103      -17.251       17.781        8.451        8.172      316.161       71.414       66.782        0.433        0.023       88.899        3.241        0.001      333.672        3.140      855.689
03/02/2014  02:45:00      -65.171      -14.592      -11.314       15.194       13.617        8.593      230.860      185.412       73.836        0.254        0.025       66.785        7.351        0.012      333.657        3.114      855.708
03/02/2014  02:46:00      -85.200      -10.068      -11.616       18.385       11.783       11.350      337.998      138.836      128.812        0.405        0.030       85.793        9.163        0.011      333.649        3.102      855.718
03/02/2014  02:47:00      -87.790       -9.803      -13.543       19.154       17.045       13.689      366.880      290.548      187.392        0.442        0.042       88.335        9.765        0.012      333.655        3.111      855.721
03/02/2014  02:48:00      -76.537      -12.922      -16.629       20.947       17.354       11.726      438.780      301.177      137.507        0.359        0.044       77.620        8.594        0.012      333.623        3.059      855.724
03/02/2014  02:49:00      -74.211      -14.227      -13.630       17.843       15.989       10.710      318.366      255.638      114.714        0.329        0.034       75.562        9.880        0.017      333.734        3.244      855.732
03/02/2014  02:50:00      -92.976      -17.880      -12.711       18.099       16.130       10.641      327.589      260.175      113.229        0.491        0.035       94.679        9.672        0.010      333.666        3.129      855.743
03/02/2014  02:51:00      -94.975      -28.832      -12.163       26.159       18.132       16.130      684.267      328.767      260.171        0.564        0.064       99.255       12.305        0.015      333.669        3.135      855.775
03/02/2014  02:52:00     -110.466      -32.129      -12.656       26.430       25.011       14.195      698.534      625.526      201.502        0.746        0.076      115.044        7.815        0.005      333.640        3.087      855.801
03/02/2014  02:53:00     -111.207      -23.658      -14.400       27.749       22.366       19.313      770.021      500.240      373.010        0.739        0.082      113.696        8.911        0.006      333.664        3.127      855.829
03/02/2014  02:54:00      -51.384      -33.145      -11.217       52.259       29.470       26.795     2730.990      868.497      717.983        0.409        0.216       61.146       23.194        0.144      333.695        3.179      855.849
03/02/2014  02:55:00     -110.303      -76.231        2.450       49.605       38.887       25.995     2460.674     1512.224      675.766        1.132        0.232      134.082       20.283        0.023      333.673        3.142      855.866
03/02/2014  02:56:00     -127.473      -67.406       -5.514       54.019       53.790       23.222     2918.084     2893.321      539.274        1.359        0.318      144.197       20.194        0.020      333.678        3.151      855.885
03/02/2014  02:57:00     -128.036        0.112       -8.573       52.188       36.533       22.099     2723.618     1334.632      488.386        1.051        0.227      128.036       24.083        0.035      333.614        3.045      855.899
03/02/2014  02:58:00     -133.077        1.073       -7.965       54.088       40.359       24.167     2925.482     1628.844      584.040        1.146        0.257      133.081       23.778        0.032      333.599        3.019      855.912
03/02/2014  02:59:00     -170.900       15.777      -16.054       46.845       51.033       29.201     2194.434     2604.343      852.679        1.768        0.283      171.626       19.372        0.013      333.653        3.108      855.918
03/02/2014  03:00:00     -145.136       -3.845      -23.470       35.825       36.006       19.137     1283.459     1296.466      366.214        1.229        0.147      145.187       14.730        0.010      333.633        3.075      855.916
03/02/2014  03:01:00      -97.611       13.632       -6.915       37.632       43.644       28.803     1416.131     1904.830      829.641        0.696        0.208       98.559       18.372        0.035      333.693        3.174      855.917
03/02/2014  03:02:00     -142.485       23.738      -15.108       57.612       38.888       24.608     3319.086     1512.267      605.572        1.326        0.272      144.449       26.396        0.033      333.671        3.136      855.911
03/02/2014  03:03:00      -89.252        5.333       -5.100       41.710       30.607       21.569     1739.762      936.782      465.240        0.558        0.157       89.411       19.315        0.047      333.620        3.053      855.894
03/02/2014  03:04:00      -68.689      -16.251      -13.109       29.612       22.224       16.310      876.892      493.917      266.022        0.340        0.082       70.585       15.439        0.048      333.643        3.094      855.898
03/02/2014  03:05:00      -86.125      -40.573      -16.220       24.398       28.726       13.912      595.261      825.204      193.531        0.547        0.081       95.203        7.264        0.006      333.706        3.196      855.895
03/02/2014  03:06:00      -83.772      -17.876      -10.518       33.037       31.334       16.456     1091.469      981.814      270.810        0.490        0.117       85.658       14.804        0.030      333.658        3.116      855.896
03/02/2014  03:07:00      -58.956       -3.618       -5.689       32.096       34.246       25.357     1030.134     1172.797      642.980        0.318        0.142       59.067       22.123        0.140      333.578        2.985      855.896
03/02/2014  03:08:00      -58.029        1.689      -11.738       39.407       31.169       17.284     1552.922      971.537      298.726        0.317        0.141       58.054       13.185        0.052      333.643        3.092      855.900
03/02/2014  03:09:00      -33.000       16.291      -12.318       29.316       26.081       14.488      859.431      680.237      209.894        0.163        0.087       36.802        8.385        0.052      333.833        3.406      855.905
03/02/2014  03:10:00      -50.652       -2.521      -12.250       22.793       23.522       11.675      519.515      553.285      136.300        0.197        0.060       50.714        9.980        0.039      333.928        3.565      855.914
03/02/2014  03:11:00      -49.846      -25.537        0.446       24.753       22.219       15.005      612.711      493.662      225.159        0.223        0.067       56.007       14.583        0.068      333.832        3.406      855.920
03/02/2014  03:12:00      -30.621      -19.491        9.271       26.805       18.687       17.527      718.515      349.189      307.195        0.139        0.069       36.298       13.213        0.133      333.827        3.398      855.929
03/02/2014  03:13:00      -25.233      -34.957        6.811       34.020       16.715       17.359     1157.393      279.381      301.319        0.182        0.087       43.113       18.676        0.188      333.839        3.417      855.940
03/02/2014  03:14:00      -22.296      -21.702        4.525       17.688       15.814       12.114      312.881      250.093      146.745        0.085        0.035       31.114       10.478        0.113      333.865        3.462      855.947
03/02/2014  03:15:00      -20.582      -14.072       -1.987       13.694        9.209        8.372      187.518       84.811       70.087        0.048        0.017       24.933        5.736        0.053      333.813        3.375      855.972
03/02/2014  03:16:00      -60.268       -5.044       -7.262        9.493       11.372       10.297       90.109      129.314      106.024        0.202        0.016       60.478        8.754        0.021      333.859        3.450      855.993
03/02/2014  03:17:00      -68.867       -9.707       -9.573       13.328        9.373        6.228      177.632       87.855       38.783        0.262        0.015       69.548        6.468        0.009      333.978        3.649      856.014
03/02/2014  03:18:00      -76.794      -16.154      -10.326       15.735       11.287        8.320      247.585      127.406       69.221        0.335        0.022       78.474        9.294        0.014      334.054        3.775      856.023
03/02/2014  03:19:00      -55.820      -22.747       -2.656        8.898       11.118        7.612       79.167      123.599       57.948        0.195        0.013       60.277        5.127        0.007      334.032        3.737      856.032
03/02/2014  03:20:00      -48.566      -30.912       -9.155        7.907       10.729        8.372       62.519      115.104       70.084        0.182        0.012       57.570        4.834        0.007      334.033        3.739      856.036
03/02/2014  03:21:00      -58.169      -13.045       -6.796       13.625       10.576        7.149      185.648      111.845       51.110        0.197        0.017       59.614        5.443        0.008      333.969        3.635      856.039
03/02/2014  03:22:00      -65.325       -9.883       -8.314       13.819       14.130       10.923      190.970      199.651      119.310        0.247        0.025       66.068        9.100        0.019      333.946        3.596      856.046
03/02/2014  03:23:00      -61.755      -19.074      -13.891       15.315       12.928        9.755      234.555      167.137       95.161        0.243        0.025       64.634        6.834        0.011      333.963        3.623      856.054
03/02/2014  03:24:00      -61.257      -28.020       -4.848       16.715       17.092       11.498      279.379      292.137      132.206        0.263        0.035       67.361        9.997        0.022      333.923        3.558      856.063
03/02/2014  03:25:00      -69.372      -18.433       -8.918       19.111       18.566       13.689      365.239      344.700      187.379        0.306        0.045       71.780        8.990        0.016      333.774        3.309      856.067
03/02/2014  03:26:00      -53.519      -26.192      -14.137       18.694       16.085       10.048      349.458      258.730      100.970        0.223        0.035       59.585        9.871        0.027      333.742        3.256      856.072
03/02/2014  03:27:00      -62.886       -4.694      -13.358       15.400       13.125       10.158      237.155      172.266      103.176        0.233        0.026       63.061        5.608        0.008      333.840        3.418      856.078
03/02/2014  03:28:00      -61.567      -22.117      -10.488       15.556       17.448        9.509      241.980      304.450       90.424        0.251        0.032       65.419        8.421        0.017      333.921        3.553      856.078
03/02/2014  03:29:00      -68.283      -23.949      -10.759       18.828       15.166       13.916      354.488      230.009      193.664        0.306        0.039       72.361       10.494        0.021      333.757        3.280      856.085
03/02/2014  03:30:00      -82.560      -10.002      -13.320        9.810       10.275        9.376       96.243      105.575       87.919        0.369        0.014       83.164        4.407        0.003      333.696        3.179      856.091
03/02/2014  03:31:00      -48.348       -7.841       -7.299       14.684        6.260        4.495      215.629       39.193       20.209        0.136        0.014       48.980        4.935        0.010      333.989        3.666      856.092
03/02/2014  03:32:00       -2.464        5.919       -5.258       12.216        8.851        5.978      149.235       78.344       35.733        0.017        0.013        6.412        4.390        0.469      334.538        4.575      856.080
03/02/2014  03:33:00       40.081       14.858        0.901       13.274        9.536       10.838      176.202       90.927      117.465        0.111        0.019       42.746        5.896        0.019      334.485        4.489      856.070
03/02/2014  03:34:00       32.699        7.265       -0.760       22.890       16.228        9.652      523.975      263.357       93.155        0.100        0.044       33.496        5.827        0.030      334.140        3.917      856.072
03/02/2014  03:35:00      -59.312      -28.292       -8.357       34.373       19.897       13.770     1181.504      395.901      189.614        0.308        0.088       65.714       12.116        0.034      333.813        3.374      856.076
03/02/2014  03:36:00     -101.125      -24.302      -11.719       40.932       25.760       16.780     1675.417      663.553      281.562        0.679        0.131      104.004       18.745        0.032      333.635        3.078      856.090
03/02/2014  03:37:00      -55.341      -38.085       -4.463       37.847       20.265       18.293     1432.383      410.661      334.637        0.335        0.109       67.180       14.000        0.043      333.625        3.061      856.110
03/02/2014  03:38:00     -100.817      -33.862       -8.858       12.058       18.187        9.812      145.399      330.766       96.274        0.598        0.029      106.352        5.557        0.003      333.574        2.976      856.127
03/02/2014  03:39:00     -101.770      -34.298      -10.821       21.465       14.623        8.496      460.725      213.820       72.179        0.620        0.037      107.394        7.952        0.005      333.602        3.024      856.137
03/02/2014  03:40:00      -27.934      -25.635       -6.721       25.648       10.993        7.960      657.814      120.839       63.356        0.116        0.042       37.914        7.321        0.037      333.644        3.096      856.150
03/02/2014  03:41:00       -7.168       -6.573        4.433       11.870        9.714        7.109      140.888       94.371       50.534        0.020        0.014        9.725        5.395        0.308      333.749        3.268      856.149
03/02/2014  03:42:00       13.385       19.819       22.633       15.103       16.623       13.812      228.089      276.335      190.782        0.089        0.035       23.916       11.333        0.225      333.792        3.339      856.141
03/02/2014  03:43:00       12.573       33.327       33.640       15.619       12.141        8.325      243.963      147.400       69.310        0.143        0.023       35.619        6.021        0.029      333.871        3.471      856.129
03/02/2014  03:44:00        2.716       34.022       43.086       15.334       20.604       13.020      235.125      424.528      169.510        0.193        0.041       34.130        8.970        0.069      333.870        3.469      856.112
03/02/2014  03:45:00       20.042       19.177       12.000       12.695       13.825       13.539      161.170      191.136      183.313        0.072        0.027       27.738       11.285        0.166      333.779        3.317      856.101
03/02/2014  03:46:00       33.766        6.736        3.882       16.861       15.375       15.549      284.283      236.376      241.771        0.098        0.038       34.431       11.052        0.103      333.764        3.293      856.094
03/02/2014  03:47:00       20.780       13.763       14.428       16.324       15.719       14.294      266.463      247.085      204.309        0.077        0.036       24.924        8.928        0.128      333.778        3.317      856.080
03/02/2014  03:48:00       51.766       34.387       34.196       22.081       16.982       19.923      487.560      288.399      396.911        0.310        0.059       62.147       12.956        0.043      333.786        3.330      856.075
03/02/2014  03:49:00       50.837       38.066       26.429       30.720       29.029       25.031      943.706      842.664      626.529        0.357        0.121       63.509       15.332        0.058      333.672        3.141      856.066
03/02/2014  03:50:00       37.189       42.228       56.571       23.703       22.146       10.755      561.812      490.436      115.679        0.377        0.058       56.269       10.571        0.035      333.513        2.877      856.058
03/02/2014  03:51:00       45.291       25.905       35.434       34.921       20.504       24.852     1219.451      420.403      617.599        0.312        0.113       52.176       19.458        0.139      333.600        3.021      856.049
03/02/2014  03:52:00       28.028       28.577       38.808       34.430       25.461       20.994     1185.416      648.267      440.748        0.269        0.114       40.028       24.102        0.363      333.629        3.069      856.036
03/02/2014  03:53:00        6.433       22.365       41.213       12.671       21.202       13.859      160.543      449.538      192.061        0.152        0.040       23.271       15.075        0.420      333.647        3.099      856.022
03/02/2014  03:54:00       28.137       24.354       25.032       17.041       11.134       13.186      290.407      123.962      173.871        0.130        0.029       37.213        3.732        0.010      333.705        3.195      856.005
03/02/2014  03:55:00       10.282       12.455       19.256       21.060       24.176       11.037      443.528      584.481      121.826        0.089        0.057       16.151        6.281        0.151      333.788        3.333      855.993
03/02/2014  03:56:00       12.463       14.072       31.567       19.738       16.008       12.364      389.595      256.258      152.869        0.107        0.040       18.797        8.322        0.196      333.732        3.240      855.989
03/02/2014  03:57:00       16.665       18.571       32.868       16.064       12.012        8.500      258.065      144.289       72.254        0.109        0.024       24.952        7.155        0.082      333.696        3.180      855.994
03/02/2014  03:58:00       12.498       16.675       32.334       15.393       14.293        9.131      236.958      204.289       83.366        0.100        0.026       20.838        8.779        0.177      333.705        3.194      855.997
03/02/2014  03:59:00        9.833       -0.210       11.302       18.198       21.489       17.624      331.176      461.779      310.619        0.066        0.055        9.835       11.633        1.399      333.738        3.249      856.000
03/02/2014  04:00:00      -58.528      -16.560       -9.561       30.143       21.823       11.552      908.613      476.260      133.441        0.265        0.076       60.825       14.321        0.055      333.628        3.069      856.005
03/02/2014  04:01:00      -75.536      -20.710       -5.096       25.520       16.083       11.534      651.269      258.674      133.029        0.360        0.052       78.324       13.336        0.029      333.412        2.708      856.016
03/02/2014  04:02:00     -106.148      -32.642       -6.566       33.470       22.231       15.287     1120.239      494.204      233.680        0.711        0.092      111.054       16.834        0.023      333.379        2.654      856.043
03/02/2014  04:03:00      -93.731      -37.689       -2.828       30.437       35.901       20.073      926.388     1288.891      402.937        0.642        0.131      101.024       19.155        0.036      333.304        2.530      856.059
03/02/2014  04:04:00      -81.401      -22.771       -1.690       38.918       40.507       20.646     1514.572     1640.835      426.246        0.536        0.179       84.526       18.547        0.048      333.310        2.540      856.070
03/02/2014  04:05:00      -25.695       -2.931       -2.125       31.242       26.545       19.191      976.053      704.620      368.299        0.136        0.102       25.862       16.985        0.431      333.312        2.543      856.052
03/02/2014  04:06:00      -44.602       12.113       -8.605       27.450       24.620       17.285      753.522      606.144      298.786        0.193        0.083       46.218       10.149        0.048      333.321        2.559      856.040
03/02/2014  04:07:00      -25.804        3.723       -2.605       21.262       13.551        9.918      452.091      183.625       98.358        0.071        0.037       26.071        6.821        0.068      333.398        2.686      856.024
03/02/2014  04:08:00      -18.796       10.840      -10.822       11.836       10.698        7.104      140.083      114.445       50.471        0.045        0.015       21.698        4.890        0.051      333.602        3.024      856.012
03/02/2014  04:09:00       -1.447        0.881        3.246        9.028       14.848       11.385       81.512      220.455      129.624        0.022        0.022        1.694       12.821       57.256      333.671        3.137      856.007
03/02/2014  04:10:00        6.785       13.890       21.325       15.364       12.948       12.008      236.064      167.650      144.191        0.062        0.027       15.459        8.226        0.283      333.612        3.041      856.012
03/02/2014  04:11:00       14.488        5.563       -0.788        8.169        9.156        6.336       66.727       83.839       40.142        0.022        0.010       15.519        5.162        0.111      333.728        3.232      856.029
03/02/2014  04:12:00        1.579       20.813        5.045       19.058       14.133       11.341      363.218      199.739      128.623        0.058        0.035       20.873       12.015        0.331      333.810        3.368      856.045
03/02/2014  04:13:00      -48.769      -15.275       -2.627       12.563       14.124       10.421      157.825      199.482      108.607        0.154        0.023       51.106        9.317        0.033      333.625        3.063      856.069
03/02/2014  04:14:00      -72.667      -27.543       -9.576       10.016        9.406        7.307      100.312       88.469       53.395        0.319        0.012       77.712        3.579        0.002      333.401        2.691      856.082
03/02/2014  04:15:00      -71.523      -30.830       -8.998       11.487       15.272        7.751      131.952      233.245       60.080        0.329        0.021       77.885        5.960        0.006      333.380        2.656      856.097
03/02/2014  04:16:00      -72.131      -25.112      -12.384       11.665       14.936       10.170      136.077      223.089      103.419        0.322        0.023       76.378        5.112        0.004      333.361        2.624      856.101
03/02/2014  04:17:00     -100.814      -19.349       -6.805       30.274       16.416       17.229      916.520      269.470      296.827        0.603        0.074      102.654       18.102        0.031      333.405        2.698      856.110
03/02/2014  04:18:00     -108.436      -23.847       -6.996       20.425       12.994       10.552      417.189      168.856      111.345        0.654        0.035      111.027       10.464        0.009      333.427        2.735      856.119
03/02/2014  04:19:00      -68.173      -25.013        3.325       19.251       17.572       13.015      370.619      308.764      169.389        0.307        0.042       72.617       13.175        0.033      333.468        2.801      856.146
03/02/2014  04:20:00      -69.763      -44.451       -0.778       13.575       12.463       10.638      184.278      155.338      113.168        0.365        0.023       82.721        7.464        0.008      333.499        2.852      856.167
03/02/2014  04:21:00      -79.470      -29.762       -1.814       23.095       17.693       14.757      533.398      313.056      217.764        0.413        0.053       84.860       10.596        0.016      333.483        2.825      856.184
03/02/2014  04:22:00      -60.277      -38.520       -1.201       30.216       21.685       15.698      912.989      470.219      246.423        0.337        0.081       71.534       15.929        0.050      333.449        2.771      856.182
03/02/2014  04:23:00      -44.206      -30.849       -1.148       23.802       21.368       12.615      566.524      456.594      159.145        0.204        0.059       53.906        8.837        0.027      333.483        2.825      856.179
03/02/2014  04:24:00      -47.286        3.513       -3.500       33.730       15.566       14.291     1137.722      242.289      204.219        0.192        0.079       47.416       17.678        0.139      333.411        2.708      856.173
03/02/2014  04:25:00      -37.665       -5.507        6.443       22.470       17.503       12.421      504.890      306.371      154.272        0.123        0.048       38.066       12.806        0.113      333.364        2.630      856.185
03/02/2014  04:26:00      -23.199       -9.537       -4.854       10.191       10.997        7.571      103.850      120.928       57.313        0.047        0.014       25.083        4.836        0.037      333.413        2.711      856.195
03/02/2014  04:27:00      -31.720       -7.611       -6.571       12.114        7.851        9.035      146.749       61.637       81.636        0.070        0.015       32.620        7.792        0.057      333.440        2.755      856.212
03/02/2014  04:28:00      -39.983       -2.754       -7.465        7.933        7.599        6.329       62.930       57.741       40.051        0.091        0.008       40.078        4.161        0.011      333.416        2.716      856.221
03/02/2014  04:29:00      -49.638      -18.727       -5.995       17.453        9.717        8.599      304.620       94.421       73.948        0.166        0.024       53.053        5.634        0.011      333.317        2.552      856.212
03/02/2014  04:30:00      -30.608      -12.381       -6.105       13.912       12.488       11.397      193.552      155.962      129.899        0.080        0.024       33.017        8.652        0.069      333.211        2.376      856.202
03/02/2014  04:31:00       -8.464      -14.929       -6.970        9.269       16.239        9.897       85.910      263.717       97.950        0.040        0.022       17.162        8.260        0.232      333.207        2.373      856.194
03/02/2014  04:32:00      -26.077      -10.753       -8.695       10.117       11.853       10.786      102.359      140.501      116.343        0.062        0.018       28.207        6.930        0.060      333.297        2.518      856.189
03/02/2014  04:33:00      -33.364      -18.051       -4.435       11.343       15.952        8.744      128.663      254.474       76.466        0.096        0.023       37.934        4.689        0.015      333.455        2.782      856.193
03/02/2014  04:34:00      -39.165      -17.397       -4.791       17.204       11.709        9.510      295.975      137.096       90.431        0.119        0.026       42.855        9.347        0.048      333.433        2.743      856.184
03/02/2014  04:35:00      -58.975      -20.795       -9.920       13.331        8.717        9.967      177.712       75.988       99.349        0.218        0.018       62.534        6.981        0.012      333.336        2.584      856.182
03/02/2014  04:36:00      -67.097       -4.997      -12.057        9.470        8.681        8.289       89.680       75.368       68.702        0.245        0.012       67.283        4.479        0.004      333.348        2.603      856.178
03/02/2014  04:37:00      -59.905       -5.290       -9.038       10.625       10.783        8.889      112.894      116.278       79.017        0.200        0.015       60.138        5.820        0.009      333.310        2.541      856.167
03/02/2014  04:38:00      -42.105       -3.964       -5.764       13.078        9.019        9.541      171.038       81.347       91.037        0.108        0.017       42.291        8.088        0.037      333.293        2.512      856.159
03/02/2014  04:39:00      -31.080       -0.775        1.999       11.329       11.620        6.716      128.355      135.026       45.108        0.064        0.015       31.089        5.038        0.026      333.457        2.783      856.148
03/02/2014  04:40:00      -31.881      -16.893       -6.480       11.589        7.618        6.540      134.301       58.029       42.778        0.079        0.012       36.080        3.570        0.010      333.328        2.571      856.142
03/02/2014  04:41:00      -41.643      -16.202       -9.353       10.106        8.575        6.864      102.128       73.537       47.120        0.115        0.011       44.684        2.574        0.003      333.335        2.583      856.133
03/02/2014  04:42:00      -53.388       -8.895      -11.600        8.731        8.259        6.249       76.232       68.219       39.047        0.162        0.009       54.124        4.046        0.006      333.338        2.587      856.130
03/02/2014  04:43:00      -50.494       -5.184       -7.677       11.418        9.405        9.868      130.362       88.451       97.378        0.148        0.016       50.760        7.350        0.021      333.287        2.501      856.126
03/02/2014  04:44:00      -42.236      -21.515       -3.682       10.135       11.032        7.600      102.718      121.714       57.758        0.127        0.014       47.400        7.983        0.028      333.273        2.479      856.119
03/02/2014  04:45:00      -40.466      -18.341      -11.444        6.983       11.002        6.219       48.763      121.048       38.672        0.116        0.010       44.428        5.655        0.016      333.497        2.850      856.118
03/02/2014  04:46:00      -19.912      -21.187       -9.402       10.300        9.935        7.297      106.094       98.697       53.241        0.060        0.013       29.075        2.653        0.008      333.571        2.974      856.121
03/02/2014  04:47:00      -17.192       -6.476       -8.033        7.547        5.640        5.112       56.957       31.806       26.134        0.026        0.006       18.372        4.007        0.048      333.606        3.034      856.130
03/02/2014  04:48:00      -13.214       20.206        8.670        9.215       11.933       10.264       84.920      142.406      105.345        0.050        0.017       24.143        4.228        0.031      333.642        3.090      856.132
03/02/2014  04:49:00      -24.763        3.953       -2.216       14.213       13.542        8.347      201.997      183.386       69.674        0.054        0.023       25.077        9.873        0.155      333.608        3.034      856.142
03/02/2014  04:50:00      -47.803      -13.197      -13.939       13.517        9.161        6.544      182.704       83.917       42.828        0.148        0.015       49.591        5.350        0.012      333.250        2.440      856.152
03/02/2014  04:51:00      -80.183      -22.709      -10.942       14.353       13.824       12.092      206.020      191.105      146.229        0.380        0.027       83.337        9.132        0.012      333.125        2.235      856.165
03/02/2014  04:52:00     -107.655      -25.139      -15.685       17.253       17.985       10.871      297.676      323.463      118.187        0.660        0.037      110.551       10.352        0.009      332.978        1.991      856.179
03/02/2014  04:53:00     -116.841      -47.015      -16.035       26.817       22.807       12.444      719.138      520.154      154.841        0.876        0.070      125.946       11.461        0.008      332.913        1.886      856.179
03/02/2014  04:54:00     -114.463      -37.626       -5.332       42.138       33.997       23.763     1775.574     1155.814      564.679        0.902        0.175      120.488       19.615        0.027      332.996        2.023      856.162
03/02/2014  04:55:00     -115.260      -17.981      -11.722       23.736       37.679       18.049      563.386     1419.727      325.775        0.803        0.115      116.654        4.437        0.001      333.049        2.110      856.144
03/02/2014  04:56:00     -105.867      -14.110       -7.813       32.253       32.603       20.053     1040.272     1062.951      402.116        0.699        0.125      106.803       13.530        0.016      333.124        2.232      856.132
03/02/2014  04:57:00     -145.382       17.523      -15.292       45.195       29.622       23.700     2042.615      877.445      561.675        1.258        0.174      146.434       22.618        0.024      333.118        2.225      856.135
03/02/2014  04:58:00     -150.529       15.874      -15.054       25.452       32.339       18.880      647.796     1045.785      356.460        1.259        0.103      151.363       11.316        0.006      333.102        2.198      856.142
03/02/2014  04:59:00     -148.771       27.485      -19.411       35.171       27.817       16.391     1237.013      773.774      268.680        1.277        0.114      151.289       11.574        0.006      333.178        2.323      856.140
03/02/2014  05:00:00      -74.305       -0.617       -7.602       54.478       26.976       18.664     2967.858      727.726      348.341        0.481        0.202       74.307       19.106        0.066      333.279        2.490      856.137
03/02/2014  05:01:00      -48.719       -6.772       -4.362       24.228       24.176       15.502      586.978      584.465      240.315        0.192        0.071       49.188       12.091        0.060      333.210        2.373      856.133
03/02/2014  05:02:00      -52.327      -19.089       -4.966       21.335       24.311       13.322      455.171      591.044      177.479        0.218        0.061       55.701       12.574        0.051      333.262        2.460      856.132
03/02/2014  05:03:00      -57.959      -31.464       -4.086       25.750       23.350       15.310      663.057      545.228      234.407        0.290        0.072       65.948       10.407        0.025      333.172        2.312      856.137
03/02/2014  05:04:00     -108.787      -37.875      -12.895       34.589       25.386       17.352     1196.414      644.444      301.088        0.779        0.107      115.191       16.879        0.021      333.086        2.169      856.149
03/02/2014  05:05:00     -130.548      -24.696      -12.779       44.328       29.956       22.040     1965.006      897.360      485.777        1.058        0.167      132.863       20.339        0.023      333.088        2.175      856.175
03/02/2014  05:06:00     -108.802       -2.265       -8.691       55.009       35.565       22.578     3025.983     1264.903      509.767        0.836        0.240      108.826       19.697        0.033      333.217        2.387      856.192
03/02/2014  05:07:00     -156.322       20.245      -12.475       43.043       40.595       25.030     1852.740     1647.973      626.492        1.456        0.206      157.628       20.663        0.017      333.196        2.350      856.208
03/02/2014  05:08:00     -137.471       24.274       -5.680       40.370       30.976       22.684     1629.773      959.501      514.558        1.131        0.155      139.597       20.851        0.022      333.233        2.411      856.213
03/02/2014  05:09:00      -90.618       13.884       -3.462       43.147       35.354       22.500     1861.636     1249.887      506.267        0.602        0.181       91.676       19.385        0.045      333.235        2.417      856.217
03/02/2014  05:10:00      -38.651       -8.478       -0.513       21.206       17.998       15.717      449.706      323.921      247.014        0.129        0.051       39.569       12.899        0.106      333.270        2.475      856.210
03/02/2014  05:11:00      -83.958       19.098       -6.399       30.416       21.423       13.616      925.140      458.949      185.388        0.451        0.078       86.103        6.866        0.006      333.302        2.527      856.205
03/02/2014  05:12:00      -53.974       -9.948       -6.622       28.682       17.194       14.671      822.673      295.619      215.227        0.219        0.067       54.883       14.485        0.070      333.315        2.548      856.202
03/02/2014  05:13:00      -22.588      -32.359      -15.158       30.128       18.488       13.248      907.670      341.791      175.521        0.161        0.071       39.463        7.151        0.033      333.422        2.726      856.214
03/02/2014  05:14:00       -9.939      -24.332        2.303       11.227       16.620       10.878      126.054      276.219      118.334        0.061        0.026       26.283        6.169        0.055      333.386        2.666      856.230
03/02/2014  05:15:00      -58.491      -30.812      -11.153       16.631       13.784        9.287      276.605      189.999       86.249        0.252        0.028       66.110        2.941        0.002      333.210        2.375      856.235
03/02/2014  05:16:00      -43.726      -30.591       -3.304       19.568       13.667       11.665      382.892      186.798      136.079        0.178        0.035       53.364        8.757        0.027      333.266        2.467      856.225
03/02/2014  05:17:00      -33.326      -33.203      -12.552       17.860       14.751       16.802      318.966      217.592      282.320        0.159        0.041       47.043       13.512        0.082      333.315        2.549      856.208
03/02/2014  05:18:00      -23.749       -0.171       -2.937       20.444       12.007       13.288      417.940      144.177      176.582        0.066        0.037       23.750       12.058        0.258      333.308        2.538      856.183
03/02/2014  05:19:00      -49.678       -0.989       -7.418       12.848       13.304        7.112      165.083      176.985       50.581        0.146        0.020       49.688        5.443        0.012      333.286        2.499      856.163
03/02/2014  05:20:00      -67.034       16.095       -8.556       10.472       10.783        8.936      109.664      116.272       79.859        0.257        0.015       68.940        5.784        0.007      333.571        2.974      856.134
03/02/2014  05:21:00      -23.889       -2.571       15.145       24.696        9.035       10.636      609.887       81.634      113.116        0.081        0.040       24.027       12.558        0.273      333.658        3.117      856.124
03/02/2014  05:22:00      -41.342      -17.055      -10.330       27.738       15.398       11.779      769.403      237.084      138.741        0.163        0.057       44.722       14.486        0.105      333.442        2.760      856.131
03/02/2014  05:23:00      -67.736      -23.037       -8.336       14.887       16.910       13.225      221.616      285.963      174.908        0.294        0.034       71.546        7.167        0.010      333.344        2.597      856.158
03/02/2014  05:24:00      -83.386       -5.203       -8.219       16.996       17.823       10.409      288.870      317.661      108.344        0.388        0.036       83.548        7.168        0.007      333.269        2.472      856.189
03/02/2014  05:25:00      -61.701        0.564      -18.849       22.212       13.931        9.600      493.371      194.084       92.165        0.247        0.039       61.703       10.094        0.027      333.439        2.754      856.210
03/02/2014  05:26:00      -53.500       -4.237      -14.782       11.026       16.010       10.878      121.580      256.315      118.332        0.180        0.025       53.667       10.441        0.038      333.209        2.374      856.222
03/02/2014  05:27:00      -64.085       -5.155      -12.697       25.704       22.725       13.875      660.681      516.436      192.504        0.283        0.068       64.292        9.473        0.022      333.245        2.433      856.220
03/02/2014  05:28:00      -75.968      -32.234       -7.318       26.133       28.396       18.350      682.957      806.343      336.705        0.434        0.091       82.524       13.993        0.029      333.206        2.368      856.211
03/02/2014  05:29:00      -78.054      -27.578       -0.516       35.619       42.342       20.909     1268.724     1792.880      437.188        0.518        0.175       82.783       18.947        0.052      333.179        2.322      856.197
03/02/2014  05:30:00      -34.236      -11.174        5.793       38.205       34.327       23.230     1459.641     1178.371      539.632        0.225        0.159       36.013       16.549        0.211      333.264        2.463      856.172
03/02/2014  05:31:00      -36.860      -10.378       -3.061       28.387       24.668       16.016      805.834      608.497      256.524        0.157        0.084       38.294       11.546        0.091      333.273        2.480      856.161
03/02/2014  05:32:00      -69.865      -26.257       -7.431       25.545       21.777       12.361      652.564      474.256      152.806        0.345        0.064       74.636       12.453        0.028      333.226        2.400      856.170
03/02/2014  05:33:00      -74.020      -33.505       -7.713       19.347       23.619       15.794      374.320      557.870      249.454        0.392        0.059       81.250        7.494        0.009      333.154        2.282      856.209
03/02/2014  05:34:00     -131.662      -47.517      -19.691       39.719       30.449       14.430     1577.567      927.119      208.221        1.135        0.136      139.974        8.576        0.004      333.084        2.168      856.277
03/02/2014  05:35:00     -154.766      -37.914      -11.855       43.171       38.872       25.759     1863.769     1511.029      663.535        1.478        0.202      159.342       26.093        0.027      333.016        2.055      856.334
03/02/2014  05:36:00     -176.135      -10.837      -19.592       43.806       33.016       25.383     1918.982     1090.039      644.278        1.759        0.183      176.468       23.985        0.018      332.993        2.017      856.362
03/02/2014  05:37:00     -108.352      -15.883       -7.308       52.736       35.438       22.172     2781.098     1255.886      491.587        0.829        0.226      109.510       23.942        0.048      332.980        1.995      856.351
03/02/2014  05:38:00      -51.903      -24.070       -0.093       44.148       38.452       18.295     1949.083     1478.570      334.699        0.352        0.188       57.212       15.265        0.071      333.140        2.261      856.331
03/02/2014  05:39:00     -106.340        4.034      -14.012       46.431       37.592       16.613     2155.878     1413.151      275.976        0.768        0.192      106.417       14.473        0.018      333.141        2.262      856.321
03/02/2014  05:40:00     -127.639        3.821       -7.196       27.436       33.010       22.016      752.741     1089.664      484.703        0.934        0.116      127.696       12.232        0.009      333.076        2.155      856.313
03/02/2014  05:41:00     -118.450      -27.245      -12.281       37.983       44.442       19.048     1442.679     1975.088      362.821        0.935        0.189      121.543        8.035        0.004      333.061        2.131      856.313
03/02/2014  05:42:00     -107.706      -21.996       -9.382       42.636       26.160       21.955     1817.850      684.336      482.040        0.758        0.149      109.929       22.675        0.043      333.113        2.216      856.314
03/02/2014  05:43:00     -103.708      -13.587       -8.385       45.953       27.691       19.796     2111.651      766.796      391.862        0.714        0.164      104.594       24.292        0.054      333.123        2.232      856.307
03/02/2014  05:44:00     -139.605       13.836      -11.966       40.036       41.727       18.001     1602.859     1741.106      324.032        1.175        0.183      140.289       15.515        0.012      333.120        2.225      856.314
03/02/2014  05:45:00     -152.742       21.703      -10.766       43.494       35.603       21.989     1891.730     1267.589      483.534        1.378        0.182      154.276       22.916        0.022      333.154        2.283      856.334
03/02/2014  05:46:00     -134.353       16.967      -12.446       38.892       27.907       21.288     1512.573      778.802      453.159        1.062        0.137      135.420       11.153        0.007      333.148        2.271      856.353
03/02/2014  05:47:00     -141.370       18.104      -11.968       51.654       35.566       19.129     2668.162     1264.937      365.930        1.238        0.215      142.525       22.557        0.025      333.140        2.260      856.345
03/02/2014  05:48:00     -141.042       32.379      -14.878       39.195       35.475       21.072     1536.250     1258.508      444.014        1.220        0.162      144.711       18.023        0.016      333.155        2.285      856.315
03/02/2014  05:49:00     -138.987       25.991      -15.094       39.893       27.043       20.592     1591.453      731.323      424.023        1.148        0.137      141.396       15.665        0.012      333.216        2.384      856.308
03/02/2014  05:50:00      -81.189      -25.858       -3.441       43.118       34.823       20.462     1859.155     1212.669      418.673        0.538        0.175       85.207       18.520        0.047      333.167        2.303      856.329
03/02/2014  05:51:00     -159.001       -6.893      -15.244       32.807       29.156       19.605     1076.307      850.049      384.339        1.394        0.116      159.151       15.837        0.010      333.153        2.281      856.380
03/02/2014  05:52:00     -136.098        0.801      -16.049       23.845       25.776       18.545      568.602      664.421      343.924        1.018        0.079      136.100       10.164        0.006      333.163        2.296      856.428
03/02/2014  05:53:00     -138.284       21.421      -11.355       38.303       23.889       14.693     1467.096      570.665      215.881        1.098        0.113      139.934       13.758        0.010      333.243        2.430      856.451
03/02/2014  05:54:00     -125.502       49.402       -9.998       42.282       23.742       20.431     1787.788      563.679      417.422        1.053        0.138      134.875       12.941        0.009      333.427        2.736      856.462
03/02/2014  05:55:00      -99.219        4.951       -8.980       20.889       21.162       15.783      436.342      447.841      249.088        0.554        0.057       99.343       11.716        0.014      333.359        2.623      856.471
03/02/2014  05:56:00     -106.134       -8.636      -11.109       42.799       25.703       22.521     1831.794      660.649      507.195        0.723        0.150      106.485       18.985        0.032      333.346        2.601      856.480
03/02/2014  05:57:00     -164.889        0.051      -14.692       33.481       44.418       21.862     1121.000     1972.926      477.938        1.549        0.179      164.889       16.305        0.010      333.248        2.437      856.507
03/02/2014  05:58:00     -158.952      -21.400      -12.223       31.282       32.731       20.030      978.592     1071.316      401.183        1.416        0.123      160.386       16.758        0.011      333.291        2.509      856.528
03/02/2014  05:59:00     -138.984      -16.302       -4.519       49.372       27.308       23.944     2437.550      745.729      573.320        1.168        0.188      139.936       22.611        0.026      333.253        2.447      856.536
03/02/2014  06:00:00     -129.341       -2.169       -6.580       27.810       35.835       18.578      773.372     1284.112      345.130        0.959        0.120      129.359       15.639        0.015      333.307        2.535      856.543
03/02/2014  06:01:00     -139.789       30.024      -16.095       25.250       37.387       17.819      637.560     1397.820      317.526        1.153        0.118      142.977       12.256        0.007      333.321        2.559      856.540
03/02/2014  06:02:00     -103.975       15.457      -12.766       23.669       19.880       11.451      560.209      395.232      131.136        0.615        0.054      105.118        8.599        0.007      333.337        2.587      856.543
03/02/2014  06:03:00      -95.719       -3.795       -7.165       18.806       15.204       11.637      353.660      231.175      135.412        0.497        0.036       95.794       10.660        0.012      333.352        2.611      856.559
03/02/2014  06:04:00      -88.917      -27.478       -8.551       19.395       17.036       10.292      376.180      290.213      105.923        0.475        0.039       93.066        8.361        0.008      333.380        2.656      856.585
03/02/2014  06:05:00      -71.200      -25.444       -3.332       36.160       21.541       14.558     1307.545      464.021      211.931        0.386        0.099       75.610       14.314        0.036      333.421        2.725      856.606
03/02/2014  06:06:00      -72.115      -15.142       -7.062       19.046       20.351       13.554      362.734      414.150      183.709        0.322        0.048       73.688        9.629        0.017      333.436        2.749      856.611
03/02/2014  06:07:00      -75.990      -14.174      -13.118       17.890       13.371        9.807      320.037      178.773       96.171        0.337        0.030       77.301        8.065        0.011      333.497        2.849      856.602
03/02/2014  06:08:00      -42.593       -4.535       -5.833       20.692       18.531       11.762      428.172      343.382      138.345        0.139        0.045       42.834        9.851        0.053      333.470        2.804      856.591
03/02/2014  06:09:00      -28.945       -7.786       -8.407       17.369       14.882        9.882      301.692      221.482       97.657        0.079        0.031       29.974        3.874        0.017      333.571        2.974      856.575
03/02/2014  06:10:00      -23.680       -8.681       -2.827       12.007        9.757        6.922      144.165       95.202       47.913        0.047        0.014       25.221        3.405        0.018      333.605        3.029      856.553
03/02/2014  06:11:00       -3.884       -5.621        3.653        7.037        6.439        7.710       49.524       41.455       59.437        0.011        0.008        6.832        5.695        0.695      333.716        3.214      856.539
03/02/2014  06:12:00       -3.142       -0.403       12.400        9.792       16.384       15.682       95.892      268.439      245.920        0.039        0.031        3.168       15.348       23.469      333.725        3.228      856.523
03/02/2014  06:13:00       34.475       32.632       16.984       19.551       14.397       18.977      382.247      207.270      360.120        0.175        0.047       47.470       12.822        0.073      333.665        3.128      856.495
03/02/2014  06:14:00       64.749       32.553        3.464       19.028       12.536       14.577      362.078      157.149      212.502        0.300        0.037       72.471        9.865        0.019      333.543        2.926      856.476
03/02/2014  06:15:00       68.430       30.893      -10.013       14.038       13.000        9.188      197.079      169.011       84.424        0.309        0.023       75.080        6.459        0.007      333.420        2.723      856.466
03/02/2014  06:16:00       59.289       43.836       -0.001       12.629       14.387       15.864      159.494      206.999      251.665        0.303        0.031       73.735        8.524        0.013      333.379        2.654      856.476
03/02/2014  06:17:00       45.584       15.549        2.694       22.059       17.433       15.419      486.585      303.905      237.760        0.168        0.051       48.163       16.526        0.118      333.337        2.587      856.508
03/02/2014  06:18:00       26.504       30.286       20.064       12.230        9.774       13.507      149.561       95.527      182.444        0.122        0.021       40.246        4.417        0.012      333.321        2.559      856.531
03/02/2014  06:19:00       14.757       17.309        8.634        9.770        9.622        8.156       95.451       92.584       66.513        0.042        0.013       22.745        3.696        0.026      333.313        2.547      856.531
03/02/2014  06:20:00       39.942       33.192       18.305       10.273        7.170       10.084      105.534       51.411      101.690        0.165        0.013       51.933        6.876        0.018      333.307        2.535      856.519
03/02/2014  06:21:00       52.650       40.027       10.768       16.068       10.981       14.249      258.192      120.587      203.024        0.254        0.029       66.138       10.648        0.026      333.329        2.572      856.511
03/02/2014  06:22:00       52.834       42.234       14.427       13.923       10.954       15.761      193.838      119.980      248.420        0.267        0.028       67.639       11.280        0.028      333.343        2.595      856.518
03/02/2014  06:23:00       27.327       17.787       24.922       17.100       15.089       14.143      292.401      227.684      200.010        0.120        0.036       32.606        4.219        0.017      333.383        2.662      856.518
03/02/2014  06:24:00       17.685       29.236       44.657       19.575       20.262       10.469      383.189      410.550      109.608        0.203        0.045       34.169        9.361        0.075      333.522        2.893      856.514
03/02/2014  06:25:00       33.664      -38.084       14.993       28.139       39.776       27.156      791.819     1582.101      737.468        0.296        0.156       50.830       30.354        0.357      333.643        3.091      856.508
03/02/2014  06:26:00       45.740      -77.355      -18.203       21.996       21.631       17.132      483.805      467.880      293.504        0.483        0.062       89.866       11.213        0.016      333.820        3.387      856.497
03/02/2014  06:27:00       28.836      -56.132      -14.638       28.879       26.968       22.786      834.005      727.280      519.220        0.314        0.104       63.105       14.221        0.051      333.822        3.389      856.481
03/02/2014  06:28:00      -38.921       -9.568        1.079       14.433       11.185        9.533      208.305      125.101       90.879        0.102        0.021       40.080        9.179        0.052      333.544        2.928      856.483
03/02/2014  06:29:00      -39.105      -20.239       -5.244       28.009        9.743        8.189      784.483       94.925       67.064        0.146        0.047       44.032        6.338        0.021      333.504        2.861      856.488
03/02/2014  06:30:00      -27.572       -1.292        7.463       22.585       14.034       12.803      510.088      196.956      163.927        0.084        0.044       27.602       12.593        0.208      333.504        2.862      856.511
03/02/2014  06:31:00       -5.917        9.428        2.803        6.852        8.251        7.428       46.947       68.074       55.178        0.015        0.009       11.131        5.161        0.215      333.565        2.963      856.560
03/02/2014  06:32:00      -32.478        9.697       -5.022       19.702        9.368        5.962      388.163       87.753       35.540        0.084        0.026       33.895        4.565        0.018      333.601        3.023      856.627
03/02/2014  06:33:00      -55.102       -8.771       -3.423        9.050       13.015        5.730       81.903      169.392       32.837        0.170        0.014       55.795        4.933        0.008      333.683        3.157      856.692
03/02/2014  06:34:00      -52.337        0.908       -4.283       17.256       15.481        9.236      297.753      239.663       85.312        0.169        0.031       52.345        7.703        0.022      333.615        3.046      856.730
03/02/2014  06:35:00      -59.668        2.727       -1.458       13.543       12.591       10.557      183.404      158.525      111.450        0.201        0.023       59.730        6.034        0.010      333.602        3.024      856.748
03/02/2014  06:36:00      -30.241        7.349        3.963       18.547       12.428       12.784      343.993      154.443      163.424        0.082        0.033       31.121        5.137        0.027      333.641        3.088      856.752
03/02/2014  06:37:00       -7.678       12.347       -1.655       13.379       12.671        7.794      179.002      160.552       60.750        0.031        0.020       14.540        4.210        0.084      333.691        3.172      856.744
03/02/2014  06:38:00      -24.338       16.261        1.456       10.680        8.732        8.871      114.057       76.254       78.693        0.056        0.013       29.271        6.350        0.047      333.682        3.156      856.745
03/02/2014  06:39:00      -22.956       12.411        4.060       15.061       13.096       10.243      226.833      171.509      104.910        0.060        0.025       26.096        9.270        0.126      333.711        3.205      856.757
03/02/2014  06:40:00      -14.452        7.010        1.675       17.318       13.477        8.321      299.897      181.625       69.240        0.041        0.028       16.063        8.438        0.276      333.657        3.117      856.762
03/02/2014  06:41:00      -45.372      -11.358       -8.714       14.978       20.674       10.992      224.342      427.418      120.830        0.152        0.039       46.772        9.882        0.045      333.493        2.844      856.765
03/02/2014  06:42:00      -22.988       17.740       -7.178       19.774       16.282       15.363      391.003      265.098      236.015        0.089        0.045       29.038        8.002        0.076      333.466        2.800      856.757
03/02/2014  06:43:00      -37.139       28.689       -4.589       21.090       36.844       17.294      444.787     1357.499      299.085        0.216        0.105       46.929       15.771        0.113      333.572        2.974      856.753
03/02/2014  06:44:00       12.997       66.264       -2.562       18.181       37.926       15.940      330.531     1438.369      254.084        0.329        0.101       67.526       15.984        0.056      333.662        3.124      856.773
03/02/2014  06:45:00       -4.371       97.752       -4.889       14.714       21.808       15.843      216.515      475.580      250.985        0.527        0.047       97.850       12.553        0.016      333.775        3.312      856.800
03/02/2014  06:46:00       -0.686       77.963       -8.863       16.888       11.867        7.279      285.197      140.826       52.988        0.332        0.024       77.966        5.123        0.004      333.768        3.299      856.816
03/02/2014  06:47:00       -2.976       54.125       -6.062        9.629       16.565        7.721       92.713      274.399       59.617        0.170        0.021       54.207        4.124        0.006      333.833        3.409      856.826
03/02/2014  06:48:00        2.707       73.243       -2.192        9.845       18.814       18.548       96.916      353.963      344.013        0.309        0.040       73.293       15.130        0.043      333.752        3.275      856.832
03/02/2014  06:49:00       -3.883       86.471       -6.836       12.163       23.479        8.302      147.941      551.242       68.919        0.415        0.038       86.558        7.942        0.008      333.763        3.293      856.829
03/02/2014  06:50:00        3.110       94.866      -10.058        6.607       10.751        6.770       43.653      115.576       45.835        0.466        0.010       94.917        4.427        0.002      333.754        3.278      856.822
03/02/2014  06:51:00        5.090      100.787      -13.132        5.762       10.268        4.790       33.195      105.422       22.941        0.526        0.008      100.916        1.362        0.000      333.724        3.226      856.821
03/02/2014  06:52:00        8.297       77.734      -14.019        7.097       11.607        4.850       50.365      134.723       23.521        0.326        0.010       78.176        3.545        0.002      333.678        3.148      856.847
03/02/2014  06:53:00       12.763       44.346       -7.852        7.093        9.959        5.542       50.316       99.188       30.710        0.119        0.009       46.146        3.201        0.005      333.660        3.120      856.891
03/02/2014  06:54:00        3.680       34.939       -4.426       11.656       10.691        7.140      135.858      114.306       50.977        0.078        0.015       35.132        4.879        0.019      333.684        3.161      856.942
03/02/2014  06:55:00       -6.298       32.701        4.232       13.378       13.824       16.083      178.959      191.116      258.675        0.088        0.031       33.302       11.052        0.110      333.693        3.175      856.991
03/02/2014  06:56:00      -10.817        5.835        1.391        9.053        9.848       10.729       81.960       96.990      115.114        0.022        0.015       12.291        6.188        0.254      333.678        3.151      857.027
03/02/2014  06:57:00        7.102       24.462       -1.103       11.807       22.594       10.285      139.412      510.503      105.781        0.070        0.038       25.472        9.599        0.142      333.672        3.140      857.040
03/02/2014  06:58:00       27.758       55.498       -4.791       10.922       10.694        8.336      119.292      114.351       69.495        0.209        0.015       62.053        7.317        0.014      333.620        3.054      857.032
03/02/2014  06:59:00       32.198       32.230       -7.087       10.844       12.656        8.487      117.588      160.166       72.033        0.124        0.017       45.557        6.096        0.018      333.622        3.058      857.020
03/02/2014  07:00:00        7.798       27.067       -8.834        7.628        6.662        4.281       58.192       44.377       18.329        0.050        0.006       28.168        2.800        0.010      333.617        3.052      857.020
03/02/2014  07:01:00      -15.928       15.564       -3.066       10.602       13.309        6.207      112.403      177.128       38.531        0.042        0.016       22.270        7.551        0.115      333.652        3.108      857.026
03/02/2014  07:02:00      -44.401        6.296       -2.253       11.246       11.507        8.741      126.478      132.422       76.398        0.118        0.017       44.845        4.700        0.011      333.706        3.199      857.029
03/02/2014  07:03:00      -48.916        6.843       -2.740        6.704        6.269        3.934       44.944       39.299       15.475        0.127        0.005       49.392        2.558        0.003      333.663        3.124      857.030
03/02/2014  07:04:00      -30.170       -0.727        1.270        8.948        9.128        7.042       80.071       83.316       49.589        0.056        0.011       30.179        7.177        0.057      333.776        3.312      857.029
03/02/2014  07:05:00       -7.082       11.334       13.765        8.834        8.395        8.456       78.033       70.479       71.504        0.029        0.011       13.364        6.480        0.235      333.805        3.362      857.016
03/02/2014  07:06:00       31.297       45.863        3.350       13.902       24.507       18.222      193.254      600.590      332.054        0.211        0.056       55.524       18.727        0.114      333.682        3.158      857.001
03/02/2014  07:07:00       37.021       35.746        0.775       22.198       18.859       14.982      492.755      355.674      224.458        0.186        0.054       51.462       13.568        0.070      333.671        3.139      856.996
03/02/2014  07:08:00       33.611       44.940       -7.578       20.803       17.111       14.943      432.767      292.771      223.285        0.208        0.047       56.118        8.250        0.022      333.672        3.141      856.998
03/02/2014  07:09:00       26.351       27.942       -3.080       25.452       21.984       16.270      647.783      483.275      264.712        0.144        0.070       38.408       13.604        0.125      333.676        3.147      857.002
03/02/2014  07:10:00       30.925       33.676        0.666       21.226       16.443       14.614      450.564      270.370      213.566        0.151        0.047       45.721        5.548        0.015      333.670        3.138      857.004
03/02/2014  07:11:00       41.507       19.930        1.006       24.320       20.257       16.569      591.471      410.340      274.530        0.170        0.064       46.043       11.163        0.059      333.655        3.112      857.006
03/02/2014  07:12:00       68.632       34.301        2.560       24.039       15.655       18.444      577.891      245.078      340.172        0.353        0.058       76.726       11.020        0.021      333.638        3.084      857.024
03/02/2014  07:13:00       75.730       35.375        7.404       23.859       25.068       21.394      569.257      628.416      457.706        0.435        0.083       83.585       12.557        0.023      333.618        3.051      857.040
03/02/2014  07:14:00       63.952       43.309        5.472       23.751       19.138       16.465      564.126      366.257      271.085        0.360        0.060       77.237       10.397        0.018      333.567        2.965      857.055
03/02/2014  07:15:00       54.435       45.477        5.051       13.564       14.751       12.635      183.986      217.580      159.647        0.281        0.028       70.931        8.625        0.015      333.485        2.830      857.069
03/02/2014  07:16:00       55.842       39.619       -3.521       16.362       14.464        8.552      267.703      209.200       73.138        0.263        0.028       68.469        6.114        0.008      333.438        2.751      857.093
03/02/2014  07:17:00       49.519       51.789       19.674       13.588        9.964       16.434      184.635       99.289      270.084        0.304        0.028       71.653       10.005        0.019      333.444        2.763      857.136
03/02/2014  07:18:00       57.565       54.904       39.981       31.684       16.071       18.927     1003.867      258.278      358.249        0.477        0.081       79.550       17.883        0.051      333.431        2.740      857.171
03/02/2014  07:19:00       79.717       44.281       25.969       24.958       22.376       25.175      622.885      500.687      633.761        0.537        0.088       91.190       14.445        0.025      333.375        2.649      857.189
03/02/2014  07:20:00       75.829       47.674       18.898       29.839       23.717       26.529      890.364      562.510      703.784        0.527        0.108       89.571       17.863        0.040      333.394        2.680      857.208
03/02/2014  07:21:00       71.693       45.044       28.861       33.368       29.047       26.959     1113.430      843.709      726.790        0.534        0.134       84.669       23.740        0.079      333.419        2.722      857.221
03/02/2014  07:22:00       79.581       38.815       16.447       47.411       32.037       32.244     2247.800     1026.396     1039.682        0.621        0.216       88.542       28.710        0.105      333.435        2.749      857.230
03/02/2014  07:23:00       98.519       65.580       49.080       47.881       30.734       32.123     2292.582      944.584     1031.902        1.034        0.213      118.350       26.979        0.052      333.421        2.725      857.249
03/02/2014  07:24:00       92.392       71.794       37.098       39.649       27.434       40.932     1572.006      752.618     1675.434        0.953        0.200      117.007       27.041        0.053      333.279        2.491      857.267
03/02/2014  07:25:00       59.984       60.040       57.336       35.051       32.144       23.729     1228.606     1033.211      563.075        0.666        0.141       84.870       16.818        0.039      333.351        2.607      857.281
03/02/2014  07:26:00       81.191       93.561       52.616       39.617       25.404       31.572     1569.524      645.383      996.807        1.066        0.161      123.878       22.441        0.033      333.373        2.644      857.284
03/02/2014  07:27:00       66.042       63.588       42.666       32.986       25.011       21.777     1088.105      625.550      474.233        0.621        0.109       91.679       10.005        0.012      333.348        2.603      857.293
03/02/2014  07:28:00       50.484       23.764       19.091       18.738       30.003       25.445      351.126      900.154      647.429        0.269        0.095       55.798       21.995        0.155      333.376        2.649      857.312
03/02/2014  07:29:00       38.788       -3.684        8.502       16.882       13.031       11.502      284.991      169.794      132.302        0.109        0.029       38.963        8.119        0.043      333.416        2.717      857.342
03/02/2014  07:30:00       -1.008        9.225        8.249       19.269        8.633        9.431      371.279       74.524       88.943        0.034        0.027        9.280        7.156        0.595      333.484        2.828      857.365
03/02/2014  07:31:00      -10.104       10.683        6.309       15.247       12.570       10.704      232.473      158.016      114.565        0.038        0.025       14.705        9.647        0.430      333.553        2.943      857.374
03/02/2014  07:32:00       -3.846       13.173       36.794       14.270       22.495       19.243      203.642      506.009      370.311        0.131        0.054       13.723       18.758        1.868      333.643        3.093      857.377
03/02/2014  07:33:00       29.426       45.848       37.993       32.174       23.262       33.479     1035.154      541.129     1120.823        0.355        0.135       54.479       26.286        0.233      333.563        2.961      857.358
03/02/2014  07:34:00       77.552       64.871       31.376       35.343       17.751       31.720     1249.109      315.092     1006.183        0.689        0.129      101.107       28.231        0.078      333.581        2.990      857.345
03/02/2014  07:35:00       37.438       84.151       72.623       25.413       27.850       17.223      645.835      775.623      296.644        0.774        0.086       92.103        5.866        0.004      333.607        3.032      857.358
03/02/2014  07:36:00       37.667       58.141       54.352       26.841       30.564       23.823      720.413      934.146      567.558        0.499        0.111       69.276       20.868        0.091      333.541        2.924      857.394
03/02/2014  07:37:00       26.329       34.912       30.711       29.086       32.466       20.208      846.011     1054.012      408.346        0.258        0.115       43.727       16.120        0.136      333.552        2.940      857.430
03/02/2014  07:38:00       -6.045       47.735       -4.876       17.591       23.552        8.217      309.441      554.689       67.519        0.164        0.047       48.116        9.785        0.041      333.492        2.842      857.451
03/02/2014  07:39:00        6.236       66.598       -9.750       12.513       22.449       10.740      156.574      503.963      115.347        0.267        0.039       66.889       11.899        0.032      333.478        2.820      857.458
03/02/2014  07:40:00        5.104       33.601        3.029       17.755       21.419       17.335      315.238      458.758      300.509        0.112        0.054       33.987        8.142        0.057      333.570        2.971      857.492
03/02/2014  07:41:00        2.581      -27.001       -2.691       12.392       21.470       12.768      153.555      460.961      163.022        0.076        0.039       27.124       10.975        0.164      333.621        3.056      857.531
03/02/2014  07:42:00        8.120      -55.289        2.723       15.174       21.413       17.170      230.253      458.526      294.804        0.206        0.049       55.882        7.830        0.020      333.848        3.432      857.569
03/02/2014  07:43:00       -2.965      -36.738        8.981       24.623       19.672       18.710      606.300      386.999      350.048        0.139        0.067       36.858       14.214        0.149      333.704        3.194      857.578
03/02/2014  07:44:00        7.629       25.628       18.415       10.325       13.709       14.838      106.613      187.944      220.153        0.078        0.026       26.739       11.391        0.181      333.681        3.156      857.560
03/02/2014  07:45:00       18.359       43.957       10.275       16.311       13.651       13.686      266.059      186.355      187.304        0.151        0.032       47.637       10.353        0.047      333.599        3.019      857.532
03/02/2014  07:46:00       17.582       43.162       -6.187       12.392       16.455       10.558      153.566      270.774      111.463        0.137        0.027       46.606        8.359        0.032      333.590        3.004      857.524
03/02/2014  07:47:00       29.262       15.795       -4.994       15.795       10.522       10.534      249.485      110.718      110.959        0.080        0.024       33.253        4.352        0.017      333.687        3.165      857.556
03/02/2014  07:48:00       12.473       34.551       45.251       14.411       21.156       15.914      207.690      447.562      253.242        0.215        0.045       36.734       15.404        0.176      333.802        3.356      857.592
03/02/2014  07:49:00       20.963       74.180       69.939       35.836       42.110       34.702     1284.240     1773.247     1204.250        0.755        0.213       77.085       27.427        0.127      333.799        3.349      857.602
03/02/2014  07:50:00       18.843       32.100       63.451       31.820       33.850       24.645     1012.532     1145.805      607.355        0.409        0.138       37.222       20.167        0.294      333.888        3.499      857.605
03/02/2014  07:51:00       29.206       64.383       62.300       33.619       41.203       26.443     1130.252     1697.665      699.228        0.620        0.176       70.698       15.035        0.045      333.791        3.339      857.594
03/02/2014  07:52:00       74.468       47.126       14.352       27.096       28.562       26.174      734.174      815.788      685.072        0.510        0.112       88.127        9.804        0.012      333.721        3.221      857.589
03/02/2014  07:53:00       34.525       30.501       -8.764       34.712       11.608       13.200     1204.937      134.745      174.242        0.186        0.076       46.068       13.467        0.085      333.682        3.156      857.594
03/02/2014  07:54:00       11.385       48.720       -8.001       18.202       13.771       10.136      331.330      189.653      102.738        0.160        0.031       50.033        8.546        0.029      333.739        3.251      857.615
03/02/2014  07:55:00       50.538       35.058        8.776       13.405       11.455       20.238      179.699      131.206      409.565        0.229        0.036       61.508       12.941        0.044      333.768        3.298      857.643
03/02/2014  07:56:00       13.156       41.369       58.614       24.828       41.051       22.767      616.407     1685.144      518.337        0.407        0.141       43.410       25.729        0.351      333.903        3.523      857.695
03/02/2014  07:57:00       62.955      -60.698        3.844       60.525       61.811       47.911     3663.252     3820.583     2295.446        0.872        0.489       87.450       53.243        0.371      333.958        3.615      857.732
03/02/2014  07:58:00       32.595      -10.281       26.400       36.968       43.846       37.004     1366.601     1922.504     1369.287        0.326        0.233       34.178       33.996        0.989      334.045        3.758      857.747
03/02/2014  07:59:00       36.292        6.527       38.063       39.725       24.711       26.155     1578.071      610.642      684.095        0.284        0.144       36.875       18.731        0.258      334.048        3.764      857.737
03/02/2014  08:00:00       27.856       -1.333       29.830       27.638       27.426       24.297      763.873      752.183      590.338        0.189        0.105       27.888       17.451        0.392      334.121        3.885      857.732
03/02/2014  08:01:00        3.661       16.610       33.263       11.683       36.267       13.154      136.494     1315.290      173.022        0.151        0.081       17.009       13.807        0.659      334.219        4.048      857.738
03/02/2014  08:02:00       37.081       44.225       11.348       26.914       23.367       20.756      724.388      545.996      430.829        0.258        0.085       57.714       17.767        0.095      334.111        3.868      857.749
03/02/2014  08:03:00       53.073       48.059       -2.956       16.572       22.930       14.244      274.628      525.784      202.889        0.307        0.050       71.598       11.056        0.024      334.028        3.731      857.756
03/02/2014  08:04:00       65.628       24.484        4.068       26.300       19.184       17.960      691.679      368.033      322.562        0.315        0.069       70.047        9.531        0.019      334.027        3.730      857.762
03/02/2014  08:05:00       50.981       42.734       24.377       20.960       14.942       19.551      439.333      223.256      382.259        0.303        0.052       66.522       14.483        0.047      334.034        3.740      857.787
03/02/2014  08:06:00       21.153       24.225       36.223       19.521       30.160       15.957      381.053      909.639      254.621        0.195        0.077       32.160       11.859        0.136      334.099        3.849      857.828
03/02/2014  08:07:00        4.962       49.277       60.826       16.591       26.698       15.524      275.275      712.807      241.007        0.369        0.061       49.526       14.871        0.090      334.115        3.875      857.872
03/02/2014  08:08:00       -3.428       24.260       63.536       17.942       37.396       19.146      321.914     1398.427      366.551        0.336        0.104       24.501       21.728        0.786      334.185        3.991      857.903
03/02/2014  08:09:00      -11.256      -19.957       34.907       26.620       58.640       37.369      708.632     3438.623     1396.424        0.364        0.277       22.912       40.779        3.168      334.204        4.023      857.908
03/02/2014  08:10:00       17.708      -20.811       10.331       23.092       40.839       25.325      533.234     1667.794      641.372        0.185        0.142       27.325       19.614        0.515      334.257        4.111      857.895
03/02/2014  08:11:00      -22.851        7.440       11.075       22.429       21.433       13.367      503.068      459.356      178.664        0.092        0.057       24.032       13.138        0.299      334.239        4.082      857.900
03/02/2014  08:12:00      -33.340       -7.668        8.897       17.723       19.427       15.186      314.110      377.417      230.605        0.109        0.046       34.210       11.157        0.106      334.222        4.052      857.933
03/02/2014  08:13:00      -17.394      -23.485        1.902       29.115       23.816       16.019      847.659      567.189      256.603        0.126        0.084       29.225       11.488        0.155      334.312        4.202      857.976
03/02/2014  08:14:00      -30.955      -14.791        5.620       17.147       19.557       12.789      294.010      382.484      163.565        0.102        0.042       34.307       11.286        0.108      334.274        4.141      857.998
03/02/2014  08:15:00      -18.703        2.417       24.951       14.748       16.329       19.078      217.507      266.636      363.973        0.091        0.042       18.858       14.109        0.560      334.402        4.353      857.992
03/02/2014  08:16:00      -15.918       25.258       52.880       17.849       19.988       17.982      318.598      399.513      323.370        0.236        0.052       29.856       13.808        0.214      334.385        4.323      857.976
03/02/2014  08:17:00        9.742       35.171       40.934       24.150       27.686       19.511      583.222      766.511      380.680        0.237        0.087       36.495       12.717        0.121      334.331        4.233      857.980
03/02/2014  08:18:00        4.677       19.656       59.096       19.884       26.182       17.903      395.382      685.512      320.512        0.265        0.070       20.204       12.211        0.365      334.325        4.223      858.037
03/02/2014  08:19:00       12.260      -40.859       35.191       30.176       68.223       34.668      910.598     4654.325     1201.869        0.491        0.338       42.659       30.101        0.498      334.350        4.265      858.100
03/02/2014  08:20:00       28.118       49.213       72.955       46.154       59.817       50.191     2130.210     3578.039     2519.129        0.838        0.411       56.679       50.916        0.807      334.158        3.946      858.135
03/02/2014  08:21:00       59.270       40.181       39.686       21.829       31.159       22.865      476.525      970.886      522.800        0.434        0.099       71.606       16.791        0.055      334.084        3.823      858.143
03/02/2014  08:22:00       49.952       46.595        0.047       14.449       15.165       22.908      208.771      229.972      524.762        0.281        0.048       68.310        9.092        0.018      334.032        3.737      858.126
03/02/2014  08:23:00       40.407       61.802       -6.730       17.991       19.597       18.335      323.671      384.035      336.155        0.327        0.052       73.839        8.030        0.012      334.075        3.809      858.113
03/02/2014  08:24:00       72.182       52.060       15.545       30.354       19.132       19.796      921.337      366.021      391.864        0.492        0.084       88.997       19.640        0.049      334.099        3.847      858.133
03/02/2014  08:25:00       25.541       31.279       42.751       26.692       32.436       21.369      712.480     1052.120      456.641        0.284        0.111       40.383       20.576        0.260      334.198        4.013      858.180
03/02/2014  08:26:00       32.249      -31.519       21.093       33.325       61.630       35.338     1110.575     3798.298     1248.739        0.432        0.308       45.094       39.767        0.778      334.227        4.061      858.221
03/02/2014  08:27:00       29.757      -83.181      -10.277       20.586       23.672       17.083      423.780      560.363      291.845        0.459        0.064       88.343       12.543        0.020      334.310        4.198      858.224
03/02/2014  08:28:00       10.947       -6.939       19.677       22.390       32.187       17.451      501.314     1035.978      304.535        0.120        0.092       12.961       19.455        2.253      334.442        4.419      858.222
03/02/2014  08:29:00        5.407      -16.571        9.833       13.768       25.354       20.092      189.568      642.802      403.682        0.082        0.062       17.430       10.803        0.384      334.443        4.420      858.220
03/02/2014  08:30:00       -9.288       34.851        4.070       30.433       22.141       19.654      926.179      490.241      386.262        0.156        0.090       36.068       13.595        0.142      334.295        4.173      858.226
03/02/2014  08:31:00      -31.786       41.428       26.881       28.156       20.003       24.159      792.767      400.111      583.633        0.261        0.089       52.217        7.379        0.020      334.273        4.138      858.226
03/02/2014  08:32:00      -13.569       47.779       34.351       22.441       25.178       22.018      503.596      633.949      484.800        0.263        0.081       49.668        8.320        0.028      334.318        4.214      858.212
03/02/2014  08:33:00      -12.422       27.040       48.870       13.328       34.178       29.380      177.643     1168.154      863.162        0.274        0.110       29.757       24.820        0.696      334.378        4.312      858.194
03/02/2014  08:34:00       34.705       66.841       73.399       42.614       36.693       25.093     1815.954     1346.361      629.678        0.743        0.190       75.313       24.317        0.104      334.271        4.135      858.169
03/02/2014  08:35:00       37.130       72.773       80.126       46.402       34.966       27.603     2153.143     1222.609      761.937        0.862        0.207       81.698       25.600        0.098      334.262        4.118      858.123
03/02/2014  08:36:00       59.131       84.742       71.813       51.574       45.700       34.744     2659.927     2088.518     1207.146        1.089        0.298      103.333       28.956        0.079      334.292        4.169      858.083
03/02/2014  08:37:00       73.447       92.543       79.671       26.476       26.960       25.493      700.959      726.856      649.901        1.119        0.104      118.147       18.850        0.025      334.197        4.010      858.074
03/02/2014  08:38:00       27.083       51.083       51.247       28.659       25.112       16.225      821.346      630.624      263.263        0.384        0.086       57.818       12.475        0.047      334.235        4.075      858.087
03/02/2014  08:39:00       10.952       35.142       45.626       23.997       32.646       19.385      575.858     1065.770      375.795        0.273        0.101       36.809       21.497        0.341      334.311        4.201      858.123
03/02/2014  08:40:00      -79.938       17.489        4.248       44.671       46.873       21.869     1995.526     2197.089      478.273        0.569        0.234       81.829       27.078        0.110      334.393        4.337      858.166
03/02/2014  08:41:00      -87.189      -20.516        1.640       39.219       40.541       13.891     1538.107     1643.567      192.973        0.570        0.169       89.570       18.880        0.044      334.387        4.325      858.197
03/02/2014  08:42:00      -44.893      -37.780       -0.393       39.395       20.486       20.342     1551.980      419.674      413.778        0.291        0.119       58.675       17.392        0.088      334.495        4.505      858.203
03/02/2014  08:43:00      -86.863      -72.072      -10.989       19.065       19.401       14.700      363.483      376.384      216.078        0.691        0.048      112.870        7.592        0.005      334.344        4.256      858.191
03/02/2014  08:44:00      -48.074      -50.080       -9.278       12.342       22.616        9.491      152.328      511.502       90.084        0.283        0.038       69.420        7.219        0.011      334.362        4.286      858.163
03/02/2014  08:45:00      -29.829        6.502        7.040       11.326       13.572        9.941      128.280      184.199       98.831        0.070        0.021       30.529       10.551        0.119      334.449        4.429      858.136
03/02/2014  08:46:00       -2.141       10.964        0.629       17.491       12.496       14.693      305.923      156.157      215.882        0.040        0.034       11.171       12.254        1.203      334.557        4.611      858.122
03/02/2014  08:47:00       -1.971       27.248       -3.051       24.728       19.663       12.004      611.462      386.649      144.092        0.095        0.057       27.319       11.743        0.185      334.436        4.408      858.114
03/02/2014  08:48:00       51.760       40.220       11.782       27.201       24.299       24.373      739.910      590.425      594.056        0.318        0.096       65.549       16.276        0.062      334.380        4.315      858.111
03/02/2014  08:49:00       76.146       49.938        7.914       27.005       25.104       22.416      729.289      630.200      502.488        0.511        0.093       91.060        9.739        0.011      334.431        4.399      858.127
03/02/2014  08:50:00       78.934       60.329       16.558       23.470       16.113       14.941      550.838      259.613      223.233        0.559        0.052       99.348        4.966        0.002      334.344        4.255      858.154
03/02/2014  08:51:00       69.339       63.891       25.311       36.974       21.026       23.847     1367.045      442.106      568.675        0.595        0.119       94.286       20.953        0.049      334.451        4.432      858.192
03/02/2014  08:52:00       87.163       68.430       12.258       26.588       21.934       25.821      706.897      481.122      666.703        0.714        0.093      110.816       11.049        0.010      334.392        4.334      858.195
03/02/2014  08:53:00       59.074       57.298       34.852       61.510       42.293       35.671     3783.491     1788.701     1272.436        0.741        0.342       82.297       41.683        0.257      334.516        4.541      858.201
03/02/2014  08:54:00        4.020       61.668       67.366       24.484       33.511       29.042      599.474     1123.000      843.442        0.546        0.128       61.799       16.437        0.071      334.710        4.862      858.193
03/02/2014  08:55:00       72.395       54.560       23.147       31.681       28.578       36.998     1003.693      816.679     1368.862        0.597        0.159       90.652       22.447        0.061      334.637        4.741      858.187
03/02/2014  08:56:00       44.546       43.219        9.090       54.241       32.473       25.255     2942.138     1054.503      637.794        0.428        0.232       62.066       16.116        0.067      334.469        4.464      858.194
03/02/2014  08:57:00       79.700       53.979        5.484       30.554       34.203       28.832      933.574     1169.878      831.288        0.611        0.147       96.260       18.237        0.036      334.320        4.215      858.192
03/02/2014  08:58:00       10.814        4.430       16.317       32.775       10.755       15.181     1074.201      115.678      230.450        0.091        0.071       11.686       13.295        1.294      334.580        4.647      858.207
03/02/2014  08:59:00       30.528       38.585       -7.641       18.661       19.327       17.897      348.245      373.536      320.296        0.176        0.052       49.202       11.353        0.053      334.400        4.347      858.233
03/02/2014  09:00:00       24.303       30.992       -2.194       15.825       19.217       16.680      250.437      369.286      278.231        0.123        0.045       39.384       12.291        0.097      334.450        4.431      858.275
03/02/2014  09:01:00       31.595       42.670        0.230       19.965       25.718       11.955      398.608      661.421      142.933        0.201        0.060       53.094        9.731        0.034      334.430        4.397      858.276
03/02/2014  09:02:00       10.163       29.772        6.685       14.025       29.750       14.733      196.707      885.038      217.059        0.117        0.065       31.459       12.530        0.159      334.575        4.638      858.277
03/02/2014  09:03:00       -1.000       66.866       -5.428       10.297       13.115        9.835      106.031      172.007       96.734        0.244        0.019       66.873        6.301        0.009      334.413        4.371      858.261
03/02/2014  09:04:00      -19.808       68.507      -15.176       29.315       27.273       12.020      859.358      743.791      144.490        0.353        0.087       71.313        8.585        0.014      334.448        4.428      858.254
03/02/2014  09:05:00       -1.956       90.970      -14.496        9.623       14.416       10.318       92.595      207.817      106.461        0.445        0.020       90.991        5.597        0.004      334.484        4.485      858.245
03/02/2014  09:06:00        0.193       85.734      -15.606        6.949       12.889        9.140       48.295      166.114       83.543        0.395        0.015       85.734        3.336        0.002      334.416        4.374      858.271
03/02/2014  09:07:00       20.914       36.662        2.339       21.170       21.652       16.880      448.186      468.790      284.948        0.149        0.060       42.208       11.206        0.070      334.551        4.597      858.304
03/02/2014  09:08:00       28.412       17.358       -9.308       10.220       18.588       14.524      104.438      345.496      210.949        0.093        0.033       33.295        9.874        0.088      334.530        4.563      858.356
03/02/2014  09:09:00       19.119       41.099        5.595       14.239       16.397       12.282      202.737      268.850      150.851        0.135        0.031       45.329        9.558        0.044      334.605        4.689      858.408
03/02/2014  09:10:00       14.557        8.432       14.790       26.945       26.219       13.982      726.052      687.456      195.483        0.106        0.080       16.823       16.432        0.954      334.759        4.944      858.441
03/02/2014  09:11:00       30.699       41.878       29.226       15.970       13.250       11.309      255.036      175.566      127.904        0.205        0.028       51.925        7.254        0.020      334.540        4.579      858.444
03/02/2014  09:12:00       24.527       38.865       46.072       15.999       16.006        5.909      255.971      256.186       34.912        0.239        0.027       45.957        4.818        0.011      334.627        4.725      858.418
03/02/2014  09:13:00       21.118        7.607       19.092       22.279       16.267       18.636      496.374      264.615      347.298        0.099        0.055       22.446        7.760        0.120      334.810        5.027      858.390
03/02/2014  09:14:00        0.826       18.050       10.459       15.609       15.231       12.095      243.634      231.980      146.292        0.053        0.031       18.068       10.926        0.366      334.927        5.223      858.362
03/02/2014  09:15:00        8.672       52.802       -7.603       13.561       23.827       12.276      183.896      567.743      150.690        0.191        0.045       53.509       11.006        0.042      334.632        4.731      858.360
03/02/2014  09:16:00       19.802       54.108       -3.110       13.039       20.725       15.914      170.020      429.533      253.261        0.209        0.043       57.618       15.905        0.076      334.669        4.794      858.366
03/02/2014  09:17:00        4.215       63.383      -12.397       10.832       14.455        8.646      117.343      208.953       74.748        0.229        0.020       63.523        7.333        0.013      334.603        4.685      858.361
03/02/2014  09:18:00       -0.932       56.416       -3.077       18.625       27.609       15.002      346.893      762.277      225.072        0.226        0.067       56.423       11.092        0.039      334.709        4.860      858.341
03/02/2014  09:19:00       -4.080       73.095      -11.904        9.486       17.018       10.244       89.983      289.604      104.950        0.299        0.024       73.209        6.509        0.008      334.655        4.770      858.331
03/02/2014  09:20:00       -0.740       61.497       -7.163       12.424       11.383       12.302      154.349      129.583      151.337        0.213        0.022       61.502        5.835        0.009      334.647        4.756      858.328
03/02/2014  09:21:00        8.957       42.549       -0.171       16.469       18.283       16.688      271.232      334.268      278.493        0.139        0.044       43.482       13.540        0.097      334.787        4.989      858.350
03/02/2014  09:22:00       35.969       27.933        5.358       11.735       17.942       16.095      137.716      321.901      259.036        0.141        0.036       45.541        8.642        0.036      334.692        4.833      858.361
03/02/2014  09:23:00       24.125       47.393      -10.900       11.028       17.237       12.936      121.619      297.111      167.336        0.177        0.029       53.180       10.118        0.036      334.637        4.743      858.385
03/02/2014  09:24:00       24.223       48.403       -1.356       25.099       10.111       17.154      629.981      102.238      294.253        0.198        0.051       54.126       14.882        0.076      334.703        4.851      858.398
03/02/2014  09:25:00       36.734       29.234        0.800       29.169       25.109       21.867      850.836      630.441      478.179        0.208        0.098       46.947       20.994        0.200      334.870        5.127      858.409
03/02/2014  09:26:00       43.315       33.271       21.814       19.306       19.491       17.378      372.710      379.892      301.992        0.226        0.053       54.618       11.233        0.042      334.832        5.066      858.409
03/02/2014  09:27:00       58.993       50.793       21.841       27.763       16.276       18.671      770.787      264.900      348.608        0.396        0.069       77.847       13.718        0.031      334.802        5.014      858.419
03/02/2014  09:28:00       59.452       58.549       28.317       21.133       17.270       20.060      446.593      298.256      402.390        0.446        0.057       83.442        9.668        0.013      334.772        4.965      858.405
03/02/2014  09:29:00       53.685       47.016       29.894       26.825       14.996       17.448      719.566      224.882      304.439        0.362        0.062       71.362        7.590        0.011      334.807        5.023      858.402
03/02/2014  09:30:00       55.321       27.182       10.212       18.237       19.136       12.994      332.600      366.186      168.838        0.239        0.043       61.638        7.906        0.016      334.710        4.861      858.386
03/02/2014  09:31:00       42.822       45.640       14.735       34.172       25.680       32.973     1167.741      659.459     1087.201        0.352        0.146       62.584       22.865        0.133      334.862        5.115      858.383
03/02/2014  09:32:00       64.932       22.464       30.097       38.408       24.466       26.177     1475.193      598.599      685.215        0.419        0.138       68.708       23.937        0.121      334.838        5.074      858.384
03/02/2014  09:33:00       46.056       32.985       26.971       37.331       24.689       27.396     1393.633      609.558      750.515        0.334        0.138       56.649       26.374        0.217      334.870        5.128      858.386
03/02/2014  09:34:00       42.598       20.312       16.416       29.941       20.355       23.367      896.491      414.326      546.003        0.218        0.093       47.193       15.213        0.104      334.974        5.302      858.398
03/02/2014  09:35:00       20.467       19.996       11.256       27.658       15.852       15.360      764.968      251.276      235.939        0.110        0.063       28.613       16.084        0.316      335.018        5.375      858.408
03/02/2014  09:36:00       31.368       23.162        4.200       24.815       20.155       15.325      615.770      406.220      234.868        0.140        0.063       38.993        8.958        0.053      334.911        5.196      858.431
03/02/2014  09:37:00       -2.994       30.826       -5.406       11.015        9.765       10.177      121.324       95.353      103.573        0.065        0.016       30.971        5.536        0.032      334.794        5.000      858.457
03/02/2014  09:38:00       -7.634       12.294       -7.787        7.816        9.595        8.176       61.090       92.060       66.844        0.024        0.011       14.471        3.240        0.050      334.862        5.115      858.462
03/02/2014  09:39:00      -33.699        0.371        1.602       30.933       16.928       13.635      956.824      286.572      185.927        0.128        0.071       33.701       17.880        0.281      334.985        5.320      858.445
03/02/2014  09:40:00      -29.416        9.559       -0.364       17.441       10.576       13.789      304.197      111.853      190.137        0.078        0.030       30.931       13.052        0.178      335.003        5.349      858.434
03/02/2014  09:41:00       -0.598        9.593       15.455       13.787        8.943       11.175      190.072       79.981      124.888        0.036        0.020        9.612        7.508        0.610      335.139        5.574      858.409
03/02/2014  09:42:00       12.861       27.267       13.988       18.310       23.042       20.924      335.266      530.932      437.816        0.120        0.065       30.148       17.091        0.321      335.062        5.448      858.403
03/02/2014  09:43:00        9.135       17.965       -2.809       19.532       11.728        8.061      381.487      137.545       64.983        0.050        0.029       20.154        5.644        0.078      334.938        5.239      858.417
03/02/2014  09:44:00       30.770       20.807        3.312       22.016       23.383       13.981      484.707      546.774      195.481        0.131        0.061       37.144       14.393        0.150      335.059        5.441      858.432
03/02/2014  09:45:00       43.029       47.506       42.320       28.177       24.179       22.466      793.971      584.628      504.706        0.389        0.094       64.097       10.933        0.029      335.132        5.564      858.438
03/02/2014  09:46:00       49.365       65.085       58.991       26.524       21.576       21.314      703.531      465.534      454.279        0.589        0.081       81.688       10.710        0.017      335.026        5.387      858.433
03/02/2014  09:47:00       64.321       57.110       36.802       22.737       17.260       19.496      516.949      297.911      380.108        0.497        0.060       86.016       13.657        0.025      334.948        5.258      858.438
03/02/2014  09:48:00       82.514       45.325        1.062       24.158       19.481       18.072      583.587      379.498      326.589        0.508        0.064       94.143        8.024        0.007      334.900        5.177      858.454
03/02/2014  09:49:00       62.477       39.818        7.308       22.097       23.363       15.570      488.269      545.822      242.434        0.341        0.064       74.087       10.031        0.018      334.923        5.215      858.458
03/02/2014  09:50:00       71.310       50.821       -2.490       20.916       23.581       18.338      437.470      556.085      336.290        0.450        0.066       87.567        8.095        0.009      334.909        5.194      858.480
03/02/2014  09:51:00       71.427       42.584        1.854       22.860       15.921       18.864      522.590      253.477      355.866        0.403        0.057       83.158       10.946        0.017      334.880        5.146      858.509
03/02/2014  09:52:00       50.254       44.838        1.372       24.355       17.814       23.278      593.182      317.349      541.856        0.299        0.073       67.349       10.804        0.026      334.904        5.184      858.541
03/02/2014  09:53:00       37.309       59.688       -5.412       20.009       31.347       18.327      400.377      982.661      335.869        0.335        0.086       70.389       17.646        0.063      334.950        5.262      858.549
03/02/2014  09:54:00       47.021       35.797       -1.237       19.739       18.716       20.293      389.632      350.285      411.811        0.232        0.058       59.096       14.549        0.061      334.992        5.330      858.545
03/02/2014  09:55:00       71.619       49.820        4.036       32.948       25.994       15.126     1085.546      675.685      228.807        0.481        0.100       87.243       11.984        0.019      334.982        5.314      858.563
03/02/2014  09:56:00       77.463       56.601       -6.387       23.837       18.156       19.419      568.221      329.643      377.079        0.526        0.064       95.938       11.285        0.014      334.956        5.271      858.585
03/02/2014  09:57:00       36.232       42.155        4.817       36.990       28.224       24.555     1368.293      796.579      602.938        0.294        0.138       55.586       16.541        0.089      335.035        5.402      858.609
03/02/2014  09:58:00       66.206       46.930        4.296       14.095       15.552       16.367      198.679      241.879      267.893        0.366        0.035       81.152        8.255        0.010      334.954        5.266      858.613
03/02/2014  09:59:00       29.190       33.876       -1.071       24.235       20.831       17.582      587.354      433.917      309.126        0.167        0.067       44.717       10.466        0.055      335.020        5.378      858.593
03/02/2014  10:00:00       45.656       48.518       -9.967       39.496       33.146       12.756     1559.970     1098.649      162.717        0.368        0.141       66.622       10.991        0.027      335.088        5.491      858.598
03/02/2014  10:01:00        7.064       52.800        1.663       16.462       25.540       17.531      270.994      652.307      307.320        0.204        0.062       53.270       17.629        0.110      335.140        5.576      858.616
03/02/2014  10:02:00       33.963       36.624       -8.991       14.932       22.534       11.920      222.955      507.771      142.083        0.172        0.044       49.948        8.477        0.029      335.039        5.408      858.629
03/02/2014  10:03:00       31.422       52.582       -2.817       11.026       13.439       15.679      121.573      180.598      245.832        0.215        0.027       61.255        6.013        0.010      335.050        5.428      858.615
03/02/2014  10:04:00        9.224       65.013       -1.836       14.526       24.024       22.486      210.991      577.131      505.604        0.280        0.065       65.664       20.771        0.100      335.165        5.618      858.592
03/02/2014  10:05:00       -7.787       36.093       52.008       20.166       26.789       19.254      406.687      717.651      370.708        0.278        0.075       36.924       17.339        0.221      335.404        6.014      858.575
03/02/2014  10:06:00       19.983       43.438       30.333       32.341       31.359       30.747     1045.954      983.381      945.355        0.309        0.149       47.814       16.921        0.125      335.330        5.890      858.582
03/02/2014  10:07:00       27.174       53.707      -10.222       21.820       19.362       20.155      476.095      374.880      406.214        0.249        0.063       60.191        8.320        0.019      335.132        5.563      858.600
03/02/2014  10:08:00       23.008       28.398       -4.662       31.904       20.752       16.091     1017.863      430.644      258.904        0.153        0.085       36.549       13.408        0.135      335.205        5.684      858.619
03/02/2014  10:09:00       26.399       53.586       -5.817       22.549       17.326       21.940      508.450      300.193      481.362        0.245        0.065       59.736       17.443        0.085      335.156        5.603      858.618
03/02/2014  10:10:00       30.798       81.374       -9.762       18.805       29.769       16.144      353.613      886.177      260.616        0.458        0.075       87.007       14.034        0.026      335.136        5.570      858.609
03/02/2014  10:11:00       68.175       67.589       -4.261       28.112       27.461       24.264      790.309      754.121      588.727        0.568        0.107       96.001       17.321        0.033      335.150        5.593      858.599
03/02/2014  10:12:00       55.533       45.801        5.141       14.668       21.808       17.714      215.136      475.601      313.771        0.311        0.050       71.984       14.809        0.042      335.177        5.638      858.604
03/02/2014  10:13:00       52.875       32.661        9.038       28.475       18.686       23.448      810.826      349.168      549.815        0.283        0.085       62.149       12.939        0.043      335.275        5.799      858.587
03/02/2014  10:14:00       67.937       42.629       15.691       37.131       34.102       24.805     1378.688     1162.945      615.266        0.492        0.158       80.204       16.251        0.041      335.289        5.824      858.578
03/02/2014  10:15:00       48.283       50.405       12.675       25.542       15.419       22.308      652.408      237.755      497.630        0.321        0.069       69.799       13.214        0.036      335.230        5.725      858.581
03/02/2014  10:16:00       31.307       22.206       16.496       21.698       14.034       16.596      470.801      196.947      275.436        0.134        0.047       38.383        7.369        0.037      335.388        5.989      858.568
03/02/2014  10:17:00       -0.040       39.335        1.581       17.288       20.108       14.315      298.871      404.337      204.925        0.123        0.045       39.335       11.429        0.084      335.371        5.959      858.577
03/02/2014  10:18:00      -26.624        7.709        4.927       19.625       15.890       19.323      385.138      252.497      373.371        0.090        0.051       27.718       10.616        0.147      335.415        6.032      858.576
03/02/2014  10:19:00      -61.520       44.487      -18.943       13.990       20.272       14.631      195.706      410.935      214.080        0.347        0.041       75.920        5.008        0.004      335.280        5.808      858.596
03/02/2014  10:20:00      -33.581       37.297       -5.275       19.673       25.073       15.640      387.032      628.638      244.613        0.190        0.063       50.187       10.638        0.045      335.398        6.003      858.620
03/02/2014  10:21:00      -59.064        3.983       -3.196       19.530       26.425       13.427      381.431      698.286      180.285        0.239        0.063       59.198        7.860        0.018      335.348        5.922      858.631
03/02/2014  10:22:00       -0.004        6.963        5.816       15.943       27.488       19.566      254.164      755.574      382.817        0.074        0.070        6.963       12.769        3.363      335.569        6.290      858.637
03/02/2014  10:23:00      -15.918       38.165       12.539       27.529       38.654       22.420      757.862     1494.125      502.658        0.231        0.138       41.352       21.809        0.278      335.569        6.289      858.616
03/02/2014  10:24:00        6.403       38.351        9.084       33.228       36.448       20.925     1104.075     1328.490      437.860        0.223        0.144       38.882       23.545        0.367      335.626        6.384      858.610
03/02/2014  10:25:00      -28.943       16.911       -0.803       21.514       15.142       14.003      462.848      229.270      196.088        0.101        0.044       33.521        9.463        0.080      335.576        6.302      858.615
03/02/2014  10:26:00      -32.507        9.508        9.965       17.263       10.258       15.176      298.003      105.224      230.299        0.094        0.032       33.869        8.635        0.065      335.513        6.197      858.618
03/02/2014  10:27:00       32.353       33.656       10.660       41.890       23.607       22.282     1754.779      557.283      496.503        0.255        0.140       46.685       11.391        0.060      335.652        6.430      858.596
03/02/2014  10:28:00       98.879       56.017       -1.840       21.961       26.524       20.448      482.285      703.528      418.133        0.726        0.080      113.644        4.570        0.002      335.511        6.192      858.589
03/02/2014  10:29:00       60.536       46.594        3.936       37.615       24.553       26.576     1414.872      602.871      706.262        0.429        0.136       76.391       23.542        0.095      335.582        6.311      858.581
03/02/2014  10:30:00      -10.698       22.772       36.031       26.659       29.579       25.122      710.722      874.923      631.098        0.207        0.111       25.159       14.312        0.324      335.674        6.465      858.593
03/02/2014  10:31:00       10.721       29.961       58.250       29.921       34.143       25.672      895.274     1165.712      659.043        0.356        0.136       31.821       12.188        0.147      335.615        6.366      858.595
03/02/2014  10:32:00        7.693       31.226       40.856       17.727       24.932       17.983      314.233      621.592      323.392        0.198        0.063       32.160       16.266        0.256      335.688        6.490      858.613
03/02/2014  10:33:00       46.821       40.619       10.552       32.634       23.014       28.447     1064.968      529.644      809.258        0.318        0.120       61.985       23.654        0.146      335.517        6.204      858.623
03/02/2014  10:34:00       51.398       50.638        5.533       30.742       24.172       21.658      945.048      584.278      469.062        0.362        0.100       72.152       12.507        0.030      335.428        6.054      858.630
03/02/2014  10:35:00       76.041       45.708        7.545       21.879       20.203       22.524      478.705      408.167      507.326        0.466        0.070       88.721       13.152        0.022      335.446        6.085      858.628
03/02/2014  10:36:00       58.442       63.517        4.318       25.055       28.808       27.098      627.730      829.873      734.308        0.483        0.110       86.313       15.155        0.031      335.586        6.319      858.629
03/02/2014  10:37:00       39.338       45.448        4.755       32.145       38.556       34.363     1033.332     1486.549     1180.792        0.367        0.185       60.108       19.701        0.107      335.617        6.370      858.632
03/02/2014  10:38:00       49.882       60.840       43.137       33.094       16.681       24.983     1095.220      278.242      624.133        0.502        0.100       78.675       10.910        0.019      335.562        6.278      858.670
03/02/2014  10:39:00        3.560       42.068       63.349       31.052       32.714       24.606      964.224     1070.217      605.447        0.422        0.132       42.219       23.524        0.310      335.689        6.490      858.696
03/02/2014  10:40:00       70.053       46.959       28.427       24.805       18.646       20.947      615.280      347.657      438.771        0.466        0.070       84.336       12.492        0.022      335.415        6.033      858.720
03/02/2014  10:41:00       89.901       53.589       38.368       33.157       17.142       21.901     1099.361      293.857      479.662        0.715        0.094      104.661       17.389        0.028      335.430        6.058      858.739
03/02/2014  10:42:00       94.421       50.402       26.020       25.995       15.320       22.327      675.743      234.697      498.506        0.677        0.070      107.032       15.326        0.021      335.439        6.073      858.739
03/02/2014  10:43:00       88.795       51.985       11.441       11.145       11.959       11.646      124.202      143.018      135.628        0.556        0.020      102.893        8.275        0.006      335.405        6.015      858.732
03/02/2014  10:44:00       81.939       61.617        3.405       13.623       16.035       14.803      185.580      257.109      219.119        0.559        0.033      102.522        5.238        0.003      335.430        6.059      858.733
03/02/2014  10:45:00       67.931       62.418       28.783       23.431       18.710       28.297      549.034      350.054      800.739        0.552        0.085       92.253       17.481        0.036      335.546        6.252      858.723
03/02/2014  10:46:00       79.587       54.198       23.410       25.451       23.573       24.273      647.731      555.670      589.162        0.581        0.090       96.289       14.027        0.021      335.671        6.461      858.706
03/02/2014  10:47:00       76.387       65.632       30.884       29.067       25.829       26.400      844.879      667.113      696.954        0.665        0.110      100.709       15.340        0.023      335.703        6.514      858.700
03/02/2014  10:48:00       12.155       -3.995       35.734       38.054       52.819       20.010     1448.096     2789.883      400.416        0.304        0.232       12.795       15.458        1.460      335.896        6.834      858.717
03/02/2014  10:49:00       28.064       25.391       24.184       36.655       24.307       20.533     1343.613      590.809      421.605        0.219        0.118       37.846       16.753        0.196      335.862        6.779      858.707
03/02/2014  10:50:00       58.867       61.838       -6.003       34.115       30.855       21.757     1163.817      952.049      473.361        0.496        0.129       85.377        5.237        0.004      335.698        6.506      858.696
03/02/2014  10:51:00       63.756       68.876       19.463       45.822       28.925       34.988     2099.688      836.649     1224.139        0.667        0.208       93.855       30.577        0.106      335.738        6.572      858.695
03/02/2014  10:52:00       32.843       30.462       56.101       39.840       38.706       29.022     1587.247     1498.140      842.259        0.454        0.196       44.795       29.794        0.442      335.707        6.520      858.712
03/02/2014  10:53:00       49.703       43.400       39.232       28.117       24.564       31.864      790.555      603.378     1015.314        0.415        0.120       65.984       19.863        0.091      335.607        6.355      858.718
03/02/2014  10:54:00       23.867       31.082       48.803       24.863       21.100       15.636      618.153      445.211      244.497        0.261        0.065       39.188        9.672        0.061      335.745        6.583      858.720
03/02/2014  10:55:00       19.983       31.397       57.061       26.916       24.317       17.869      724.482      591.306      319.315        0.314        0.082       37.217       14.624        0.154      335.923        6.879      858.717
03/02/2014  10:56:00       50.784       65.176       44.381       51.646       27.526       38.856     2667.324      757.655     1509.801        0.686        0.247       82.625       38.308        0.215      335.768        6.621      858.725
03/02/2014  10:57:00       69.830       56.616       22.177       29.373       30.275       22.070      862.758      916.581      487.085        0.542        0.113       89.898       17.656        0.039      335.635        6.401      858.769
03/02/2014  10:58:00       26.880        1.272       38.308       25.900       45.530       25.101      670.813     2072.941      630.055        0.278        0.169       26.910       29.434        1.196      335.936        6.900      858.816
03/02/2014  10:59:00       26.363        5.355       36.824       27.975       31.565       22.206      782.607      996.371      493.094        0.218        0.114       26.901       21.065        0.613      335.852        6.762      858.830
03/02/2014  11:00:00       35.477      -42.285        4.902       33.472       43.692       24.884     1120.388     1908.957      619.231        0.336        0.182       55.196       29.548        0.287      335.876        6.800      858.836
03/02/2014  11:01:00       15.859       23.054       53.784       37.481       47.458       35.447     1404.847     2252.236     1256.492        0.429        0.246       27.983       36.942        1.743      336.003        7.012      858.813
03/02/2014  11:02:00       63.186        8.309       38.552       38.116       60.021       32.904     1452.831     3602.528     1082.660        0.584        0.307       63.730       36.816        0.334      335.846        6.751      858.774
03/02/2014  11:03:00      105.174       78.736       69.981       49.726       49.238       48.038     2472.639     2424.380     2307.633        1.468        0.360      131.381       38.125        0.084      335.782        6.644      858.720
03/02/2014  11:04:00       55.659      101.841       77.913       40.146       38.495       29.509     1611.736     1481.847      870.799        1.175        0.198      116.058       18.382        0.025      335.711        6.525      858.687
03/02/2014  11:05:00       45.248       30.708       39.356       52.270       39.460       37.819     2732.135     1557.090     1430.282        0.513        0.286       54.684       34.936        0.408      335.843        6.746      858.684
03/02/2014  11:06:00       27.149       40.547       58.070       34.116       34.280       21.395     1163.928     1175.119      457.734        0.427        0.140       48.797       19.057        0.153      335.835        6.734      858.708
03/02/2014  11:07:00       27.191       18.117       42.913       22.418       23.398       17.754      502.587      547.463      315.212        0.214        0.068       32.673       15.693        0.231      335.827        6.720      858.711
03/02/2014  11:08:00        5.631       -3.688       16.768       17.515       25.724       18.624      306.769      661.730      346.844        0.082        0.066        6.731       11.290        2.813      335.951        6.928      858.739
03/02/2014  11:09:00       15.516       46.915       61.749       27.254       53.842       36.225      742.791     2898.997     1312.235        0.560        0.248       49.414       40.806        0.682      335.955        6.933      858.774
03/02/2014  11:10:00       54.323       57.217       80.383       56.420       43.996       33.363     3183.225     1935.618     1113.102        0.946        0.312       78.897       32.721        0.172      335.828        6.720      858.770
03/02/2014  11:11:00      151.762       95.700       38.945       40.137       23.214       24.365     1610.956      538.877      593.641        1.822        0.137      179.416       13.610        0.006      335.659        6.441      858.721
03/02/2014  11:12:00      119.854       73.703       16.283       43.777       32.218       30.267     1916.430     1037.973      916.067        1.197        0.194      140.702       13.404        0.009      335.725        6.550      858.679
03/02/2014  11:13:00      113.134       61.069        4.143       49.595       25.852       28.533     2459.644      668.344      814.149        1.024        0.197      128.564       15.723        0.015      335.781        6.644      858.687
03/02/2014  11:14:00       83.511       52.986        8.363       29.559       28.801       22.121      873.746      829.481      489.345        0.602        0.110       98.902       11.052        0.012      335.753        6.598      858.724
03/02/2014  11:15:00       20.542       27.900       10.226       55.849       34.784       22.206     3119.090     1209.928      493.114        0.306        0.241       34.646       19.044        0.302      335.903        6.846      858.737
03/02/2014  11:16:00       39.679       22.381        7.207       27.070       16.353       20.838      732.787      267.435      434.221        0.178        0.072       45.556        2.572        0.003      335.894        6.832      858.722
03/02/2014  11:17:00       68.565       30.217        8.480       49.450       37.359       22.020     2445.297     1395.690      484.880        0.501        0.216       74.928       16.936        0.051      335.765        6.617      858.719
03/02/2014  11:18:00       22.669       44.001        6.833       22.804       28.403       17.809      520.039      806.726      317.169        0.207        0.082       49.497       18.355        0.138      335.883        6.813      858.719
03/02/2014  11:19:00       55.683       53.864        1.545       30.852       24.446       23.152      951.856      597.618      536.028        0.404        0.104       77.473       15.087        0.038      335.867        6.787      858.708
03/02/2014  11:20:00       50.982       58.300        6.090       38.121       30.814       26.875     1453.223      949.491      722.247        0.458        0.156       77.447       17.428        0.051      335.839        6.739      858.685
03/02/2014  11:21:00       68.395       41.626       -4.750       38.065       30.200       23.644     1448.907      912.022      559.054        0.468        0.146       80.067        6.121        0.006      335.905        6.849      858.669
03/02/2014  11:22:00       46.933       30.721       16.762       45.533       29.730       28.014     2073.222      883.845      784.794        0.358        0.187       56.094       28.868        0.265      336.094        7.165      858.674
03/02/2014  11:23:00       94.742       88.201       51.372       62.202       39.647       39.489     3869.151     1571.865     1559.407        1.320        0.350      129.443       34.548        0.071      335.957        6.935      858.688
03/02/2014  11:24:00       65.193       85.621       59.130       55.796       32.400       38.101     3113.228     1049.778     1451.715        1.035        0.281      107.616       33.382        0.096      335.909        6.856      858.686
03/02/2014  11:25:00       85.318       44.683       15.554       33.910       30.348       21.045     1149.910      920.979      442.884        0.602        0.126       96.310       18.754        0.038      335.783        6.647      858.676
03/02/2014  11:26:00       99.763       71.253        9.956       27.200       24.006       30.149      739.824      576.305      908.976        0.868        0.111      122.595       15.939        0.017      335.904        6.847      858.666
03/02/2014  11:27:00       34.832       83.239       48.680       50.023       39.711       74.034     2502.326     1576.948     5480.976        1.003        0.478       90.233       57.226        0.402      335.960        6.942      858.660
03/02/2014  11:28:00       10.068       97.016       95.863       37.316       40.663       29.933     1392.519     1653.518      895.997        1.132        0.197       97.537       28.886        0.088      335.935        6.899      858.666
03/02/2014  11:29:00       23.336       47.545       63.270       29.785       45.972       20.211      887.121     2113.394      408.503        0.511        0.170       52.963       18.585        0.123      336.089        7.157      858.667
03/02/2014  11:30:00       43.477       45.401       39.339       27.838       21.248       25.768      774.942      451.461      664.010        0.369        0.095       62.861        4.901        0.006      335.970        6.958      858.675
03/02/2014  11:31:00       57.832       45.023       18.553       18.204       13.751       21.054      331.385      189.099      443.280        0.334        0.048       73.291        8.325        0.013      335.895        6.834      858.674
03/02/2014  11:32:00       58.347       32.247        8.725       28.079       23.262       23.470      788.403      541.137      550.818        0.320        0.094       66.665       18.327        0.076      336.015        7.034      858.666
03/02/2014  11:33:00       24.760       43.446        1.975       31.146       23.972       20.220      970.086      574.647      408.848        0.223        0.098       50.006       11.761        0.055      336.093        7.162      858.650
03/02/2014  11:34:00       51.350       47.892        6.070       25.080       30.880       25.877      629.031      953.565      669.638        0.361        0.113       70.218       20.039        0.081      336.113        7.196      858.660
03/02/2014  11:35:00       51.398       47.089       -4.155       30.271       16.203       18.137      916.304      262.544      328.963        0.319        0.075       69.707       17.475        0.063      335.887        6.821      858.690
03/02/2014  11:36:00       16.926       67.526        4.767       17.881       22.395       19.409      319.733      501.548      376.701        0.303        0.060       69.615       12.391        0.032      335.906        6.851      858.716
03/02/2014  11:37:00       28.523       50.358        8.107       20.022       21.278       21.483      400.885      452.755      461.511        0.236        0.066       57.875       12.737        0.048      335.952        6.927      858.705
03/02/2014  11:38:00        8.611       46.758        5.507       23.867       19.778       16.236      569.638      391.159      263.594        0.176        0.061       47.545       10.697        0.051      335.990        6.989      858.686
03/02/2014  11:39:00       13.882       48.671       -1.721       22.040       24.229       13.650      485.773      587.043      186.317        0.191        0.063       50.612       12.811        0.064      336.041        7.076      858.655
03/02/2014  11:40:00       15.886       73.729       -5.765       19.154       27.072       19.138      366.879      732.913      366.265        0.359        0.073       75.421       14.599        0.037      336.071        7.125      858.624
03/02/2014  11:41:00       -2.141       65.589      -12.593       18.666       21.937       13.897      348.406      481.254      193.134        0.274        0.051       65.624       11.798        0.032      335.986        6.985      858.597
03/02/2014  11:42:00        5.651       31.377        7.428       14.512       33.622       18.247      210.598     1130.459      332.951        0.137        0.084       31.882        3.999        0.016      336.258        7.438      858.589
03/02/2014  11:43:00        0.918       -2.502       31.758       18.996       28.855       15.945      360.840      832.635      254.242        0.123        0.072        2.665       11.835       19.724      336.585        7.985      858.567
03/02/2014  11:44:00       81.485       36.882       31.006       48.617       38.606       28.734     2363.646     1490.420      825.666        0.682        0.234       89.444       23.010        0.066      336.228        7.388      858.533
03/02/2014  11:45:00      113.684       60.565       -2.648       38.039       31.599       23.244     1446.960      998.502      540.271        0.979        0.149      128.811       12.874        0.010      335.958        6.938      858.504
03/02/2014  11:46:00       91.471       74.377       19.412       32.549       23.978       28.038     1059.466      574.922      786.120        0.835        0.121      117.893       21.010        0.032      336.014        7.030      858.465
03/02/2014  11:47:00       47.833       40.535       -4.954       30.207       15.783       14.520      912.467      249.117      210.833        0.266        0.069       62.699       14.682        0.055      336.001        7.009      858.431
03/02/2014  11:48:00       29.469       33.574        3.293       29.542       25.725       23.936      872.716      661.777      572.916        0.206        0.105       44.673       14.068        0.099      336.140        7.243      858.423
03/02/2014  11:49:00       25.827        9.154       18.519       35.313       36.663       18.924     1246.995     1344.142      358.127        0.202        0.147       27.402       21.422        0.611      336.415        7.701      858.475
03/02/2014  11:50:00       20.531       15.516       34.593       29.232       33.661       22.581      854.517     1133.053      509.922        0.218        0.125       25.735       19.985        0.603      336.507        7.855      858.537
03/02/2014  11:51:00       24.798       28.325       50.550       36.053       38.056       27.256     1299.823     1448.242      742.901        0.373        0.175       37.647        5.206        0.019      336.432        7.730      858.545
03/02/2014  11:52:00       61.540       46.507       29.891       34.806       26.561       31.239     1211.448      705.467      975.853        0.487        0.145       77.137       13.569        0.031      336.131        7.227      858.535
03/02/2014  11:53:00        1.872       15.710        3.064       17.040       12.432       13.971      290.345      154.550      195.201        0.045        0.032       15.821        9.283        0.344      336.324        7.549      858.519
03/02/2014  11:54:00       44.711      103.936       91.339       54.195       50.578       50.312     2937.068     2558.161     2531.253        1.458        0.401      113.144       44.335        0.154      336.342        7.580      858.495
03/02/2014  11:55:00      128.820       92.332       37.590       30.312       29.173       32.895      918.815      851.074     1082.102        1.469        0.143      158.492       25.306        0.025      336.049        7.089      858.479
03/02/2014  11:56:00       96.986       67.541        9.655       34.888       25.074       25.472     1217.192      628.729      648.808        0.828        0.125      118.187       16.468        0.019      336.089        7.157      858.438
03/02/2014  11:57:00       59.829       52.140       27.615       29.923       17.699       19.804      895.387      313.260      392.211        0.433        0.080       79.360       14.026        0.031      336.152        7.263      858.423
03/02/2014  11:58:00       21.630       17.164        0.335       17.999        8.336       10.482      323.966       69.493      109.881        0.063        0.025       27.613       10.522        0.145      336.099        7.174      858.434
03/02/2014  11:59:00      -42.082       25.587       -4.314       20.733       14.572       14.996      429.877      212.347      224.871        0.166        0.043       49.250        9.521        0.037      336.201        7.345      858.458
03/02/2014  12:00:00      -25.279       -0.315        4.644       22.668       16.559       13.265      513.826      274.214      175.959        0.081        0.048       25.281       14.925        0.349      336.678        8.142      858.488
03/02/2014  12:01:00        0.926        2.375       22.815       14.894       12.012       10.560      221.845      144.282      111.506        0.050        0.024        2.549        6.106        5.740      336.883        8.484      858.472
03/02/2014  12:02:00        3.961       43.449       11.373       33.381       40.518       22.632     1114.281     1641.739      512.214        0.265        0.163       43.629       25.540        0.343      336.539        7.909      858.453
03/02/2014  12:03:00      -18.160       23.283       21.133       33.644       30.950       21.217     1131.892      957.913      450.179        0.193        0.127       29.527       16.959        0.330      336.687        8.156      858.436
03/02/2014  12:04:00      -10.326       54.287        1.145       29.363       36.895       26.282      862.170     1361.230      690.732        0.298        0.146       55.260       21.683        0.154      336.580        7.977      858.445
03/02/2014  12:05:00        4.308      139.333      -15.893       21.598       24.236       17.804      466.470      587.375      316.981        1.053        0.069      139.399       10.407        0.006      336.205        7.351      858.441
03/02/2014  12:06:00       26.044      143.272      -13.631       23.647       34.826       27.060      559.165     1212.847      732.226        1.195        0.125      145.620       20.272        0.019      336.393        7.664      858.402
03/02/2014  12:07:00       25.524      100.282       -1.167       27.429       37.801       27.462      752.341     1428.940      754.189        0.682        0.147      103.479       21.025        0.041      336.481        7.812      858.336
03/02/2014  12:08:00       40.485      101.522      -10.917       29.580       39.692       28.392      874.996     1575.440      806.088        0.766        0.163      109.297       26.212        0.058      336.367        7.621      858.315
03/02/2014  12:09:00      -22.694       41.672      -12.649       25.509       26.378       21.336      650.719      695.790      455.219        0.211        0.090       47.451        2.326        0.002      336.369        7.626      858.327
03/02/2014  12:10:00      -39.404       40.277      -18.856       19.093       17.480       15.558      364.527      305.549      242.045        0.222        0.046       56.346       11.653        0.043      336.331        7.561      858.318
03/02/2014  12:11:00      -56.978       54.392      -14.999       32.645       32.541       18.505     1065.719     1058.926      342.433        0.445        0.123       78.771       17.537        0.050      336.521        7.879      858.312
03/02/2014  12:12:00      -26.061       62.508      -20.643       32.859       60.740       34.555     1079.709     3689.329     1194.082        0.549        0.298       67.723       31.839        0.221      336.665        8.119      858.301
03/02/2014  12:13:00       36.877       71.745       -8.618       34.583       45.691       24.550     1196.004     2087.699      602.714        0.523        0.194       80.668       27.773        0.119      336.463        7.780      858.304
03/02/2014  12:14:00       27.820       43.450       17.817       40.379       36.950       20.604     1630.474     1365.314      424.525        0.320        0.171       51.594       22.367        0.188      336.797        8.340      858.294
03/02/2014  12:15:00       17.057        8.126       12.050       22.945       41.334       23.263      526.451     1708.501      541.164        0.164        0.139       18.893       12.371        0.429      337.002        8.685      858.279
03/02/2014  12:16:00       15.316      -12.048        0.741       13.143       18.986       18.552      172.744      360.450      344.192        0.063        0.044       19.487       14.862        0.582      336.858        8.443      858.263
03/02/2014  12:17:00      -22.549      111.373       -8.047       34.549       49.264       27.535     1193.662     2426.896      758.149        0.868        0.219      113.633       22.286        0.038      336.936        8.572      858.248
03/02/2014  12:18:00       22.589       92.969        4.711       33.280       50.605       32.185     1107.559     2560.874     1035.900        0.694        0.235       95.674       28.954        0.092      337.161        8.949      858.213
03/02/2014  12:19:00       43.912       71.860       -3.140       40.427       43.473       27.489     1634.362     1889.900      755.669        0.569        0.214       84.215       24.334        0.083      336.735        8.237      858.195
03/02/2014  12:20:00       20.898       41.851        6.638       35.042       37.073       19.202     1227.912     1374.431      368.724        0.260        0.149       46.779       16.613        0.126      336.878        8.474      858.175
03/02/2014  12:21:00       10.115       50.331        9.457       36.759       34.576       27.736     1351.244     1195.492      769.286        0.302        0.166       51.338       21.493        0.175      336.927        8.556      858.166
03/02/2014  12:22:00      -49.928       40.311      -23.010       57.588       34.983       27.428     3316.342     1223.839      752.285        0.497        0.265       64.170       13.795        0.046      336.762        8.281      858.171
03/02/2014  12:23:00      -25.449       19.712       -5.301       39.702       20.292       24.929     1576.223      411.774      621.475        0.184        0.130       32.190       20.224        0.395      336.904        8.520      858.176
03/02/2014  12:24:00       71.435       28.706       19.725       61.999       30.954       29.491     3843.863      958.181      869.711        0.599        0.284       76.986       17.993        0.055      336.960        8.613      858.189
03/02/2014  12:25:00       16.085       36.768       52.005       44.250       49.433       33.362     1958.103     2443.655     1113.051        0.491        0.276       40.133       24.174        0.363      337.273        9.136      858.196
03/02/2014  12:26:00       98.173       82.721       39.722       26.119       27.899       35.127      682.208      778.374     1233.878        1.038        0.135      128.377       18.172        0.020      336.790        8.327      858.201
03/02/2014  12:27:00      117.583       81.309        1.323       39.307       26.609       33.926     1545.035      708.044     1150.977        1.192        0.170      142.958       26.999        0.036      336.695        8.169      858.188
03/02/2014  12:28:00       54.686       46.775       -6.760       18.571       25.860       21.308      344.893      668.738      454.049        0.335        0.073       71.961       14.081        0.038      336.692        8.165      858.176
03/02/2014  12:29:00       23.664       26.912       -3.593       16.334       19.794       16.661      266.812      391.805      277.575        0.112        0.047       35.836       12.852        0.129      336.880        8.478      858.175
03/02/2014  12:30:00       27.336        6.378      -11.455        8.246        6.797        7.952       67.990       46.204       63.232        0.055        0.009       28.070        4.445        0.025      336.736        8.239      858.174
03/02/2014  12:31:00        1.095       -1.946       -6.503       13.647        9.079       10.080      186.231       82.426      101.608        0.021        0.019        2.233        4.938        4.891      337.081        8.815      858.146
03/02/2014  12:32:00       42.015       12.587       20.903       42.726       26.052       23.029     1825.553      678.732      530.333        0.270        0.152       43.860       21.050        0.230      337.250        9.098      858.110
03/02/2014  12:33:00       32.717       31.745       17.319       25.076       18.709       19.367      628.823      350.043      375.093        0.187        0.068       45.587       11.321        0.062      337.174        8.970      858.119
03/02/2014  12:34:00       24.089       35.695        4.599       17.533       18.212       16.248      307.390      331.673      263.989        0.139        0.045       43.063        9.774        0.052      336.973        8.634      858.175
03/02/2014  12:35:00        1.483        5.394       -0.862       13.231       14.999       15.081      175.070      224.977      227.426        0.033        0.031        5.594       12.119        4.693      337.371        9.300      858.228
03/02/2014  12:36:00       18.886       13.868       27.891       33.416       25.641       24.823     1116.606      657.454      616.159        0.186        0.120       23.431       18.880        0.649      337.551        9.602      858.227
03/02/2014  12:37:00       68.290       52.818       52.942       45.579       34.815       25.622     2077.446     1212.057      656.486        0.710        0.197       86.332       17.216        0.040      337.188        8.995      858.191
03/02/2014  12:38:00       82.097       78.581       59.681       63.544       36.693       46.596     4037.851     1346.405     2171.213        1.201        0.378      113.643       39.312        0.120      337.193        9.001      858.159
03/02/2014  12:39:00      160.028       97.775       -1.573       40.006       41.300       38.123     1600.449     1705.667     1453.345        1.996        0.238      187.534       25.202        0.018      336.898        8.506      858.137
03/02/2014  12:40:00       74.336      100.386       -4.273       63.723       37.890       35.492     4060.608     1435.688     1259.700        1.119        0.338      124.913       25.164        0.041      337.103        8.850      858.125
03/02/2014  12:41:00        6.703      127.261      -21.565       25.020       23.715       13.569      626.024      562.405      184.129        0.904        0.069      127.437       14.956        0.014      337.057        8.773      858.129
03/02/2014  12:42:00        4.866       53.166        0.745       22.774       28.726       20.867      518.638      825.210      435.434        0.231        0.089       53.388       14.539        0.074      337.538        9.579      858.125
03/02/2014  12:43:00       40.471       51.313       44.439       55.674       43.218       48.922     3099.561     1867.775     2393.378        0.680        0.368       65.352       30.567        0.219      337.524        9.556      858.084
03/02/2014  12:44:00       64.710       62.171       48.018       87.470       40.793       40.097     7650.938     1664.061     1607.792        1.064        0.546       89.736       48.929        0.297      337.444        9.422      858.024
03/02/2014  12:45:00      141.202       82.841        7.834       63.489       49.349       46.347     4030.797     2435.284     2148.025        1.774        0.431      163.709       26.363        0.026      337.282        9.151      858.018
03/02/2014  12:46:00       65.757       46.904       43.684       56.443       32.745       43.168     3185.757     1072.204     1863.440        0.728        0.306       80.771       40.378        0.250      337.430        9.398      858.064
03/02/2014  12:47:00       96.332       49.352       22.738       50.690       47.482       40.989     2569.452     2254.513     1680.085        0.937        0.325      108.238       33.799        0.098      337.292        9.168      858.111
03/02/2014  12:48:00       60.707       48.703       21.746       24.660       19.556       20.315      608.110      382.445      412.684        0.397        0.070       77.828       14.960        0.037      337.211        9.030      858.120
03/02/2014  12:49:00       79.700       71.959       13.225       53.056       40.296       32.546     2814.982     1623.765     1059.220        0.860        0.275      107.378       25.222        0.055      337.422        9.386      858.075
03/02/2014  12:50:00       68.154       66.621       14.828       53.014       30.147       28.003     2810.446      908.871      784.166        0.690        0.225       95.307       16.478        0.030      337.407        9.361      858.033
03/02/2014  12:51:00      116.667       74.857        4.674       40.871       35.834       33.206     1670.431     1284.054     1102.668        1.165        0.203      138.618       23.194        0.028      337.365        9.289      858.015
03/02/2014  12:52:00       16.283       68.437      -11.483       34.604       26.049       23.879     1197.457      678.569      570.190        0.376        0.122       70.348       17.351        0.061      337.436        9.410      858.042
03/02/2014  12:53:00      -42.048       -3.641       -8.464       44.185       21.786       24.263     1952.310      474.609      588.711        0.243        0.151       42.206       28.165        0.445      337.427        9.393      858.068
03/02/2014  12:54:00       22.265       22.965       26.907       54.320       35.908       37.988     2950.692     1289.349     1443.055        0.371        0.284       31.986       31.607        0.976      337.557        9.610      858.056
03/02/2014  12:55:00       84.006       63.734       13.112       24.578       19.177       20.637      604.071      367.756      425.876        0.634        0.070      105.447       14.822        0.020      337.424        9.388      858.023
03/02/2014  12:56:00      114.657       64.505        2.382       67.926       50.600       33.799     4613.898     2560.400     1142.360        1.281        0.416      131.557       25.512        0.038      337.551        9.600      858.021
03/02/2014  12:57:00       46.637       37.651       12.176       41.345       30.194       28.151     1709.443      911.669      792.499        0.358        0.171       59.939       19.891        0.110      337.753        9.939      858.057
03/02/2014  12:58:00       40.166       51.347       44.438       42.048       33.189       41.857     1768.055     1101.489     1751.984        0.542        0.231       65.190       28.268        0.188      337.909       10.202      858.068
03/02/2014  12:59:00       68.667       89.734       69.291       61.527       47.685       49.386     3785.589     2273.860     2438.970        1.303        0.425      112.993       33.731        0.089      337.876       10.147      858.019
03/02/2014  13:00:00       78.939      105.272       95.773       82.772       72.209       60.139     6851.264     5214.146     3616.688        2.108        0.784      131.581       55.470        0.178      337.760        9.950      857.988
03/02/2014  13:01:00       91.404       67.628       36.416       49.542       38.660       39.056     2454.422     1494.615     1525.343        0.986        0.274      113.702       36.151        0.101      337.446        9.424      858.014
03/02/2014  13:02:00       16.933       41.627       63.671       40.060       44.358       26.069     1604.774     1967.630      679.574        0.516        0.213       44.939       27.742        0.381      337.783        9.990      858.041
03/02/2014  13:03:00       29.285        3.247       23.127       37.140       31.638       22.658     1379.350     1000.961      513.362        0.215        0.145       29.465       21.414        0.528      337.860       10.119      858.053
03/02/2014  13:04:00       39.895      -54.148       -0.027       40.703       48.235       34.410     1656.729     2326.611     1184.067        0.484        0.258       67.258       26.400        0.154      337.915       10.212      858.029
03/02/2014  13:05:00       54.859      -42.002       23.539       42.691       84.078       49.594     1822.544     7069.037     2459.590        0.834        0.568       69.092       55.798        0.652      338.033       10.409      857.973
03/02/2014  13:06:00       76.994      -71.505        4.470       57.950       58.532       35.548     3358.224     3426.013     1263.660        0.955        0.402      105.076       45.036        0.184      337.887       10.164      857.963
03/02/2014  13:07:00       37.331      -26.941       25.436       37.505       64.029       31.652     1406.618     4099.731     1001.841        0.464        0.325       46.037       33.321        0.524      337.978       10.318      857.968
03/02/2014  13:08:00       43.183      -80.042       -8.605       60.517       61.189       26.909     3662.275     3744.135      724.073        0.824        0.407       90.948       28.356        0.097      338.021       10.390      857.960
03/02/2014  13:09:00       37.648        2.313       34.038       32.503       49.432       27.808     1056.432     2443.491      773.294        0.343        0.214       37.719       26.916        0.509      338.203       10.695      857.946
03/02/2014  13:10:00       81.899       67.099       62.219       48.669       40.320       37.321     2368.645     1625.673     1392.835        1.023        0.269      105.876       23.419        0.049      337.894       10.176      857.934
03/02/2014  13:11:00      102.694      -11.841       26.194       37.951       28.489       32.316     1440.313      811.615     1044.301        0.733        0.165      103.375       17.420        0.028      337.826       10.063      857.918
03/02/2014  13:12:00       44.225       31.715       59.810       66.285       60.426       51.839     4393.764     3651.315     2687.299        0.863        0.537       54.421       54.782        1.013      338.110       10.538      857.892
03/02/2014  13:13:00       29.981       37.325       44.868       37.308       34.753       37.042     1391.914     1207.761     1372.111        0.414        0.199       47.875       31.454        0.432      338.045       10.430      857.914
03/02/2014  13:14:00       20.138       78.364       79.176       37.235       40.617       36.287     1386.439     1649.767     1316.737        0.858        0.218       80.910       30.071        0.138      338.059       10.453      857.929
03/02/2014  13:15:00       38.370      -33.437        9.578       27.862       65.566       31.278      776.316     4298.886      978.327        0.437        0.303       50.895       40.143        0.622      338.016       10.382      857.940
03/02/2014  13:16:00       40.713       -8.937       26.943       44.265       52.066       36.417     1959.420     2710.851     1326.222        0.423        0.300       41.682       35.475        0.724      338.192       10.677      857.927
03/02/2014  13:17:00       40.470      -21.621       34.448       45.907       64.028       39.730     2107.434     4099.638     1578.495        0.554        0.389       45.883       43.260        0.889      338.248       10.771      857.900
03/02/2014  13:18:00       62.715     -118.310       -9.722       40.018       44.358       30.058     1601.444     1967.676      903.478        1.125        0.224      133.905       23.724        0.031      338.035       10.412      857.864
03/02/2014  13:19:00       42.888      -92.595       -0.700       26.775       26.145       24.365      716.920      683.574      593.670        0.620        0.100      102.045       11.525        0.013      337.908       10.200      857.827
03/02/2014  13:20:00        9.127       -8.810       36.659       24.122       38.216       31.868      581.873     1460.465     1015.598        0.228        0.153       12.685       25.865        4.157      338.361       10.959      857.801
03/02/2014  13:21:00        6.746      -54.859      -10.676       29.894       22.501       11.892      893.656      506.281      141.409        0.235        0.077       55.272        5.389        0.010      338.080       10.488      857.808
03/02/2014  13:22:00       -0.995        9.817       16.923       28.083       32.009       22.079      788.632     1024.589      487.488        0.134        0.115        9.867       19.254        3.808      338.314       10.881      857.821
03/02/2014  13:23:00      -45.968      -40.245        9.862       50.416       34.590       25.030     2541.815     1196.459      626.479        0.410        0.218       61.096       24.244        0.157      338.140       10.589      857.828
03/02/2014  13:24:00      -56.000      -86.742        8.063       59.187       38.337       26.752     3503.133     1469.690      715.645        0.821        0.284      103.248       35.160        0.116      337.935       10.245      857.837
03/02/2014  13:25:00      -25.749      -90.522       -5.637       15.176       20.066       13.834      230.317      402.661      191.369        0.486        0.041       94.113        8.189        0.008      337.798       10.016      857.811
03/02/2014  13:26:00      -35.945      -91.551       -6.834       31.930       33.979       21.844     1019.496     1154.599      477.143        0.619        0.133       98.355       23.613        0.058      337.939       10.251      857.792
03/02/2014  13:27:00      -34.425      -51.467        9.442       31.884       42.932       19.521     1016.562     1843.121      381.083        0.358        0.162       61.919       22.159        0.128      338.189       10.670      857.778
03/02/2014  13:28:00      -62.965      -36.735      -10.179       21.264       41.878       22.932      452.163     1753.756      525.891        0.407        0.137       72.897       24.614        0.114      338.001       10.357      857.770
03/02/2014  13:29:00      -64.485      -39.303        1.022       39.908       25.569       16.592     1592.642      653.749      275.286        0.411        0.126       75.518       13.898        0.034      338.106       10.533      857.772
03/02/2014  13:30:00      -42.563      -26.093       10.908       36.475       25.040       24.062     1330.425      627.018      578.979        0.257        0.127       49.925       24.048        0.232      338.280       10.824      857.785
03/02/2014  13:31:00      -62.850       -7.590       -4.588       25.029       20.634       13.063      626.464      425.760      170.651        0.263        0.061       63.307       14.660        0.054      338.180       10.657      857.779
03/02/2014  13:32:00      -53.771      -46.143       -2.719       22.574       24.039       16.208      509.600      577.871      262.684        0.319        0.068       70.855        6.901        0.009      338.194       10.680      857.776
03/02/2014  13:33:00      -24.410      -43.928        4.392       31.923       35.352       21.396     1019.085     1249.788      457.805        0.264        0.136       50.254       11.350        0.051      338.314       10.882      857.795
03/02/2014  13:34:00       32.425      -47.347       15.941       67.573       57.640       38.481     4566.134     3322.352     1480.779        0.646        0.468       57.386       31.173        0.295      338.302       10.861      857.832
03/02/2014  13:35:00      -80.647      -95.442       -1.338       69.190       54.007       39.060     4787.198     2916.802     1525.667        1.242        0.461      124.952       35.414        0.080      338.267       10.801      857.855
03/02/2014  13:36:00      -94.430      -57.270        2.324       55.309       49.402       28.760     3059.045     2440.526      827.160        0.926        0.316      110.439       26.498        0.058      338.268       10.803      857.850
03/02/2014  13:37:00      -77.439      -93.352       -0.785       43.048       56.171       28.628     1853.166     3155.176      819.553        1.027        0.291      121.291       29.437        0.059      338.243       10.762      857.825
03/02/2014  13:38:00      -47.282       -7.763       -7.914       29.687       40.238       23.414      881.317     1619.118      548.231        0.270        0.152       47.915       18.800        0.154      338.212       10.711      857.810
03/02/2014  13:39:00        8.258      -63.283      -17.662       73.516       88.252       44.127     5404.583     7788.388     1947.195        0.976        0.757       63.819       46.351        0.527      338.284       10.830      857.802
03/02/2014  13:40:00       24.455     -131.824      -10.700       84.384       80.055       38.162     7120.662     6408.754     1456.372        1.654        0.749      134.073       34.378        0.066      338.348       10.936      857.826
03/02/2014  13:41:00        5.899      -95.857        0.680       78.786       50.489       38.373     6207.163     2549.147     1472.469        0.972        0.511       96.039       27.854        0.084      338.391       11.010      857.884
03/02/2014  13:42:00      -20.401      -50.702        6.109       65.030       65.454       33.853     4228.842     4284.189     1146.015        0.634        0.483       54.652       30.671        0.315      338.536       11.254      857.925
03/02/2014  13:43:00      -88.691      -84.891       11.126       58.177       71.204       37.226     3384.580     5069.985     1385.756        1.252        0.492      122.771       30.731        0.063      338.343       10.930      857.908
03/02/2014  13:44:00      -50.117       -9.080        3.718       48.219       57.042       41.778     2325.046     3253.771     1745.363        0.496        0.366       50.933       39.834        0.612      338.478       11.157      857.871
03/02/2014  13:45:00      -44.258      -75.078       -3.132       48.194       37.299       29.842     2322.689     1391.219      890.562        0.610        0.230       87.152       17.114        0.039      338.436       11.086      857.868
03/02/2014  13:46:00      -35.952      -47.358        1.312       67.072       67.817       37.627     4498.592     4599.086     1415.793        0.702        0.526       59.459       28.015        0.222      338.450       11.109      857.852
03/02/2014  13:47:00      -52.526     -128.169       -5.160       56.333       69.741       39.656     3173.455     4863.789     1572.625        1.441        0.480      138.514       32.137        0.054      338.214       10.713      857.848
03/02/2014  13:48:00      -62.544      -57.610        7.226       60.479       79.800       29.210     3657.659     6368.113      853.214        0.908        0.544       85.034       25.710        0.091      338.286       10.835      857.815
03/02/2014  13:49:00      -78.802      -33.841       10.625       58.072       53.668       30.989     3372.331     2880.293      960.315        0.734        0.361       85.761       31.236        0.133      338.350       10.941      857.805
03/02/2014  13:50:00       -1.805       12.340       25.990       66.936       44.537       28.167     4480.393     1983.567      793.383        0.404        0.363       12.471       30.442        5.958      338.507       11.206      857.788
03/02/2014  13:51:00      -15.688      -51.752       14.925       32.961       38.679       37.806     1086.418     1496.030     1429.281        0.358        0.201       54.077       27.557        0.260      338.517       11.223      857.776
03/02/2014  13:52:00      -31.419      -24.868        6.413       41.872       37.939       24.896     1753.287     1439.331      619.798        0.273        0.191       40.069       22.346        0.311      338.430       11.076      857.830
03/02/2014  13:53:00     -106.876      -90.371        6.065       61.387       53.709       27.639     3768.377     2884.652      763.920        1.352        0.371      139.962       21.333        0.023      338.361       10.960      857.918
03/02/2014  13:54:00     -190.337     -128.797        3.004      117.334       66.226       43.738    13767.241     4385.946     1913.055        3.644        1.003      229.819       49.700        0.047      338.309       10.870      857.969
03/02/2014  13:55:00     -113.736     -149.184        2.027       62.317       77.682       36.914     3883.347     6034.503     1362.661        2.324        0.564      187.594       26.258        0.020      338.255       10.780      857.990
03/02/2014  13:56:00      -53.854      -72.862       10.442       71.108       75.446       44.376     5056.365     5692.030     1969.253        1.052        0.636       90.605       44.098        0.237      338.471       11.144      858.011
03/02/2014  13:57:00       15.950        0.327       21.156       44.932       48.717       32.233     2018.863     2373.344     1038.940        0.307        0.272       15.953       28.478        3.187      338.587       11.341      857.995
03/02/2014  13:58:00       27.724      -35.661       26.930       47.322       46.691       32.782     2239.363     2180.032     1074.688        0.413        0.275       45.170       23.102        0.262      338.631       11.413      857.979
03/02/2014  13:59:00     -140.194      -89.594       -1.980       79.511       93.018       43.165     6321.982     8652.265     1863.199        2.226        0.842      166.377       47.647        0.082      338.408       11.037      857.976
03/02/2014  14:00:00      -82.224      -35.839        7.516       81.835       69.564       34.251     6696.992     4839.207     1173.123        1.040        0.635       89.695       36.619        0.167      338.436       11.086      857.969
03/02/2014  14:01:00      -74.729      -92.170       -0.231       72.577       72.705       39.260     5267.358     5286.012     1541.362        1.309        0.605      118.658       39.133        0.109      338.347       10.935      857.991
03/02/2014  14:02:00     -111.461      -85.469       -2.681       58.306       70.555       35.004     3399.534     4978.066     1225.267        1.467        0.480      140.458       32.759        0.054      338.330       10.908      857.979
03/02/2014  14:03:00     -159.296     -188.854       -9.278       61.770      103.397       41.304     3815.515    10690.971     1705.987        3.867        0.811      247.065       28.800        0.014      338.305       10.863      857.955
03/02/2014  14:04:00      -90.247     -117.571      -15.416       49.709       77.333       27.660     2471.034     5980.344      765.098        1.571        0.461      148.214       23.051        0.024      338.230       10.741      857.945
03/02/2014  14:05:00     -120.856      -33.397       21.730       96.547       76.532       45.971     9321.375     5857.197     2113.362        1.674        0.865      125.386       50.555        0.163      338.399       11.024      857.951
03/02/2014  14:06:00     -130.733      -65.303       -1.671       60.157       60.383       33.953     3618.812     3646.089     1152.839        1.489        0.421      146.136       32.759        0.050      338.323       10.895      857.939
03/02/2014  14:07:00      -74.742      -72.633        6.262       59.754       34.692       29.602     3570.580     1203.552      876.307        0.827        0.283      104.221       23.052        0.049      338.408       11.039      857.957
03/02/2014  14:08:00     -124.765      -42.673        2.067       88.659       53.677       41.935     7860.447     2881.206     1758.543        1.494        0.625      131.861       49.663        0.142      338.443       11.096      857.989
03/02/2014  14:09:00     -132.342     -123.937      -12.037       61.088       53.307       34.600     3731.685     2841.631     1197.148        2.039        0.389      181.314       23.206        0.016      338.370       10.974      858.015
03/02/2014  14:10:00     -155.615     -108.742      -16.682       47.585       61.734       30.987     2264.312     3811.026      960.197        2.168        0.352      189.845       24.576        0.017      338.369       10.971      858.023
03/02/2014  14:11:00      -97.549      -75.118       -4.826       48.965       46.337       28.592     2397.569     2147.137      817.509        1.027        0.268      123.120       29.510        0.057      338.357       10.954      858.021
03/02/2014  14:12:00     -117.536     -142.468      -17.251      102.522       65.040       25.977    10510.777     4230.158      674.810        2.491        0.771      184.693       36.560        0.039      338.451       11.109      858.040
03/02/2014  14:13:00      -58.690     -156.482       -8.079       64.308       41.106       29.677     4135.477     1689.692      880.733        1.735        0.335      167.126       22.108        0.017      338.391       11.010      858.059
03/02/2014  14:14:00      -38.917     -113.414       11.031       61.664       87.394       27.457     3802.478     7637.780      753.878        1.334        0.610      119.905       29.829        0.062      338.523       11.232      858.098
03/02/2014  14:15:00     -105.486     -169.271       -8.904       55.546       65.008       30.661     3085.386     4226.030      940.086        2.405        0.413      199.449       23.327        0.014      338.401       11.027      858.152
03/02/2014  14:16:00      -27.022      -36.343       11.725       34.859       45.189       27.599     1215.170     2042.027      761.729        0.310        0.201       45.288       21.499        0.225      338.589       11.342      858.155
03/02/2014  14:17:00      -51.441      -88.202       -4.993       66.714       50.524       28.832     4450.790     2552.641      831.260        0.914        0.392      102.107       15.288        0.022      338.521       11.229      858.155
03/02/2014  14:18:00      -68.142      -82.161        7.218       47.745       43.525       27.084     2279.598     1894.383      733.522        0.818        0.245      106.741       23.437        0.048      338.514       11.217      858.158
03/02/2014  14:19:00      -64.911      -48.095        9.460       40.510       37.211       26.686     1641.089     1384.689      712.152        0.518        0.187       80.787       20.438        0.064      338.534       11.250      858.170
03/02/2014  14:20:00      -61.083      -36.582       -1.927       46.776       26.452       26.634     2187.983      699.694      709.367        0.433        0.180       71.199       26.535        0.139      338.535       11.252      858.176
03/02/2014  14:21:00      -47.428      -38.541        8.671       41.760       32.216       24.102     1743.920     1037.880      580.893        0.359        0.168       61.113       24.007        0.154      338.666       11.472      858.192
03/02/2014  14:22:00      -36.371      -45.367        5.768       44.528       41.794       29.356     1982.709     1746.758      861.755        0.400        0.230       58.147       29.449        0.257      338.745       11.606      858.228
03/02/2014  14:23:00       22.466      -92.113        5.033       52.744       83.975       52.131     2781.888     7051.843     2717.641        1.078        0.628       94.814       43.845        0.214      338.799       11.697      858.217
03/02/2014  14:24:00       73.369      -98.676        6.608       88.126       63.202       39.937     7766.183     3994.555     1594.960        1.426        0.668      122.963       36.476        0.088      338.724       11.568      858.194
03/02/2014  14:25:00      112.878     -164.342        4.582       80.334      104.184       70.834     6453.487    10854.367     5017.496        3.104        1.116      199.373       74.058        0.138      338.708       11.540      858.170
03/02/2014  14:26:00       38.793      -11.026       38.241       51.926       53.654       49.934     2696.322     2878.759     2493.356        0.558        0.403       40.330       41.753        1.072      338.812       11.718      858.178
03/02/2014  14:27:00      -20.013      -75.138       13.881       67.709       71.829       36.389     4584.541     5159.381     1324.144        0.865        0.553       77.758       40.327        0.269      338.877       11.826      858.225
03/02/2014  14:28:00       17.513       16.424       54.583       43.412       72.230       61.457     1884.566     5217.147     3777.012        0.722        0.544       24.009       64.515        7.220      338.734       11.587      858.251
03/02/2014  14:29:00      -18.698      -18.571       10.178       28.349       46.378       27.266      803.641     2150.883      743.440        0.225        0.185       26.353       29.353        1.241      338.637       11.424      858.255
03/02/2014  14:30:00      -21.056       -5.034       -1.151       19.353       15.836       12.117      374.541      250.784      146.812        0.062        0.039       21.649       10.521        0.236      338.744       11.603      858.242
03/02/2014  14:31:00      -60.277      -33.684        1.995       44.025       34.522       20.239     1938.157     1191.766      409.610        0.416        0.177       69.050       18.675        0.073      338.733       11.584      858.244
03/02/2014  14:32:00       24.644       12.054       40.112       37.258       40.254       37.319     1388.126     1620.404     1392.694        0.338        0.220       27.434       21.060        0.589      338.860       11.799      858.238
03/02/2014  14:33:00      103.758     -136.025       -1.633       71.197      116.131       46.876     5069.021    13486.368     2197.396        2.501        1.038      171.080       54.914        0.103      338.804       11.703      858.225
03/02/2014  14:34:00       40.694      -34.069       15.072       50.645       46.903       42.219     2564.900     2199.854     1782.470        0.479        0.327       53.072       25.127        0.224      338.849       11.780      858.204
03/02/2014  14:35:00       -8.952       34.756       67.792       29.717       48.936       39.053      883.077     2394.686     1525.114        0.534        0.240       35.891       32.884        0.839      338.944       11.941      858.195
03/02/2014  14:36:00        4.186       35.860       72.597       37.764       55.358       48.956     1426.090     3064.550     2396.667        0.673        0.344       36.103       41.659        1.331      338.918       11.895      858.199
03/02/2014  14:37:00       30.195      -67.288       42.996       60.790      103.167       69.452     3695.463    10643.472     4823.623        1.322        0.958       73.753       76.820        1.085      338.906       11.876      858.217
03/02/2014  14:38:00      -64.432     -107.762        0.006       65.712       42.628       39.760     4318.041     1817.147     1580.879        1.174        0.386      125.556       28.582        0.052      338.946       11.942      858.286
03/02/2014  14:39:00      -57.914      -49.002        1.718       64.395       36.739       28.524     4146.652     1349.763      813.615        0.603        0.316       75.864       18.208        0.058      338.906       11.876      858.331
03/02/2014  14:40:00      -54.289      -94.036        7.732       51.183       48.652       31.937     2619.693     2367.043     1019.970        0.893        0.300      108.582       24.156        0.049      338.898       11.862      858.370
03/02/2014  14:41:00      -79.783      -79.460        2.864       75.855       63.597       39.478     5754.042     4044.625     1558.486        1.202        0.568      112.602       48.484        0.185      338.893       11.855      858.385
03/02/2014  14:42:00      -88.598      -47.696       -2.686       76.016       38.468       34.549     5778.451     1479.823     1193.665        0.929        0.423      100.620       35.601        0.125      338.905       11.873      858.394
03/02/2014  14:43:00     -144.625       -5.264       -2.970       73.581       71.424       34.883     5414.142     5101.432     1216.849        1.634        0.587      144.721       36.086        0.062      338.928       11.912      858.400
03/02/2014  14:44:00     -123.090       33.615      -24.330       71.001       77.167       28.205     5041.187     5954.730      795.537        1.433        0.590      127.598       38.943        0.093      338.823       11.736      858.385
03/02/2014  14:45:00     -103.842       23.827       -5.553       80.124       62.915       38.144     6419.871     3958.354     1454.966        1.161        0.592      106.541       37.034        0.121      338.916       11.893      858.363
03/02/2014  14:46:00     -363.493     -137.255       -1.374      129.366      131.541       70.874    16735.626    17303.082     5023.154        9.501        1.953      388.544       62.666        0.026      338.927       11.908      858.364
03/02/2014  14:47:00     -378.801     -249.055      -33.729      176.713      118.782       85.353    31227.659    14109.073     7285.077       12.963        2.631      453.341       92.806        0.042      338.864       11.803      858.398
03/02/2014  14:48:00     -274.664      -77.975      -10.431      145.537      171.157       66.533    21180.900    29294.596     4426.697        6.826        2.745      285.518       69.176        0.059      338.916       11.888      858.414
03/02/2014  14:49:00     -161.029     -180.789       21.166      150.319      126.093       89.061    22595.813    15899.421     7931.927        5.274        2.321      242.106      105.879        0.191      338.932       11.918      858.408
03/02/2014  14:50:00     -285.650     -151.157      -13.684      166.364      126.888       71.368    27676.977    16100.512     5093.405        7.674        2.444      323.179       73.074        0.051      338.921       11.900      858.382
03/02/2014  14:51:00     -335.355     -139.557      -13.214      132.500      149.055       72.980    17556.289    22217.466     5326.022        8.860        2.255      363.234       73.221        0.041      338.795       11.685      858.355
03/02/2014  14:52:00     -309.593     -147.259      -10.403      110.831      113.067       54.460    12283.549    12784.207     2965.853        7.283        1.402      342.831       49.885        0.021      338.753       11.615      858.347
03/02/2014  14:53:00     -337.639       26.736      -19.679      121.775       79.185       49.654    14829.151     6270.185     2465.509        6.933        1.178      338.696       56.831        0.028      338.800       11.694      858.355
03/02/2014  14:54:00     -243.700      -34.034       -8.513      137.656       94.261       53.453    18949.297     8885.046     2857.190        4.565        1.535      246.065       56.889        0.053      338.848       11.776      858.349
03/02/2014  14:55:00     -427.332      -81.546       -6.491      122.214      110.739       55.104    14936.194    12263.060     3036.415       10.977        1.512      435.043       60.113        0.019      338.769       11.641      858.351
03/02/2014  14:56:00     -374.699     -178.072       -6.596      139.160      121.758       66.085    19365.565    14824.901     4367.163       10.535        1.928      414.860       72.960        0.031      338.817       11.723      858.353
03/02/2014  14:57:00     -323.190     -101.506        0.086      207.254      137.279       77.751    42954.201    18845.594     6045.225        9.129        3.392      338.755       87.300        0.066      338.837       11.757      858.367
03/02/2014  14:58:00     -308.397     -150.643       -4.759      126.381      103.588       60.660    15972.114    10730.390     3679.619        7.410        1.519      343.223       63.434        0.034      338.843       11.768      858.405
03/02/2014  14:59:00     -339.305     -206.774       -0.856      199.056      161.481       81.892    39623.183    26076.118     6706.307       11.513        3.620      397.346       96.858        0.059      338.962       11.967      858.391
03/02/2014  15:00:00     -218.638      -72.931       -8.586      140.010      119.119       72.611    19602.761    14189.396     5272.407        4.612        1.953      230.481       68.274        0.088      339.009       12.048      858.391
03/02/2014  15:01:00     -400.991     -208.170       -8.297      175.539      127.509       68.630    30813.806    16258.498     4710.113       12.798        2.589      451.806       72.376        0.026      338.901       11.864      858.413
03/02/2014  15:02:00     -325.943     -189.318       -9.807      122.664      121.583       65.813    15046.366    14782.458     4331.344        8.816        1.708      376.935       68.621        0.033      338.861       11.797      858.419
03/02/2014  15:03:00     -316.117     -192.135      -13.309      171.030      113.297       58.929    29251.415    12836.222     3472.597        9.128        2.278      369.927       72.184        0.038      338.783       11.667      858.408
03/02/2014  15:04:00     -255.397      -85.202       -6.144      115.651      115.119       60.159    13375.105    13252.453     3619.141        5.138        1.512      269.235       65.547        0.059      338.844       11.769      858.390
03/02/2014  15:05:00     -319.255     -258.739      -20.439      175.868      165.019       83.647    30929.413    27231.371     6996.802       11.721        3.258      410.938       66.213        0.026      338.765       11.636      858.406
03/02/2014  15:06:00     -219.745     -266.131      -13.473      144.265      104.800       71.511    20812.517    10983.039     5113.813        7.810        1.845      345.128       71.771        0.043      338.786       11.671      858.400
03/02/2014  15:07:00     -327.166     -174.793       11.946      148.659      130.417       62.710    22099.467    17008.529     3932.545        9.038        2.152      370.932       63.795        0.030      338.900       11.863      858.383
03/02/2014  15:08:00     -284.115     -169.076       28.513      195.733      154.834       90.889    38311.347    23973.692     8260.807        9.032        3.527      330.618       87.214        0.070      338.824       11.734      858.381
03/02/2014  15:09:00     -306.193     -155.036      -20.375      186.665      142.885       75.453    34843.696    20416.214     5693.139        8.957        3.048      343.206       78.668        0.053      338.851       11.779      858.406
03/02/2014  15:10:00     -411.075        2.791      -16.298      164.192      133.557       78.725    26959.049    17837.494     6197.556       11.012        2.550      411.085       79.175        0.037      338.800       11.695      858.413
03/02/2014  15:11:00     -296.524      -33.560        3.648      229.925      143.138       67.530    52865.357    20488.493     4560.313        8.348        3.896      298.417       89.429        0.090      338.949       11.945      858.433
03/02/2014  15:12:00     -197.237     -126.418       13.549      150.528       97.309       69.682    22658.605     9468.998     4855.553        4.602        1.849      234.273       69.558        0.088      338.976       11.992      858.455
03/02/2014  15:13:00     -264.161     -161.219       -7.180      138.314       92.929       57.315    19130.815     8635.792     3284.975        6.343        1.553      309.471       65.777        0.045      339.031       12.083      858.459
03/02/2014  15:14:00     -381.039     -211.836      -13.884      177.859      144.742       83.358    31633.663    20950.258     6948.541       12.489        2.977      435.965       81.277        0.035      338.882       11.832      858.480
03/02/2014  15:15:00     -207.964     -124.927        8.888      124.706      120.483       60.516    15551.502    14516.259     3662.220        4.633        1.686      242.602       63.126        0.068      338.925       11.905      858.506
03/02/2014  15:16:00     -209.261     -120.990       -6.204      111.997      133.201       57.820    12543.401    17742.638     3343.161        4.604        1.681      241.721       65.534        0.074      338.845       11.770      858.513
03/02/2014  15:17:00      -56.200     -105.083        6.105       73.361      116.335       46.313     5381.768    13533.858     2144.920        1.765        1.053      119.167       44.001        0.136      338.943       11.937      858.507
03/02/2014  15:18:00     -170.831     -182.018        8.433      149.207      109.811       62.796    22262.806    12058.500     3943.357        5.032        1.913      249.627       62.223        0.062      338.815       11.720      858.485
03/02/2014  15:19:00     -191.019     -102.477        2.563      104.374       80.869       44.683    10893.989     6539.770     1996.611        3.321        0.972      216.771       24.387        0.013      338.796       11.689      858.442
03/02/2014  15:20:00     -118.812      -84.520        0.280       68.708       51.611       36.502     4720.747     2663.686     1332.376        1.499        0.436      145.808       29.830        0.042      338.863       11.804      858.418
03/02/2014  15:21:00      -16.570       10.390       37.912       62.565       49.246       39.246     3914.438     2425.195     1540.222        0.485        0.394       19.558       39.914        4.165      339.056       12.129      858.389
03/02/2014  15:22:00     -105.545      -43.641       -0.658       48.583       57.991       34.104     2360.332     3362.983     1163.092        0.996        0.344      114.212       36.520        0.102      339.078       12.164      858.351
03/02/2014  15:23:00     -181.244      -90.900       -6.955       74.875       67.786       36.122     5606.198     4594.904     1304.823        2.633        0.575      202.761       37.352        0.034      339.014       12.055      858.375
03/02/2014  15:24:00     -210.311     -131.017        6.883      120.474       73.800       50.737    14514.068     5446.430     2574.281        4.199        1.127      247.782       59.054        0.057      339.014       12.055      858.425
03/02/2014  15:25:00     -155.482      -50.496       13.638       99.691       79.438       54.356     9938.312     6310.400     2954.528        2.305        0.960      163.476       55.626        0.116      338.992       12.019      858.442
03/02/2014  15:26:00     -251.722        7.498       -5.780       76.801       79.034       38.842     5898.385     6246.404     1508.672        3.855        0.683      251.833       32.400        0.017      338.875       11.820      858.421
03/02/2014  15:27:00     -112.172      -52.735       -3.530       68.408       50.363       29.103     4679.637     2536.386      846.965        1.172        0.403      123.949       18.942        0.023      338.937       11.928      858.411
03/02/2014  15:28:00     -185.202     -136.863       -2.079      108.258       99.523       50.069    11719.817     9904.780     2506.903        3.858        1.207      230.285       56.669        0.061      338.929       11.911      858.404
03/02/2014  15:29:00     -184.653     -183.573        2.035      125.669      119.026       65.633    15792.781    14167.204     4307.686        5.103        1.713      260.376       75.379        0.084      338.925       11.904      858.388
03/02/2014  15:30:00     -294.102      -65.854      -14.585      164.470      138.752       77.770    27050.386    19252.150     6048.106        7.169        2.618      301.385       90.483        0.090      338.941       11.932      858.368
03/02/2014  15:31:00     -224.306     -184.547        4.510      162.351      143.715       67.216    26357.804    20654.050     4518.055        6.795        2.576      290.467       68.662        0.056      338.973       11.987      858.361
03/02/2014  15:32:00      -72.347      -91.618       13.481       90.213       98.263       47.380     8138.465     9655.589     2244.864        1.692        1.002      116.739       41.251        0.125      339.053       12.123      858.380
03/02/2014  15:33:00     -107.702     -206.529       25.631      121.126       93.455       78.586    14671.408     8733.862     6175.774        4.224        1.479      232.925       65.201        0.078      339.060       12.133      858.367
03/02/2014  15:34:00     -173.156     -125.389       -1.417      127.700       89.111       61.116    16307.256     7940.753     3735.206        3.684        1.399      213.788       64.982        0.092      339.047       12.110      858.346
03/02/2014  15:35:00     -304.316     -147.579      -20.376      145.390      181.321       62.157    21138.123    32877.424     3863.475        8.633        2.894      338.213       56.652        0.028      338.890       11.846      858.288
03/02/2014  15:36:00     -436.329     -267.247       -7.796      150.676      118.977       68.484    22703.193    14155.529     4690.055       15.170        2.077      511.668       68.575        0.018      338.951       11.948      858.271
03/02/2014  15:37:00     -381.392     -222.147       -6.873      187.358      156.739       85.707    35103.190    24567.178     7345.656       13.092        3.351      441.372       87.427        0.039      338.964       11.971      858.270
03/02/2014  15:38:00     -406.140     -231.150      -27.900      226.224      181.873      104.318    51177.426    33077.682    10882.313       15.713        4.757      467.312      112.014        0.057      339.098       12.195      858.286
03/02/2014  15:39:00     -334.939     -202.171      -13.786      175.764      158.001       72.407    30893.096    24964.459     5242.758       10.716        3.055      391.225       87.353        0.050      339.117       12.228      858.308
03/02/2014  15:40:00     -313.657     -194.826        7.538      192.697      121.555       71.212    37132.044    14775.709     5071.078        9.668        2.849      369.239       66.558        0.032      339.083       12.171      858.320
03/02/2014  15:41:00     -219.381     -183.065        3.279      162.939      109.555       82.099    26549.133    12002.367     6740.263        6.346        2.265      285.728       78.954        0.076      339.062       12.136      858.338
03/02/2014  15:42:00     -266.785     -175.320       -8.555      117.392       81.479       64.265    13780.961     6638.839     4130.044        6.326        1.227      319.236       60.718        0.036      339.098       12.196      858.361
03/02/2014  15:43:00     -277.825     -200.686      -10.569      126.624      101.609       53.691    16033.605    10324.328     2882.772        7.340        1.462      342.726       50.798        0.022      339.100       12.198      858.370
03/02/2014  15:44:00     -218.590     -195.106        3.316      152.018      122.022       73.464    23109.610    14889.369     5396.912        6.462        2.170      292.998       77.504        0.070      339.061       12.133      858.397
03/02/2014  15:45:00     -267.548     -206.036       19.996      167.762      131.878       89.049    28144.146    17391.721     7929.784        8.394        2.673      337.687       91.092        0.073      339.095       12.192      858.431
03/02/2014  15:46:00     -495.852     -200.971      -29.075      178.954      152.779       84.710    32024.455    23341.304     7175.820       17.481        3.127      535.032       98.820        0.034      338.766       11.636      858.459
03/02/2014  15:47:00     -374.809     -128.508      -12.910      134.096      127.484       67.400    17981.605    16252.253     4542.754        9.796        1.939      396.227       67.341        0.029      338.810       11.711      858.478
03/02/2014  15:48:00     -308.036     -217.051        0.345      148.500      133.549       77.222    22052.228    17835.386     5963.170        9.392        2.293      376.825       80.144        0.045      338.856       11.789      858.477
03/02/2014  15:49:00     -323.339     -195.580        8.212      143.900      118.665       74.108    20707.118    14081.395     5491.978        9.157        2.014      377.888       72.760        0.037      338.981       11.999      858.469
03/02/2014  15:50:00     -219.327      -83.808        9.045      152.698      108.855       60.434    23316.677    11849.322     3652.315        4.701        1.941      234.793       68.536        0.085      338.992       12.020      858.480
03/02/2014  15:51:00     -251.734     -144.957        7.752      224.885      154.575       81.519    50573.214    23893.290     6645.342        8.276        4.056      290.487       87.035        0.090      339.006       12.042      858.446
03/02/2014  15:52:00     -378.938     -156.764       -4.057      213.063      176.495       90.245    45396.012    31150.592     8144.075       12.642        4.235      410.084      104.169        0.065      338.939       11.929      858.466
03/02/2014  15:53:00     -291.542     -140.804       -9.070      147.842      129.635       73.224    21857.305    16805.311     5361.822        7.446        2.201      323.763       68.970        0.045      338.783       11.666      858.514
03/02/2014  15:54:00     -485.048     -147.788      -14.744      168.951      150.425       83.705    28544.286    22627.534     7006.494       15.774        2.909      507.063       86.782        0.029      338.880       11.829      858.487
03/02/2014  15:55:00     -453.721     -133.492      -12.134      165.556      142.461       68.722    27408.707    20295.086     4722.675       13.812        2.621      472.952       84.599        0.032      338.900       11.863      858.465
03/02/2014  15:56:00     -253.742     -181.965        1.319      151.332      103.790       70.520    22901.319    10772.421     4973.088        6.807        1.932      312.244       66.222        0.045      338.990       12.014      858.484
03/02/2014  15:57:00     -236.818     -177.889        7.020      132.190      118.897       78.329    17474.073    14136.432     6135.458        6.275        1.887      296.188       78.699        0.071      339.032       12.087      858.492
03/02/2014  15:58:00     -216.445     -117.020      -10.553      120.909      104.388       56.645    14619.034    10896.934     3208.612        4.468        1.436      246.053       57.549        0.055      339.081       12.168      858.492
03/02/2014  15:59:00     -340.139      -91.307      -18.978      133.708      138.093       68.227    17877.927    19069.659     4654.883        8.299        2.080      352.181       59.145        0.028      339.071       12.150      858.483
03/02/2014  16:00:00     -358.983     -168.204        0.444      244.813      148.023       92.030    59933.350    21910.862     8469.534       12.372        4.516      396.436      120.908        0.093      338.882       11.833      858.449
03/02/2014  16:01:00     -370.366     -128.762       -3.890      189.896      153.027       86.068    36060.394    23417.257     7407.632       11.031        3.344      392.110       80.737        0.042      338.817       11.724      858.440
03/02/2014  16:02:00     -380.189     -216.401       -0.764      232.689      185.750      100.520    54144.106    34503.125    10104.277       14.505        4.938      437.463      114.865        0.069      338.834       11.752      858.413
03/02/2014  16:03:00     -511.203     -294.338      -17.600      233.983      178.021      101.683    54747.862    31691.432    10339.442       22.251        4.839      589.884      100.301        0.029      338.770       11.643      858.392
03/02/2014  16:04:00     -490.643     -229.688      -22.801      209.265      193.758       91.969    43791.714    37542.090     8458.273       19.188        4.490      541.745      105.189        0.038      338.797       11.690      858.398
03/02/2014  16:05:00     -292.361     -178.256       -7.671      105.522      138.274       61.849    11134.936    19119.649     3825.330        7.569        1.704      342.418       44.047        0.017      338.860       11.794      858.398
03/02/2014  16:06:00     -181.306      -44.463       -1.118       90.511       71.484       53.688     8192.241     5109.990     2882.437        2.551        0.809      186.679       52.099        0.078      338.898       11.861      858.398
03/02/2014  16:07:00     -277.977     -203.204        0.000      184.798      146.437       84.458    34150.413    21443.923     7133.218        9.063        3.136      344.330       92.990        0.073      338.904       11.869      858.429
03/02/2014  16:08:00     -294.008     -139.573       27.814      192.355      111.643       77.568    37000.321    12464.220     6016.791        8.108        2.774      325.456       88.624        0.074      338.840       11.761      858.444
03/02/2014  16:09:00     -361.407     -234.375       -8.304      167.452      120.201       85.840    28040.121    14448.336     7368.556       11.773        2.493      430.751      100.517        0.054      338.897       11.857      858.455
03/02/2014  16:10:00     -421.827     -296.290       -5.719      208.045      142.555       89.709    43282.780    20321.950     8047.626       16.869        3.583      515.486      101.751        0.039      338.674       11.482      858.445
03/02/2014  16:11:00     -259.571     -218.783       16.308      199.072      180.893      101.785    39629.747    32722.357    10360.096        9.910        4.136      339.475      113.278        0.111      338.781       11.662      858.449
03/02/2014  16:12:00     -218.567     -197.736       11.890      170.192      144.713       91.059    28965.320    20941.868     8291.807        7.260        2.910      294.739      103.960        0.124      338.750       11.611      858.468
03/02/2014  16:13:00     -201.324     -108.143       25.922      142.968      108.200       66.199    20439.834    11707.212     4382.323        4.471        1.826      228.530       67.393        0.087      338.789       11.678      858.504
03/02/2014  16:14:00     -486.486     -202.704      -20.509      162.940      152.925       75.310    26549.303    23385.903     5671.613       16.688        2.780      527.027       76.902        0.021      338.736       11.586      858.522
03/02/2014  16:15:00     -297.870      -54.537        3.826      180.321      127.974       84.267    32515.799    16377.324     7100.951        7.385        2.800      302.822       96.413        0.101      338.745       11.602      858.535
03/02/2014  16:16:00     -393.821     -179.291      -19.798      134.673      142.395       80.225    18136.923    20276.374     6436.037       11.623        2.242      432.712       63.700        0.022      338.651       11.443      858.559
03/02/2014  16:17:00     -383.973     -127.014       -0.464      159.962      133.600       68.348    25587.958    17849.065     4671.462       10.583        2.405      404.435       62.279        0.024      338.644       11.431      858.586
03/02/2014  16:18:00     -447.522     -212.922      -40.288      123.012      119.120       66.583    15131.909    14189.646     4433.300       14.049        1.688      495.592       58.948        0.014      338.641       11.426      858.588
03/02/2014  16:19:00     -195.751       -0.633        8.007      145.091      107.189       60.367    21051.462    11489.430     3644.191        3.728        1.809      195.752       65.505        0.112      338.699       11.524      858.620
03/02/2014  16:20:00     -186.723      -40.039       -2.135       88.183       81.407       42.739     7776.281     6627.167     1826.585        2.635        0.812      190.968       51.255        0.072      338.754       11.616      858.626
03/02/2014  16:21:00     -125.432        0.122        2.307      108.366       75.979       48.241    11743.266     5772.776     2327.223        1.779        0.992      125.432       41.545        0.110      338.774       11.653      858.609
03/02/2014  16:22:00     -336.239      -32.204      -27.951       92.495      103.681       56.039     8555.336    10749.698     3140.421        6.866        1.122      337.778       50.230        0.022      338.680       11.493      858.635
03/02/2014  16:23:00     -130.305      -56.260        8.620      115.098       70.729       41.485    13247.513     5002.603     1720.976        2.009        0.999      141.932       45.411        0.102      338.785       11.671      858.667
03/02/2014  16:24:00     -240.449     -116.287        5.333      181.003      106.710       61.133    32761.949    11387.127     3737.183        5.962        2.394      267.092       63.389        0.056      338.761       11.629      858.696
03/02/2014  16:25:00     -420.974     -113.570       -7.881      171.754      140.779       87.862    29499.514    19818.673     7719.817       12.360        2.852      436.025       87.368        0.040      338.658       11.456      858.699
03/02/2014  16:26:00     -370.531     -129.402      -23.360      177.058      176.297       83.300    31349.675    31080.562     6938.942       11.197        3.468      392.477       92.231        0.055      338.636       11.420      858.643
03/02/2014  16:27:00     -267.529      -65.602       -5.738      138.018      134.432       65.391    19048.965    18072.054     4275.965        5.865        2.070      275.455       61.313        0.050      338.698       11.523      858.644
03/02/2014  16:28:00     -219.266      -26.099        5.754      200.153       98.830       72.117    40061.295     9767.316     5200.856        5.190        2.751      220.814       80.905        0.134      338.751       11.614      858.658
03/02/2014  16:29:00     -292.304      -90.803      -15.355      141.451      110.874       58.046    20008.469    12292.948     3369.371        6.479        1.784      306.083       50.600        0.027      338.716       11.552      858.688
03/02/2014  16:30:00     -360.923     -180.597      -15.544      219.906      140.734       91.235    48358.590    19806.060     8323.797       11.979        3.824      403.585      110.836        0.075      338.670       11.477      858.695
03/02/2014  16:31:00     -249.482     -137.801       -4.134      205.253      156.472       98.942    42128.751    24483.577     9789.583        7.881        3.820      285.009       98.906        0.120      338.653       11.448      858.667
03/02/2014  16:32:00     -283.648     -205.973       -1.262      208.958      142.148       81.560    43663.420    20206.007     6652.076        9.669        3.526      350.543       97.880        0.078      338.635       11.417      858.662
03/02/2014  16:33:00     -256.701     -142.437       -0.825      106.970      104.365       50.589    11442.541    10892.017     2559.263        5.553        1.245      293.570       43.234        0.022      338.715       11.552      858.698
03/02/2014  16:34:00     -171.731      -63.788        1.813      132.115       69.181       55.776    17454.265     4786.039     3110.953        2.945        1.268      183.195       70.165        0.147      338.802       11.701      858.715
03/02/2014  16:35:00     -207.263      -10.072        3.972      174.585      126.679       72.609    30479.816    16047.686     5272.098        4.743        2.590      207.508       72.404        0.122      338.811       11.712      858.757
03/02/2014  16:36:00     -548.756     -159.313      -54.983      205.581      170.350       85.076    42263.499    29019.054     7237.938       20.402        3.926      571.414       94.487        0.027      338.596       11.350      858.757
03/02/2014  16:37:00     -531.279     -177.215      -23.996      203.404      150.888       81.129    41373.074    22767.076     6581.973       19.247        3.536      560.055       86.986        0.024      338.581       11.328      858.755
03/02/2014  16:38:00     -437.885     -112.526      -15.692      199.437      163.524       81.256    39775.040    26740.072     6602.510       13.887        3.656      452.112       78.577        0.030      338.677       11.489      858.781
03/02/2014  16:39:00     -257.591      -75.037       -8.761      145.005      120.670       72.186    21026.306    14561.233     5210.825        5.642        2.040      268.298       78.923        0.087      338.674       11.481      858.796
03/02/2014  16:40:00     -246.807     -129.460      -15.876      139.107      100.983       57.832    19350.776    10197.487     3344.495        5.540        1.645      278.700       67.380        0.058      338.703       11.530      858.801
03/02/2014  16:41:00     -415.194      -96.793       -4.872      287.006      186.675       93.363    82372.186    34847.585     8716.646       15.384        6.297      426.327      121.440        0.081      338.691       11.513      858.805
03/02/2014  16:42:00     -475.377      -11.165      -24.097      183.041      151.078       74.719    33503.867    22824.495     5582.948       14.429        3.096      475.508       75.726        0.025      338.659       11.456      858.788
03/02/2014  16:43:00     -388.354      -32.634       -8.833      193.729      137.845       86.286    37530.734    19001.325     7445.188       10.796        3.199      389.723       95.297        0.060      338.788       11.675      858.774
03/02/2014  16:44:00     -297.407     -190.650        0.165      188.560      171.274       74.633    35554.951    29334.880     5570.143        9.762        3.523      353.268       91.016        0.066      338.773       11.649      858.783
03/02/2014  16:45:00     -169.309     -109.575        8.623      135.276      108.511       68.608    18299.474    11774.600     4707.036        3.776        1.739      201.674       67.482        0.112      338.874       11.820      858.790
03/02/2014  16:46:00     -533.385     -136.156      -16.310      238.248      211.104       98.335    56762.070    44564.759     9669.813       20.713        5.550      550.489       90.308        0.027      338.774       11.650      858.778
03/02/2014  16:47:00     -496.948     -200.866      -14.456      220.748      195.857      100.632    48729.506    38360.058    10126.727       19.235        4.861      536.008      105.674        0.039      338.704       11.533      858.782
03/02/2014  16:48:00     -542.102     -236.397      -15.434      214.648      165.095       93.377    46073.815    27256.502     8719.297       21.601        4.102      591.403      100.677        0.029      338.627       11.405      858.810
03/02/2014  16:49:00     -402.954     -343.446       15.041      256.341      201.558      112.310    65710.838    40625.475    12613.475       19.973        5.947      529.459      130.181        0.060      338.558       11.288      858.818
03/02/2014  16:50:00     -220.739     -164.383       -8.264      164.893      127.002       75.106    27189.749    16129.389     5640.932        6.238        2.448      275.223       98.343        0.128      338.709       11.541      858.833
03/02/2014  16:51:00     -255.330     -208.671        5.177      186.239      146.466       69.068    34685.047    21452.184     4770.361        8.483        3.045      329.753       76.159        0.053      338.669       11.475      858.838
03/02/2014  16:52:00     -348.604     -150.068        8.765      196.587      214.205       93.546    38646.619    45883.636     8750.779       11.869        4.664      379.533       71.226        0.035      338.661       11.460      858.798
03/02/2014  16:53:00     -427.698      -34.640      -10.049      177.351      124.324       60.308    31453.537    15456.387     3637.068       11.738        2.527      429.098       53.344        0.015      338.706       11.537      858.825
03/02/2014  16:54:00     -397.899     -116.680       -8.214      198.845      141.706       85.522    39539.486    20080.537     7314.029       11.946        3.347      414.654       94.768        0.052      338.718       11.558      858.827
03/02/2014  16:55:00     -406.028     -196.997      -13.463      192.640      162.661       83.972    37110.078    26458.540     7051.313       13.722        3.531      451.295       88.540        0.038      338.690       11.509      858.845
03/02/2014  16:56:00     -283.526     -131.582       -9.437      145.956      140.267       81.561    21303.197    19674.862     6652.202        7.270        2.382      312.571       77.802        0.062      338.659       11.458      858.836
03/02/2014  16:57:00     -436.636     -139.752       -5.748      212.431      147.280       76.780    45126.948    21691.338     5895.195       14.145        3.636      458.455       75.384        0.027      338.575       11.317      858.823
03/02/2014  16:58:00     -146.339      -54.864        9.038      144.855      109.764       79.139    20982.991    12048.154     6262.917        3.189        1.965      156.285       64.829        0.172      338.710       11.545      858.815
03/02/2014  16:59:00     -432.186     -187.466      -21.227      225.438      158.634       96.010    50822.225    25164.637     9217.868       15.378        4.260      471.092      100.943        0.046      338.623       11.397      858.789
03/02/2014  17:00:00     -491.866     -136.763      -18.865      185.232      144.650       77.369    34310.819    20923.600     5985.952       16.110        3.061      510.526       80.259        0.025      338.586       11.334      858.769
03/02/2014  17:01:00     -379.863     -275.321      -28.462      223.599      184.891       96.418    49996.421    34184.704     9296.407       15.718        4.674      469.145      105.541        0.051      338.591       11.344      858.786
03/02/2014  17:02:00     -352.163     -240.589      -19.295      204.800      165.682       97.791    41942.921    27450.615     9563.019       13.060        3.948      426.500      102.077        0.057      338.621       11.394      858.786
03/02/2014  17:03:00     -505.788      -66.323       -1.448      360.458      207.033      128.271   129930.133    42862.742    16453.553       22.470        9.462      510.118      176.772        0.120      338.664       11.465      858.720
03/02/2014  17:04:00     -404.833     -215.675      -10.246      244.606      236.436      116.399    59832.120    55901.800    13548.651       16.987        6.464      458.700      132.332        0.083      338.655       11.451      858.792
03/02/2014  17:05:00     -515.174     -170.058      -11.068      241.060      211.029      104.568    58109.948    44533.297    10934.558       20.399        5.679      542.516       89.463        0.027      338.589       11.340      858.822
03/02/2014  17:06:00     -488.925     -167.904       -1.904      305.225      200.608      109.142    93162.214    40243.374    11911.929       20.626        7.266      516.952      132.814        0.066      338.579       11.324      858.850
03/02/2014  17:07:00     -592.082     -209.223      -19.425      185.497      220.192       97.760    34409.121    48484.599     9557.017       24.357        4.623      627.962       87.515        0.019      338.538       11.255      858.876
03/02/2014  17:08:00     -449.867     -150.533      -21.397      172.875      130.007       76.116    29885.666    16901.831     5793.658       13.903        2.629      474.384       76.712        0.026      338.572       11.313      858.904
03/02/2014  17:09:00     -411.567      -60.110      -15.174      193.004      105.061       69.952    37250.549    11037.909     4893.306       11.320        2.659      415.934       79.295        0.036      338.561       11.293      858.885
03/02/2014  17:10:00     -372.178     -138.458       -3.731      203.106      165.804       89.704    41252.157    27490.907     8046.858       11.723        3.839      397.098       93.815        0.056      338.581       11.327      858.924
03/02/2014  17:11:00     -409.336      -60.202      -22.852      201.169      190.064       92.131    40468.798    36124.224     8488.143       12.838        4.254      413.739       99.278        0.058      338.538       11.253      858.909
03/02/2014  17:12:00     -396.049     -168.777        3.756      210.451      182.818       90.642    44289.732    33422.275     8215.934       13.563        4.296      430.512      101.477        0.056      338.469       11.137      858.930
03/02/2014  17:13:00     -368.496       -3.154      -12.672      218.853      149.130       72.901    47896.658    22239.883     5314.600       10.569        3.773      368.510       86.219        0.055      338.450       11.107      858.971
03/02/2014  17:14:00     -310.525     -136.543        0.413      148.153      160.701       67.099    21949.418    25824.960     4502.300        8.366        2.614      339.220       66.959        0.039      338.455       11.115      858.933
03/02/2014  17:15:00     -368.818     -186.582      -18.626      263.693      161.599       92.096    69533.812    26114.390     8481.606       13.764        5.206      413.327      118.605        0.082      338.455       11.115      858.924
03/02/2014  17:16:00     -180.291      -51.012        3.774      145.735       92.028       56.122    21238.758     8469.145     3149.639        3.398        1.643      187.369       62.377        0.111      338.454       11.114      858.889
03/02/2014  17:17:00     -493.064     -146.363      -23.452      350.072      241.226       98.169   122550.331    58190.176     9637.160       22.770        9.519      514.329      117.442        0.052      338.430       11.072      858.866
03/02/2014  17:18:00     -345.437      -92.027      -26.598      215.489      118.972       78.765    46435.494    14154.257     6203.941        9.764        3.340      357.485       77.067        0.046      338.457       11.117      858.830
03/02/2014  17:19:00     -348.868     -144.209        3.624      253.891      144.180       95.349    64460.578    20787.870     9091.348       11.841        4.717      377.499      127.708        0.114      338.418       11.051      858.828
03/02/2014  17:20:00     -310.875      -46.135       -2.014      131.864      125.616       71.445    17388.043    15779.475     5104.371        6.852        1.914      314.280       67.550        0.046      338.390       11.005      858.883
03/02/2014  17:21:00     -393.952     -128.737      -13.723      203.643      146.057       77.740    41470.615    21332.650     6043.546       12.039        3.442      414.453      101.378        0.060      338.405       11.031      858.915
03/02/2014  17:22:00     -289.874     -133.266      -13.662      144.052      121.263       64.522    20751.118    14704.800     4163.094        7.079        1.981      319.041       70.597        0.049      338.382       10.992      858.908
03/02/2014  17:23:00     -361.817     -115.959       -3.087      183.070      158.864       74.116    33514.713    25237.913     5493.168       10.430        3.212      379.945       82.811        0.048      338.352       10.943      858.897
03/02/2014  17:24:00     -404.457      -84.994      -22.028      190.643      138.466       83.877    36344.700    19172.760     7035.275       11.691        3.128      413.291       91.355        0.049      338.343       10.926      858.909
03/02/2014  17:25:00     -145.696     -114.223       -5.647      135.204      118.744       74.404    18280.005    14100.238     5535.938        3.610        1.896      185.133       77.347        0.175      338.352       10.944      858.916
03/02/2014  17:26:00     -271.216     -120.279        8.076      168.622      132.813       65.094    28433.389    17639.393     4237.284        6.919        2.516      296.690       67.306        0.051      338.315       10.881      858.950
03/02/2014  17:27:00     -212.116      -66.980        8.817      145.380      125.398       77.767    21135.476    15724.725     6047.726        4.623        2.145      222.440       72.768        0.107      338.322       10.892      858.964
03/02/2014  17:28:00     -193.578      -34.765       15.002      216.530      133.102       84.236    46885.081    17716.014     7095.646        5.529        3.585      196.675      106.703        0.294      338.326       10.900      858.950
03/02/2014  17:29:00     -136.923     -130.424       21.030      160.906      117.592       85.856    25890.898    13827.969     7371.327        4.164        2.355      189.099       91.654        0.235      338.287       10.835      858.986
03/02/2014  17:30:00     -296.381     -168.387       -5.123      216.474      159.649       98.937    46860.797    25487.907     9788.494        9.917        4.107      340.875      111.105        0.106      338.285       10.829      859.044
03/02/2014  17:31:00     -296.970     -242.036       -7.265      252.716      189.003       99.368    63865.149    35722.253     9873.953       12.813        5.473      383.109      129.817        0.115      338.262       10.792      859.085
03/02/2014  17:32:00     -445.391     -225.257       -7.492      192.815      164.880       88.873    37177.658    27185.365     7898.444       16.070        3.613      499.113       98.177        0.039      338.242       10.759      859.137
03/02/2014  17:33:00     -503.541     -242.490      -24.585      248.539      192.224       84.723    61771.527    36950.254     7178.015       20.941        5.295      558.888      108.931        0.038      338.230       10.737      859.109
03/02/2014  17:34:00     -357.342     -158.775      -21.229      129.419      132.849       76.682    16749.187    17648.878     5880.084        9.681        2.014      391.028       70.514        0.033      338.226       10.731      859.095
03/02/2014  17:35:00     -379.806     -242.645      -15.716      143.576      152.126       83.357    20614.117    23142.194     6948.378       12.703        2.535      450.698       75.174        0.028      338.219       10.719      859.099
03/02/2014  17:36:00     -392.528     -164.860       -5.559      152.499      191.162       88.222    23255.820    36542.973     7783.194       12.442        3.379      425.743       88.808        0.044      338.211       10.706      859.091
03/02/2014  17:37:00     -386.900      -60.378      -19.460      137.356      177.403       63.019    18866.618    31471.750     3971.452       10.400        2.715      391.583       53.523        0.019      338.238       10.750      859.069
03/02/2014  17:38:00     -398.080     -206.435        1.432      219.081      157.045       92.500    47996.585    24663.259     8556.188       14.114        4.061      448.423      107.078        0.057      338.330       10.904      859.093
03/02/2014  17:39:00     -364.410     -182.768      -25.080      141.531      122.433       76.753    20030.981    14989.877     5891.093       10.386        2.046      407.675       54.828        0.018      338.249       10.770      859.126
03/02/2014  17:40:00     -207.971      -22.259       13.034      198.749      126.676       70.009    39501.330    16046.882     4901.255        5.217        3.022      209.158       83.707        0.160      338.215       10.714      859.090
03/02/2014  17:41:00     -186.835     -122.488       -3.278      164.512      150.972       79.599    27064.100    22792.629     6336.070        5.305        2.810      223.407       88.537        0.157      338.217       10.716      859.071
03/02/2014  17:42:00     -309.523     -161.934        4.132      253.515      176.145       99.363    64269.680    31027.003     9872.922       11.359        5.258      349.323      127.459        0.133      338.196       10.680      859.041
03/02/2014  17:43:00     -323.144      -97.494        4.984      184.482      113.872       67.075    34033.432    12966.743     4498.991        8.272        2.575      337.531       81.389        0.058      338.150       10.603      859.072
03/02/2014  17:44:00     -463.635     -201.815      -14.326      179.451      157.860       86.077    32202.601    24919.810     7409.191       16.020        3.227      505.655       89.526        0.031      338.125       10.559      859.065
03/02/2014  17:45:00     -362.879      -97.173      -10.943      147.777      100.111       67.311    21838.189    10022.286     4530.725        8.881        1.820      375.664       69.838        0.035      338.114       10.542      859.087
03/02/2014  17:46:00     -221.484     -133.670       10.067      210.259      147.336       87.258    44209.030    21707.772     7614.029        7.027        3.677      258.695      108.729        0.177      338.108       10.533      859.080
03/02/2014  17:47:00     -151.995     -130.076        8.879      145.062      176.811       77.838    21043.093    31262.293     6058.761        4.922        2.918      200.056       79.626        0.158      338.125       10.560      859.069
03/02/2014  17:48:00     -306.368      -87.251        8.364      198.899      157.151       90.742    39560.854    24696.389     8234.095        8.701        3.625      318.550      107.454        0.114      338.160       10.620      859.069
03/02/2014  17:49:00     -300.608     -146.083        0.337      209.300      143.220       71.156    43806.448    20512.104     5063.194        9.053        3.469      334.224       81.230        0.059      338.177       10.649      859.122
03/02/2014  17:50:00     -244.209     -201.483       -9.118      187.822      128.234       93.984    35276.968    16443.940     8832.924        8.043        3.028      316.597       94.839        0.090      338.155       10.610      859.137
03/02/2014  17:51:00     -276.968     -239.088      -11.552      185.716      159.464      108.034    34490.255    25428.649    11671.359       10.279        3.580      365.888      104.308        0.081      338.154       10.611      859.166
03/02/2014  17:52:00     -316.404     -147.937       -8.703      167.102      124.981       80.811    27923.138    15620.225     6530.424        8.606        2.504      349.280       79.540        0.052      338.130       10.569      859.149
03/02/2014  17:53:00     -265.821     -142.622       -3.503      195.627      145.064       74.171    38270.100    21043.669     5501.314        7.790        3.241      301.665       88.743        0.087      338.108       10.531      859.171
03/02/2014  17:54:00     -103.628      -95.349       -1.511      112.632       98.278       57.645    12686.028     9658.468     3322.964        2.275        1.283      140.820       62.862        0.199      338.107       10.531      859.179
03/02/2014  17:55:00     -278.286     -132.022        6.426      106.249      143.583       59.273    11288.948    20616.186     3513.317        6.516        1.771      308.015       58.047        0.036      338.107       10.531      859.162
03/02/2014  17:56:00     -267.704     -121.254        9.296      174.113      118.810       64.339    30315.300    14115.911     4139.514        6.750        2.429      293.884       74.859        0.065      338.105       10.526      859.156
03/02/2014  17:57:00     -143.003     -141.036       13.551      178.483      110.024       60.580    31856.331    12105.321     3669.924        4.407        2.382      200.851       74.789        0.139      338.101       10.521      859.207
03/02/2014  17:58:00     -141.389      -89.998        3.597      157.604       62.060       45.606    24839.137     3851.437     2079.930        2.943        1.539      167.602       42.757        0.065      338.092       10.505      859.252
03/02/2014  17:59:00     -157.047      -92.497        6.254      129.249      105.856       71.271    16705.177    11205.452     5079.564        3.312        1.650      182.262       75.899        0.173      338.050       10.435      859.263
03/02/2014  18:00:00     -195.233      -97.939        3.403      146.217       82.078       56.279    21379.298     6736.752     3167.276        3.950        1.564      218.421       64.602        0.087      338.032       10.406      859.329
03/02/2014  18:01:00     -164.426     -168.880        8.608      114.878      163.835       58.530    13197.049    26841.982     3425.739        4.954        2.173      235.704       53.163        0.051      338.078       10.481      859.364
03/02/2014  18:02:00     -173.856     -174.532       11.125      124.648       87.072       65.050    15537.088     7581.512     4231.477        4.408        1.368      246.348       58.861        0.057      338.086       10.494      859.336
03/02/2014  18:03:00     -203.341     -108.879      -10.643      108.178       62.526       40.244    11702.429     3909.452     1619.550        3.527        0.862      230.656       36.355        0.025      338.073       10.474      859.324
03/02/2014  18:04:00     -165.281      -73.157        6.562      105.241       77.955       43.003    11075.600     6076.928     1849.245        2.585        0.950      180.748       43.478        0.058      338.040       10.418      859.372
03/02/2014  18:05:00     -236.846     -163.701      -16.593      108.066       93.702       51.935    11678.279     8780.084     2697.262        5.316        1.158      287.913       51.806        0.032      338.060       10.452      859.342
03/02/2014  18:06:00      -93.832     -204.629       14.421      112.251      119.482       54.072    12600.338    14275.983     2923.808        4.034        1.490      225.117       50.744        0.051      338.073       10.475      859.307
03/02/2014  18:07:00     -101.648      -47.918       14.551      132.238       78.285       60.395    17486.828     6128.536     3647.589        2.005        1.363      112.376       72.759        0.419      338.053       10.442      859.289
03/02/2014  18:08:00      -78.296     -135.100       11.125      127.413       84.849       51.505    16234.019     7199.409     2652.793        2.529        1.304      156.149       57.957        0.138      338.098       10.515      859.276
03/02/2014  18:09:00     -142.771      -91.039        1.482      110.102       91.356       54.264    12122.364     8345.858     2944.547        2.604        1.171      169.327       52.007        0.094      338.127       10.565      859.295
03/02/2014  18:10:00      -55.957     -191.708      -24.372       61.050       79.348       42.221     3727.089     6296.179     1782.606        2.614        0.590      199.707       43.970        0.048      338.254       10.778      859.313
03/02/2014  18:11:00      -89.124     -161.615       -4.118       67.348       65.165       46.512     4535.757     4246.432     2163.356        2.251        0.547      184.560       37.026        0.040      338.202       10.691      859.365
03/02/2014  18:12:00      -74.737      -58.518       -4.898       72.442       46.240       39.489     5247.784     2138.143     1559.346        0.899        0.447       94.921       38.480        0.164      338.144       10.597      859.397
03/02/2014  18:13:00     -122.908       -2.011      -15.843       50.055       47.281       29.003     2505.527     2235.528      841.181        1.047        0.279      122.924       29.884        0.059      338.232       10.744      859.386
03/02/2014  18:14:00     -139.164        7.880      -22.065       48.054       37.883       25.265     2309.178     1435.141      638.340        1.215        0.219      139.387       14.813        0.011      338.237       10.752      859.364
03/02/2014  18:15:00      -50.384      -32.688       -0.475       55.253       42.343       30.467     3052.865     1792.928      928.214        0.469        0.289       60.058       31.276        0.271      338.144       10.597      859.339
03/02/2014  18:16:00      -84.166        0.298      -11.621       38.852       38.344       18.938     1509.472     1470.269      358.664        0.528        0.167       84.167       14.331        0.029      338.321       10.894      859.325
03/02/2014  18:17:00      -87.498     -117.187       -2.197       57.142       83.337       29.265     3265.232     6944.991      856.445        1.623        0.553      146.249       31.723        0.047      338.188       10.667      859.382
03/02/2014  18:18:00      -96.264     -155.848        3.056       55.233       69.167       37.293     3050.716     4784.032     1390.804        2.139        0.461      183.181       33.820        0.034      338.158       10.617      859.418
03/02/2014  18:19:00      -91.794      -76.778        1.258       54.005       59.984       29.074     2916.501     3598.059      845.272        1.084        0.368      119.670       31.702        0.070      338.119       10.555      859.416
03/02/2014  18:20:00     -119.485     -160.131       -6.083       74.522       76.539       42.230     5553.554     5858.290     1783.342        2.657        0.660      199.796       39.868        0.040      338.117       10.548      859.451
03/02/2014  18:21:00     -123.864     -102.401        1.684       87.821       76.046       43.482     7712.548     5782.959     1890.708        2.061        0.769      160.712       37.032        0.053      338.101       10.521      859.490
03/02/2014  18:22:00     -148.325      -83.763        5.833      106.220       55.626       33.318    11282.626     3094.207     1110.093        2.227        0.774      170.343       38.863        0.052      338.117       10.547      859.527
03/02/2014  18:23:00     -102.369      -67.447       18.110       77.759       67.166       43.375     6046.498     4511.250     1881.407        1.390        0.622      122.591       41.743        0.116      338.099       10.521      859.563
03/02/2014  18:24:00      -28.082      -54.633       17.670       57.946       60.218       38.925     3357.682     3626.173     1515.194        0.629        0.425       61.428       33.834        0.303      338.155       10.613      859.560
03/02/2014  18:25:00      -77.047      -69.438        5.585       53.958       40.613       26.199     2911.429     1649.427      686.369        0.802        0.262      103.721       24.562        0.056      338.175       10.647      859.586
03/02/2014  18:26:00      -90.911      -70.293        5.561       69.153       47.213       29.693     4782.115     2229.060      881.653        1.056        0.395      114.917       31.183        0.074      338.167       10.634      859.615
03/02/2014  18:27:00     -104.270     -102.186        2.166       72.699       60.484       37.519     5285.098     3658.281     1407.672        1.583        0.518      145.994       22.245        0.023      338.152       10.608      859.664
03/02/2014  18:28:00        8.199      -65.086       18.479       53.864       47.194       29.902     2901.305     2227.254      894.126        0.533        0.301       65.600       25.269        0.148      338.223       10.729      859.635
03/02/2014  18:29:00       59.355       57.288       32.769       28.869       30.665       31.997      833.397      940.373     1023.792        0.534        0.140       82.492       18.843        0.052      338.160       10.623      859.583
03/02/2014  18:30:00        8.714       20.828        5.368       21.953       12.179       15.847      481.913      148.339      251.137        0.071        0.044       22.578       13.233        0.344      338.124       10.565      859.645
03/02/2014  18:31:00       -1.138       -5.477       -2.355       21.496       23.745       12.823      462.063      563.816      164.420        0.061        0.060        5.594       11.324        4.099      338.239       10.754      859.714
03/02/2014  18:32:00       -0.420       28.321        2.949       17.111       19.139       11.063      292.793      366.285      122.391        0.080        0.039       28.324        7.869        0.077      338.192       10.677      859.744
03/02/2014  18:33:00       24.252       32.965       -1.762       25.485       25.904       20.476      649.493      671.026      419.260        0.171        0.087       40.925       13.248        0.105      338.197       10.683      859.769
03/02/2014  18:34:00       44.875       38.559      -14.319       34.492       30.836       23.644     1189.717      950.858      559.035        0.320        0.135       59.166       18.146        0.094      338.087       10.501      859.794
03/02/2014  18:35:00       74.764       -2.818       18.986       56.085       29.875       26.476     3145.535      892.498      700.979        0.535        0.237       74.817       15.473        0.043      338.105       10.531      859.828
03/02/2014  18:36:00       68.729       12.775        5.583       37.819       45.306       27.154     1430.257     2052.609      737.317        0.457        0.211       69.906       22.322        0.102      338.094       10.512      859.844
03/02/2014  18:37:00       57.314       51.096      -12.606       31.118       36.773       29.910      968.319     1352.244      894.599        0.463        0.161       76.784       18.097        0.056      338.139       10.587      859.856
03/02/2014  18:38:00       36.387       20.730       -5.998       24.625       44.251       22.067      606.377     1958.140      486.931        0.242        0.153       41.878       23.221        0.307      338.111       10.541      859.882
03/02/2014  18:39:00       20.431       80.702      -14.041       26.909       56.246       21.016      724.114     3163.661      441.693        0.573        0.216       83.248       28.208        0.115      338.062       10.459      859.913
03/02/2014  18:40:00      -19.038       89.753       -9.389       29.450       35.691       19.586      867.278     1273.850      383.626        0.552        0.126       91.750       15.329        0.028      338.062       10.459      859.948
03/02/2014  18:41:00      -36.366      109.817      -23.974       26.437       30.981       18.803      698.891      959.847      353.559        0.798        0.101      115.682       11.847        0.010      338.056       10.448      859.995
03/02/2014  18:42:00      -62.056      121.642      -25.802       28.134       39.810       21.538      791.524     1584.819      463.865        1.108        0.142      136.557       17.947        0.017      338.191       10.675      860.021
03/02/2014  18:43:00       -4.027      160.100      -32.274       31.264       39.402       19.314      977.410     1552.557      373.043        1.480        0.145      160.150       18.906        0.014      338.008       10.368      860.032
03/02/2014  18:44:00      -22.889      164.489      -32.374       27.088       34.765       13.734      733.784     1208.637      188.625        1.538        0.107      166.074       12.465        0.006      338.040       10.422      860.031
03/02/2014  18:45:00      -29.570      138.610      -30.693       45.712       46.320       20.619     2089.549     2145.564      425.128        1.284        0.233      141.730       27.884        0.039      338.097       10.517      860.046
03/02/2014  18:46:00      -43.493      146.103      -18.246       33.356       42.219       26.754     1112.612     1782.432      715.769        1.359        0.181      152.439       25.340        0.028      338.176       10.651      860.068
03/02/2014  18:47:00      -72.076      149.721      -19.918       51.841       51.159       31.981     2687.490     2617.218     1022.790        1.717        0.316      166.167       29.324        0.031      338.169       10.638      860.084
03/02/2014  18:48:00     -121.138      197.542      -33.341       48.907       71.199       36.612     2391.865     5069.299     1340.424        3.180        0.440      231.727       32.298        0.019      338.253       10.776      860.113
03/02/2014  18:49:00     -140.511      112.085      -19.349       58.360       68.628       43.497     3405.908     4709.753     1892.010        2.134        0.500      179.740       38.269        0.045      338.306       10.865      860.146
03/02/2014  18:50:00     -286.382      104.716      -31.373      106.470       98.006       49.567    11335.792     9605.259     2456.860        5.868        1.170      304.926       34.377        0.013      338.200       10.686      860.186
03/02/2014  18:51:00     -404.500      -50.947      -29.338      139.417       97.589       67.316    19436.995     9523.630     4531.414       10.028        1.675      407.695       72.482        0.032      338.175       10.644      860.191
03/02/2014  18:52:00     -290.446      -80.237       -3.090       62.689       72.932       36.811     3929.854     5319.047     1355.067        5.070        0.530      301.325       21.508        0.005      338.186       10.661      860.283
03/02/2014  18:53:00     -242.270      -59.085       -0.761      104.663       76.717       37.415    10954.427     5885.451     1399.893        4.021        0.912      249.371       43.158        0.030      338.137       10.580      860.331
03/02/2014  18:54:00     -445.579      102.036      -38.135      182.493       92.651       69.951    33303.755     8584.171     4893.172       12.859        2.339      457.112       83.098        0.033      338.279       10.817      860.297
03/02/2014  18:55:00     -389.760      -77.399      -33.326      190.374      166.441       71.476    36242.272    27702.508     5108.875       11.402        3.453      397.371       77.734        0.038      338.217       10.714      860.304
03/02/2014  18:56:00     -215.268     -112.198        5.316      143.720      101.638       53.812    20655.449    10330.275     2895.752        4.641        1.694      242.752       52.925        0.048      338.195       10.679      860.377
03/02/2014  18:57:00     -234.125     -141.477       -8.594      183.181      121.326       41.493    33555.196    14720.060     1721.668        6.244        2.500      273.551       38.482        0.020      338.300       10.856      860.384
03/02/2014  18:58:00      -67.222     -124.357      -20.647       57.439       97.661       35.656     3299.256     9537.588     1271.382        1.726        0.705      141.362       27.695        0.038      338.287       10.836      860.367
03/02/2014  18:59:00      -11.629       24.710       15.957       22.376       21.852       16.514      500.685      477.530      272.708        0.113        0.063       27.310        8.288        0.092      338.263       10.795      860.349
03/02/2014  19:00:00     -119.062      -23.925        1.963       86.480       38.283       30.681     7478.820     1465.563      941.332        1.232        0.494      121.442       15.030        0.015      338.458       11.125      860.391
03/02/2014  19:01:00      -89.626       -6.707       -4.044       92.218       25.906       35.467     8504.134      671.132     1257.939        0.926        0.522       89.876       44.726        0.248      338.184       10.663      860.422
03/02/2014  19:02:00      -10.665      -41.391        1.113       30.113       39.351       20.393      906.793     1548.484      415.857        0.235        0.144       42.743       18.676        0.191      338.213       10.711      860.421
03/02/2014  19:03:00       -2.016     -108.649      -11.989       53.494       39.650       35.913     2861.555     1572.151     1289.732        0.884        0.286      108.668       22.679        0.044      338.372       10.979      860.405
03/02/2014  19:04:00       -4.792      -59.338        3.179       57.845       47.571       28.115     3346.097     2263.004      790.471        0.498        0.320       59.532       27.945        0.220      338.324       10.898      860.361
03/02/2014  19:05:00      -82.784      -68.972       -3.159       46.944       44.289       23.677     2203.724     1961.478      560.621        0.817        0.236      107.751       20.981        0.038      338.217       10.718      860.365
03/02/2014  19:06:00      -85.829     -107.517        7.735       82.629       83.126       41.910     6827.553     6909.902     1756.415        1.724        0.775      137.574       33.119        0.058      338.149       10.602      860.375
03/02/2014  19:07:00      -93.475       55.449      -11.126       56.073       54.504       30.110     3144.195     2970.688      906.589        0.948        0.351      108.684       29.322        0.073      338.157       10.618      860.388
03/02/2014  19:08:00     -206.256       -2.392      -12.692      111.977       64.715       43.323    12538.869     4188.022     1876.895        3.065        0.930      206.270       46.612        0.051      338.124       10.560      860.377
03/02/2014  19:09:00     -309.616       15.793      -18.970      112.762       71.736       57.990    12715.194     5146.054     3362.804        5.884        1.061      310.018       62.009        0.040      338.038       10.416      860.353
03/02/2014  19:10:00     -230.526      -27.847      -24.380       85.822       72.912       43.479     7365.397     5316.206     1890.452        3.454        0.729      232.202       47.063        0.041      337.935       10.240      860.353
03/02/2014  19:11:00     -135.797       -4.616        7.399       79.232       78.098       42.315     6277.694     6099.351     1790.572        1.634        0.708      135.876       32.452        0.057      338.000       10.355      860.357
03/02/2014  19:12:00     -125.101      -66.330        1.996      114.110       83.371       49.681    13021.146     6950.675     2468.213        2.124        1.122      141.598       58.082        0.168      337.828       10.064      860.337
03/02/2014  19:13:00     -234.573     -145.337      -15.455      131.558       93.257       53.936    17307.496     8696.857     2909.088        5.264        1.446      275.948       52.462        0.036      337.866       10.127      860.267
03/02/2014  19:14:00     -170.236      -64.873      -12.644      116.665       71.069       40.398    13610.687     5050.823     1632.003        2.682        1.015      182.178       49.316        0.073      337.850       10.099      860.269
03/02/2014  19:15:00     -125.312      -46.896        7.033      100.783       76.119       58.469    10157.283     5794.030     3418.674        1.866        0.968      133.800       55.244        0.170      337.846       10.094      860.272
03/02/2014  19:16:00     -161.099     -136.309        0.825      132.191      108.864       60.826    17474.542    11851.262     3699.783        3.877        1.651      211.028       70.988        0.113      337.867       10.128      860.197
03/02/2014  19:17:00      -92.375      -37.319        9.264       63.420       82.068       42.350     4022.072     6735.228     1793.532        1.128        0.628       99.628       46.101        0.214      337.856       10.112      860.164
03/02/2014  19:18:00      -88.915       -8.486        2.102       97.944       67.601       42.819     9592.974     4569.909     1833.428        1.199        0.800       89.319       49.706        0.310      337.833       10.072      860.122
03/02/2014  19:19:00     -341.477        3.750      -16.680      186.594      139.788       69.980    34817.150    19540.650     4897.239        8.807        2.963      341.498       77.462        0.051      337.941       10.253      860.091
03/02/2014  19:20:00     -262.850      -56.442       -2.600      192.087      128.395       73.810    36897.270    16485.192     5447.853        6.555        2.942      268.842       77.668        0.083      337.920       10.216      860.067
03/02/2014  19:21:00     -291.318      -93.793      -19.248      134.928      142.190       62.393    18205.477    20218.011     3892.900        6.817        2.116      306.045       54.539        0.032      337.897       10.177      860.009
03/02/2014  19:22:00     -294.829      -70.125       -8.057      136.819      100.923       61.612    18719.321    10185.479     3796.045        6.230        1.635      303.054       72.292        0.057      337.886       10.157      859.964
03/02/2014  19:23:00     -200.033      -82.692        0.249       68.914       75.102       45.284     4749.149     5640.255     2050.631        2.964        0.622      216.452       36.215        0.028      337.870       10.132      859.936
03/02/2014  19:24:00     -146.870     -103.300       11.576      109.456      102.328       55.332    11980.691    10471.107     3061.630        2.894        1.276      179.559       61.857        0.119      337.884       10.157      859.963
03/02/2014  19:25:00     -107.471      -18.508       14.963      133.043       66.880       54.686    17700.447     4472.956     2990.541        1.864        1.258      109.053       59.309        0.296      337.846       10.096      860.003
03/02/2014  19:26:00     -324.352      -17.240       -2.317      216.618      145.562       63.641    46923.161    21188.343     4050.181        8.882        3.608      324.810       87.119        0.072      337.803       10.020      860.036
03/02/2014  19:27:00     -130.458      -46.657        0.018      106.605       65.244       47.387    11364.627     4256.732     2245.506        1.853        0.893      138.550       53.893        0.151      337.796       10.009      860.037
03/02/2014  19:28:00     -113.813      -92.538        6.207       92.025       64.986       45.640     8468.687     4223.194     2083.004        1.816        0.739      146.686       55.096        0.141      337.767        9.962      860.067
03/02/2014  19:29:00     -247.754     -147.544       -4.726      168.240       77.742       67.303    28304.791     6043.772     4529.747        6.102        1.944      288.360       82.554        0.082      337.780        9.984      860.089
03/02/2014  19:30:00     -166.824      -62.766       11.358      129.852       85.408       62.466    16861.510     7294.564     3902.041        2.997        1.403      178.241       70.935        0.158      337.743        9.921      860.109
03/02/2014  19:31:00      -81.999     -211.130       -8.381       93.510      116.513       48.368     8744.065    13575.382     2339.461        3.801        1.233      226.494       43.776        0.037      337.825       10.057      860.075
03/02/2014  19:32:00     -191.524     -283.375      -10.078      174.290      102.454       56.401    30376.837    10496.913     3181.035        8.056        2.203      342.028       74.590        0.048      337.841       10.084      860.073
03/02/2014  19:33:00     -165.554     -161.344        8.365      151.528       92.471       69.350    22960.740     8550.941     4809.440        4.491        1.816      231.171       63.915        0.076      337.789        9.998      860.102
03/02/2014  19:34:00      -95.188     -143.636        5.260      117.661       78.423       42.851    13844.173     6150.169     1836.219        2.577        1.092      172.314       35.925        0.043      337.793       10.005      860.149
03/02/2014  19:35:00     -132.564     -128.364       -2.412       86.696       71.924       39.152     7516.231     5173.006     1532.882        2.414        0.711      184.528       27.585        0.022      337.773        9.971      860.180
03/02/2014  19:36:00     -122.848      -73.045       -4.528       67.704       63.207       36.018     4583.812     3995.134     1297.306        1.516        0.494      142.924       27.811        0.038      337.778        9.981      860.202
03/02/2014  19:37:00     -171.164     -120.910        1.253       93.314       63.594       43.299     8707.524     4044.185     1874.774        2.927        0.731      209.563       45.387        0.047      337.764        9.956      860.231
03/02/2014  19:38:00      -77.117     -115.243       -1.466       47.922       50.484       29.168     2296.508     2548.597      850.753        1.246        0.285      138.665       18.888        0.019      337.851       10.103      860.222
03/02/2014  19:39:00      -65.251      -62.775       -2.819       57.588       39.994       25.761     3316.414     1599.536      663.636        0.689        0.279       90.544       16.716        0.034      337.853       10.108      860.213
03/02/2014  19:40:00      -37.265     -167.781        3.105       37.480       82.095       35.427     1404.778     6739.596     1255.043        1.947        0.470      171.869       22.140        0.017      337.922       10.220      860.236
03/02/2014  19:41:00      -95.079     -122.196      -16.221       62.314       54.529       33.483     3882.994     2973.440     1121.121        1.610        0.399      154.828       21.254        0.019      337.929       10.234      860.245
03/02/2014  19:42:00     -216.982     -258.112       -0.970      169.175      137.764       62.983    28620.075    18979.056     3966.843        8.263        2.578      337.199       60.770        0.032      337.810       10.031      860.294
03/02/2014  19:43:00     -264.966     -108.048        0.592      155.811      126.845       66.317    24277.061    16089.623     4397.949        6.332        2.238      286.149       87.891        0.094      337.782        9.985      860.273
03/02/2014  19:44:00      -78.919     -151.667        3.800       92.658       66.380       39.022     8585.591     4406.304     1522.727        2.188        0.726      170.971       27.813        0.026      337.809       10.032      860.252
03/02/2014  19:45:00      -36.448      -60.948       14.849       73.719       47.186       36.760     5434.552     2226.551     1351.286        0.714        0.451       71.015       16.669        0.055      337.790       10.001      860.242
03/02/2014  19:46:00      -97.476     -103.942       -2.010       80.146       90.712       38.063     6423.448     8228.669     1448.820        1.820        0.805      142.497       35.011        0.060      337.755        9.942      860.269
03/02/2014  19:47:00      -96.812     -104.060        4.869       75.874       64.505       41.236     5756.865     4160.833     1700.398        1.592        0.581      142.130       42.932        0.091      337.707        9.862      860.309
03/02/2014  19:48:00     -179.700     -131.694      -13.251       90.547       74.449       39.131     8198.708     5542.603     1531.248        3.254        0.764      222.790       46.330        0.043      337.641        9.749      860.327
03/02/2014  19:49:00     -221.992      -67.691       -4.174       86.224       76.020       40.074     7434.659     5779.083     1605.937        3.435        0.741      232.083       42.129        0.033      337.633        9.734      860.343
03/02/2014  19:50:00     -190.671      -76.168      -12.988       83.139       60.531       42.521     6912.078     3663.953     1808.076        2.735        0.619      205.321       41.062        0.040      337.645        9.757      860.363
03/02/2014  19:51:00     -223.787      -52.337       -6.845       97.031       62.030       42.961     9415.081     3847.765     1845.643        3.399        0.755      229.825       49.930        0.047      337.653        9.770      860.367
03/02/2014  19:52:00      -97.933      -63.858       -8.131       52.845       43.240       25.264     2792.617     1869.666      638.269        0.952        0.265      116.913       27.913        0.057      337.674        9.808      860.373
03/02/2014  19:53:00     -280.730      -96.972       -0.170      123.667       87.220       49.846    15293.586     7607.268     2484.587        5.679        1.269      297.006       49.764        0.028      337.626        9.723      860.385
03/02/2014  19:54:00     -158.028      -95.232      -15.245       86.938       84.304       37.985     7558.191     7107.214     1442.844        2.519        0.805      184.504       35.404        0.037      337.633        9.735      860.406
03/02/2014  19:55:00     -214.112      -84.856       -1.255      122.362       75.927       50.619    14972.537     5764.862     2562.258        3.817        1.165      230.314       53.540        0.054      337.629        9.729      860.422
03/02/2014  19:56:00     -181.215      -81.041       -0.580       89.767       94.630       45.259     8058.088     8954.849     2048.379        2.923        0.953      198.510       50.407        0.064      337.600        9.682      860.452
03/02/2014  19:57:00      -42.765      -27.207       12.714       62.686       62.038       35.628     3929.503     3848.760     1269.321        0.589        0.452       50.685       33.762        0.444      337.592        9.671      860.458
03/02/2014  19:58:00     -118.725      -56.163        3.385       72.650       56.305       27.707     5277.955     3170.237      767.690        1.324        0.461      131.339       32.956        0.063      337.613        9.705      860.436
03/02/2014  19:59:00     -177.906      -76.532        0.713       76.980       58.529       34.914     5925.995     3425.689     1218.954        2.404        0.529      193.669       26.012        0.018      337.544        9.588      860.458
03/02/2014  20:00:00     -194.702      -71.508        2.968       45.352       42.697       31.328     2056.815     1823.014      981.460        2.395        0.243      207.418       22.942        0.012      337.492        9.501      860.507
03/02/2014  20:01:00     -111.299      -38.976        3.909       60.289       32.381       25.898     3634.709     1048.557      670.702        0.964        0.268      117.926       22.914        0.038      337.494        9.506      860.534
03/02/2014  20:02:00      -87.449      -75.960        2.828       40.562       43.549       20.030     1645.298     1896.545      401.219        0.868        0.197      115.833       17.102        0.022      337.532        9.570      860.566
03/02/2014  20:03:00     -109.614      -76.952        0.124       44.373       48.913       26.172     1968.944     2392.479      684.967        1.149        0.252      133.928       19.230        0.021      337.564        9.623      860.586
03/02/2014  20:04:00     -127.544     -115.516       -2.712       69.725       57.269       38.378     4861.598     3279.756     1472.868        1.961        0.481      172.080       35.377        0.042      337.597        9.677      860.605
03/02/2014  20:05:00     -137.222     -125.059       -0.524       67.609       50.384       38.732     4570.954     2538.539     1500.179        2.154        0.430      185.660       32.091        0.030      337.587        9.661      860.627
03/02/2014  20:06:00     -129.787     -115.608        2.698       75.894       62.233       40.979     5759.925     3872.997     1679.260        2.076        0.566      173.810       38.931        0.050      337.590        9.665      860.606
03/02/2014  20:07:00     -128.202      -91.401       14.951      102.718       83.539       42.460    10550.945     6978.824     1802.888        2.217        0.967      157.448       52.829        0.113      337.589        9.662      860.603
03/02/2014  20:08:00     -157.457     -113.529       -2.058       88.157       62.872       46.329     7771.576     3952.871     2146.332        2.578        0.694      194.117       46.320        0.057      337.519        9.546      860.611
03/02/2014  20:09:00     -235.918      -83.043      -17.328      116.612       63.779       51.598    13598.406     4067.757     2662.337        4.159        1.016      250.107       44.239        0.031      337.551        9.599      860.625
03/02/2014  20:10:00     -205.154     -121.923       -7.526      109.053       95.016       49.372    11892.658     9028.006     2437.596        4.018        1.168      238.649       43.907        0.034      337.556        9.608      860.621
03/02/2014  20:11:00     -284.353     -163.510       -4.370      168.740      141.529       67.894    28473.204    20030.404     4609.623        8.035        2.656      328.012       83.758        0.065      337.566        9.623      860.585
03/02/2014  20:12:00     -367.448     -182.129      -19.282      170.490      153.347       83.995    29066.911    23515.386     7055.090       11.409        2.982      410.109       87.104        0.045      337.620        9.713      860.545
03/02/2014  20:13:00     -233.316     -154.425       11.057      124.372      121.166       72.081    15468.289    14681.306     5195.741        5.687        1.767      279.792       75.583        0.073      337.583        9.651      860.530
03/02/2014  20:14:00     -333.598     -141.220      -10.917      123.719      104.070       61.577    15306.504    10830.510     3791.713        8.063        1.496      362.257       50.417        0.019      337.582        9.650      860.511
03/02/2014  20:15:00     -295.474      -68.049       -2.408      131.492       75.313       57.742    17290.164     5671.995     3334.164        5.911        1.315      303.208       55.683        0.034      337.569        9.628      860.511
03/02/2014  20:16:00      -68.248      -69.267       10.037       90.162       80.692       47.965     8129.269     6511.179     2300.659        1.325        0.847       97.240       52.114        0.287      337.546        9.591      860.529
03/02/2014  20:17:00     -222.814     -140.767        5.802      156.141      109.031       59.403    24379.911    11887.673     3528.767        5.464        1.990      263.555       70.238        0.071      337.547        9.592      860.561
03/02/2014  20:18:00     -282.356     -146.307       -0.953      146.923       93.491       62.214    21586.318     8740.603     3870.609        6.766        1.710      318.010       69.910        0.048      337.518        9.542      860.594
03/02/2014  20:19:00     -245.059      -97.931       -9.830      110.114       80.500       46.974    12125.094     6480.208     2206.551        4.527        1.041      263.902       49.569        0.035      337.525        9.554      860.618
03/02/2014  20:20:00     -182.850      -13.836        9.398      114.562       96.800       55.135    13124.352     9370.311     3039.836        2.962        1.277      183.373       62.368        0.116      337.633        9.737      860.624
03/02/2014  20:21:00     -202.614     -122.992        8.883      160.026       95.796       64.412    25608.181     9176.918     4148.902        4.759        1.947      237.022       71.356        0.091      337.620        9.715      860.666
03/02/2014  20:22:00     -176.080     -138.322       -1.020       91.370       95.117       41.777     8348.478     9047.151     1745.310        3.464        0.957      223.913       51.250        0.052      337.616        9.707      860.719
03/02/2014  20:23:00     -177.171      -45.289        4.830      152.990       86.404       53.422    23406.009     7465.717     2853.893        3.359        1.686      182.868       66.193        0.131      337.609        9.696      860.773
03/02/2014  20:24:00     -200.496      -91.861      -12.325       85.545      104.066       44.579     7317.864    10829.755     1987.287        3.446        1.007      220.538       41.031        0.035      337.619        9.712      860.796
03/02/2014  20:25:00      -65.829      -93.224        3.007       57.168       79.601       36.724     3268.231     6336.296     1348.619        1.199        0.548      114.123       40.766        0.128      337.645        9.759      860.811
03/02/2014  20:26:00      -73.562      -71.582       -4.077       45.940       41.393       24.107     2110.497     1713.410      581.134        0.748        0.220      102.642       21.782        0.045      337.674        9.807      860.833
03/02/2014  20:27:00      -51.601      -67.197       -1.825       49.134       40.744       25.576     2414.171     1660.045      654.113        0.595        0.236       84.724       15.936        0.035      337.651        9.770      860.879
03/02/2014  20:28:00      -70.623      -95.163        1.696       61.694       33.076       20.869     3806.122     1094.040      435.533        0.969        0.267      118.506       19.092        0.026      337.686        9.829      860.916
03/02/2014  20:29:00     -102.117      -77.357       -2.455       82.925       41.206       30.568     6876.474     1697.953      934.406        1.296        0.475      128.109       38.865        0.092      337.672        9.803      860.937
03/02/2014  20:30:00       -3.647       21.362       38.555       34.386       30.802       24.150     1182.401      948.756      583.222        0.233        0.136       21.672       20.875        0.928      337.589        9.666      860.954
03/02/2014  20:31:00      -76.812      -32.387        2.966       48.810       49.127       26.031     2382.456     2413.454      677.622        0.621        0.274       83.361       15.322        0.034      337.674        9.808      860.977
03/02/2014  20:32:00      -16.926      -15.660       18.236       24.022       32.556       27.935      577.040     1059.865      780.347        0.164        0.121       23.059       24.436        1.123      337.686        9.828      860.976
03/02/2014  20:33:00      -77.545      -83.119       -8.074       36.073       35.943       21.916     1301.234     1291.888      480.313        0.803        0.154      113.675       16.278        0.021      337.696        9.846      861.007
03/02/2014  20:34:00      -58.829      -68.014       -3.869       37.071       31.821       21.660     1374.231     1012.575      469.145        0.548        0.143       89.926       12.397        0.019      337.805       10.026      861.030
03/02/2014  20:35:00       -2.095      -18.486       21.805       28.496       39.182       19.349      812.005     1535.267      374.375        0.177        0.136       18.605       21.595        1.347      337.621        9.718      861.044
03/02/2014  20:36:00      -16.699       15.103       33.104       25.061       29.286       18.338      628.045      857.655      336.289        0.171        0.091       22.516       18.112        0.647      337.569        9.631      861.055
03/02/2014  20:37:00      -19.398       13.382       24.093       17.763       16.507       19.228      315.537      272.493      369.730        0.105        0.048       23.566       13.892        0.348      337.601        9.685      861.063
03/02/2014  20:38:00      -37.341        1.285       11.348       36.478       20.889       26.957     1330.648      436.337      726.679        0.201        0.125       37.363       27.975        0.561      337.635        9.742      861.085
03/02/2014  20:39:00     -106.088      -33.250       -4.269       36.180       32.125       17.509     1309.004     1032.041      306.576        0.751        0.132      111.177       11.925        0.012      337.738        9.915      861.133
03/02/2014  20:40:00     -127.102       -2.685       -1.005       57.271       53.869       33.846     3280.008     2901.828     1145.522        1.174        0.366      127.130       31.156        0.060      337.757        9.945      861.151
03/02/2014  20:41:00      -45.450      -41.139       10.131       58.413       44.612       33.676     3412.044     1990.221     1134.041        0.520        0.327       61.303       29.212        0.227      337.562        9.619      861.160
03/02/2014  20:42:00     -216.469      -70.064      -11.942       74.599       54.935       26.639     5564.941     3017.813      709.624        3.060        0.465      227.526       19.177        0.007      337.649        9.764      861.177
03/02/2014  20:43:00     -206.748      -66.606        6.757      109.432       81.023       47.231    11975.266     6564.774     2230.737        3.400        1.039      217.212       40.514        0.035      337.590        9.665      861.180
03/02/2014  20:44:00     -245.082      -44.582        1.218      178.226      118.169       64.461    31764.485    13963.982     4155.213        5.596        2.494      249.104       85.525        0.118      337.608        9.695      861.125
03/02/2014  20:45:00     -338.276      -36.519       -6.295      166.626      127.992       70.160    27764.319    16382.075     4922.401        8.243        2.453      340.242       82.661        0.059      337.675        9.805      861.082
03/02/2014  20:46:00     -278.180      -69.846        3.921      132.696      121.346       64.812    17608.200    14724.953     4200.597        5.940        1.827      286.815       68.880        0.058      337.643        9.753      861.061
03/02/2014  20:47:00     -270.941       30.915       -6.687      153.384      102.892       51.617    23526.604    10586.693     2664.314        5.559        1.839      272.699       40.380        0.022      337.768        9.961      861.015
03/02/2014  20:48:00     -235.432       -7.606        8.004      182.418      120.613       79.358    33276.349    14547.467     6297.678        5.483        2.706      235.555       94.085        0.160      337.749        9.931      860.976
03/02/2014  20:49:00     -479.825      -60.157      -25.276      152.549      144.296       66.647    23271.081    20821.289     4441.803       14.150        2.427      483.581       67.754        0.020      337.767        9.960      860.957
03/02/2014  20:50:00     -318.102      -26.506      -12.851      139.271       97.097       63.687    19396.406     9427.765     4056.004        6.746        1.644      319.205       69.849        0.048      337.730        9.899      860.958
03/02/2014  20:51:00     -216.321       -2.537       -0.379      134.695       89.586       51.581    18142.784     8025.597     2660.586        3.781        1.441      216.336       61.318        0.080      337.677        9.810      860.965
03/02/2014  20:52:00     -108.384      -42.921       22.759       89.696       73.921       51.640     8045.289     5464.354     2666.687        1.514        0.809      116.573       37.316        0.102      337.632        9.737      860.979
03/02/2014  20:53:00     -243.573      -27.033       -3.162       98.801      111.617       47.749     9761.729    12458.302     2280.005        4.228        1.225      245.068       42.218        0.030      337.774        9.971      861.011
03/02/2014  20:54:00     -245.131      -32.780       -7.115       73.685       79.463       41.608     5429.409     6314.315     1731.246        3.734        0.674      247.313       31.825        0.017      337.807       10.028      861.010
03/02/2014  20:55:00      -97.272      -44.095        5.069       72.230       62.060       30.492     5217.137     3851.382      929.771        1.071        0.500      106.800       34.730        0.106      337.778        9.981      861.018
03/02/2014  20:56:00        0.296      -38.967       23.020       50.367       59.402       39.997     2536.796     3528.603     1599.799        0.486        0.383       38.968       14.648        0.141      337.684        9.823      861.011
03/02/2014  20:57:00     -140.091     -109.639        2.185       57.921       60.643       32.756     3354.849     3677.531     1072.952        1.988        0.405      177.894       20.539        0.013      337.778        9.979      861.007
03/02/2014  20:58:00     -197.055     -148.742      -10.979       85.840       63.463       48.273     7368.456     4027.522     2330.260        3.740        0.686      246.891       39.151        0.025      337.754        9.938      860.984
03/02/2014  20:59:00     -136.133      -60.468       -1.179       86.960       42.866       36.497     7562.086     1837.496     1332.054        1.646        0.537      148.958       47.109        0.100      337.720        9.884      860.991
03/02/2014  21:00:00     -106.777      -65.184       -8.494       57.656       32.138       26.569     3324.206     1032.864      705.914        1.039        0.253      125.101       33.543        0.072      337.646        9.762      861.005
03/02/2014  21:01:00      -13.347        0.310        8.431       34.585       24.516       13.561     1196.142      601.034      183.910        0.111        0.099       13.351       19.004        2.026      337.638        9.746      861.005
03/02/2014  21:02:00        2.782      -20.482        9.925       21.375       22.076       13.719      456.902      487.347      188.213        0.083        0.057       20.670        9.872        0.228      337.672        9.804      861.018
03/02/2014  21:03:00        5.963      -19.079       10.955       15.691       28.304       18.819      246.197      801.144      354.145        0.096        0.070       19.989       11.410        0.326      337.659        9.782      861.033
03/02/2014  21:04:00      -42.773      -34.867       -1.757       48.470       22.630       18.686     2349.373      512.126      349.183        0.313        0.161       55.184       23.173        0.176      337.698        9.847      861.041
03/02/2014  21:05:00      -35.931      -32.685        3.794       17.672       17.224       13.519      312.285      296.657      182.774        0.158        0.040       48.573       10.589        0.048      337.614        9.707      861.066
03/02/2014  21:06:00      -16.006      -33.956      -11.932       22.756       42.103       24.621      517.833     1772.684      606.206        0.222        0.145       37.539        8.152        0.047      337.641        9.753      861.062
03/02/2014  21:07:00        6.870     -113.146       -3.262       34.651       48.267       27.181     1200.712     2329.680      738.794        0.856        0.213      113.354        7.735        0.005      337.593        9.672      861.080
03/02/2014  21:08:00      -30.195     -125.372        4.767       55.697       90.618       26.995     3102.188     8211.677      728.735        1.435        0.602      128.956       25.736        0.040      337.617        9.711      861.088
03/02/2014  21:09:00      -71.595     -102.991       -8.047       43.527       29.387       21.641     1894.638      863.610      468.331        0.951        0.161      125.431       15.671        0.016      337.615        9.709      861.095
03/02/2014  21:10:00     -110.616      -44.218       -7.188       39.845       36.708       22.974     1587.587     1347.512      527.788        0.885        0.173      119.127        7.483        0.004      337.550        9.598      861.078
03/02/2014  21:11:00      -73.079      -15.886       -2.019       27.986       23.376       14.385      783.200      546.433      206.934        0.357        0.077       74.786       10.192        0.019      337.513        9.537      861.058
03/02/2014  21:12:00      -37.291      -20.107       -1.924       20.500       30.483        9.800      420.268      929.239       96.047        0.162        0.072       42.366        6.079        0.021      337.500        9.514      861.040
03/02/2014  21:13:00      -18.872       12.422       -6.444       31.328       26.859       14.679      981.427      721.393      215.472        0.123        0.096       22.593       12.916        0.327      337.518        9.544      861.020
03/02/2014  21:14:00      -74.259      -13.945        9.547       70.630       70.147       45.748     4988.638     4920.616     2092.839        0.890        0.600       75.557       41.206        0.297      337.613        9.703      860.987
03/02/2014  21:15:00     -237.271     -120.646        0.050      114.281       81.244       51.299    13060.099     6600.595     2631.621        4.657        1.115      266.182       54.195        0.041      337.423        9.382      860.986
03/02/2014  21:16:00     -161.110      -56.137       11.415       91.395       68.686       44.296     8352.974     4717.815     1962.170        2.213        0.752      170.610       40.193        0.056      337.423        9.384      861.009
03/02/2014  21:17:00     -186.680     -123.305        6.543      138.164      107.472       58.648    19089.351    11550.239     3439.560        4.208        1.704      223.727       70.543        0.099      337.436        9.406      861.018
03/02/2014  21:18:00     -179.886     -140.865       -8.346       76.763       88.787       43.584     5892.528     7883.083     1899.578        3.397        0.784      228.478       39.661        0.030      337.487        9.489      861.010
03/02/2014  21:19:00     -205.146     -135.271        9.722      122.735      101.036       55.727    15063.778    10208.361     3105.476        4.442        1.419      245.730       65.243        0.070      337.469        9.461      860.997
03/02/2014  21:20:00     -256.046     -129.940       -5.312      113.476      126.142       62.864    12876.791    15911.703     3951.841        5.760        1.637      287.130       66.546        0.054      337.453        9.432      861.014
03/02/2014  21:21:00     -293.473     -151.121      -13.382      129.122       94.771       47.869    16672.483     8981.565     2291.472        6.854        1.397      330.097       56.007        0.029      337.493        9.500      861.007
03/02/2014  21:22:00     -209.936      -52.915       -0.995      135.732       71.763       45.649    18423.106     5149.914     2083.849        3.626        1.283      216.502       54.897        0.064      337.478        9.476      861.027
03/02/2014  21:23:00     -187.879     -155.394       -4.225      140.925      103.115       67.619    19859.780    10632.797     4572.361        4.726        1.753      243.815       68.088        0.078      337.487        9.491      861.019
03/02/2014  21:24:00     -285.053     -129.571      -18.265      145.005      123.531       60.377    21026.402    15259.904     3645.422        6.915        1.997      313.120       71.173        0.052      337.504        9.519      861.015
03/02/2014  21:25:00     -170.966      -83.295       -2.559      105.174       74.926       51.656    11061.565     5613.833     2668.320        2.776        0.967      190.177       48.650        0.065      337.402        9.349      861.033
03/02/2014  21:26:00     -231.408      -95.837       -8.921       99.769       76.652       42.386     9953.770     5875.551     1796.603        4.022        0.881      250.469       46.422        0.034      337.420        9.379      861.041
03/02/2014  21:27:00     -254.259     -122.856       -4.528      109.183       98.511       52.371    11920.986     9704.453     2742.743        5.206        1.218      282.385       39.324        0.019      337.379        9.310      861.066
03/02/2014  21:28:00     -271.429     -153.630       -7.961      128.396       93.656       61.193    16485.409     8771.454     3744.545        6.317        1.450      311.891       63.215        0.041      337.351        9.264      861.065
03/02/2014  21:29:00     -280.527     -147.717       -6.862      109.796      105.473       65.290    12055.200    11124.580     4262.810        6.400        1.372      317.043       56.242        0.031      337.448        9.424      861.037
03/02/2014  21:30:00     -361.953     -141.911      -16.847      111.422       98.982       55.590    12414.806     9797.463     3090.211        8.836        1.265      388.779       44.618        0.013      337.396        9.339      860.988
03/02/2014  21:31:00     -274.610      -61.732       -2.934      129.120      123.938       68.507    16671.976    15360.678     4693.255        5.797        1.836      281.463       70.449        0.063      337.443        9.416      860.970
03/02/2014  21:32:00     -235.787     -106.742       10.311      122.263      158.634       71.148    14948.360    25164.683     5062.011        5.613        2.259      258.823       56.143        0.047      337.588        9.661      860.941
03/02/2014  21:33:00     -304.854     -166.861      -17.109      132.568       94.652       61.675    17574.300     8959.019     3803.781        7.570        1.517      347.532       73.220        0.044      337.575        9.637      860.924
03/02/2014  21:34:00     -322.778     -117.497        2.163      108.453      112.920       62.587    11761.976    12750.939     3917.145        7.321        1.422      343.499       61.551        0.032      337.551        9.597      860.941
03/02/2014  21:35:00     -248.105     -151.852        9.047      137.307      113.694       61.981    18853.344    12926.333     3841.627        6.015        1.781      290.886       51.223        0.031      337.620        9.714      861.002
03/02/2014  21:36:00     -346.034     -166.709      -19.688      129.084      116.824       63.231    16662.661    13647.926     3998.161        9.111        1.715      384.098       67.715        0.031      337.675        9.806      861.016
03/02/2014  21:37:00     -160.019     -212.862      -20.684      123.152      109.474       55.699    15166.367    11984.504     3102.428        5.079        1.513      266.301       53.309        0.040      337.607        9.693      861.067
03/02/2014  21:38:00     -171.244     -193.655      -15.272      110.697       89.908       59.801    12253.780     8083.391     3576.193        4.548        1.196      258.508       45.497        0.031      337.380        9.312      861.108
03/02/2014  21:39:00     -144.616     -169.993       -3.903       95.442       88.667       56.041     9109.090     7861.893     3140.567        3.497        1.006      223.184       38.029        0.029      337.261        9.113      861.185
03/02/2014  21:40:00     -235.665     -175.288      -24.910      101.366       84.050       51.809    10275.004     7064.371     2684.142        5.345        1.001      293.707       48.129        0.027      337.184        8.983      861.239
03/02/2014  21:41:00     -131.210      -98.338       -2.121      108.165      101.303       40.546    11699.712    10262.390     1643.956        2.524        1.180      163.971       41.919        0.065      337.223        9.052      861.262
03/02/2014  21:42:00      -44.272      -62.844       11.974       95.563       71.752       43.941     9132.375     5148.311     1930.818        1.113        0.811       76.873       39.600        0.265      337.229        9.064      861.282
03/02/2014  21:43:00     -126.130     -105.285        1.457       99.123       57.610       37.866     9825.463     3318.906     1433.870        2.078        0.729      164.298       39.296        0.057      337.187        8.991      861.273
03/02/2014  21:44:00     -106.347      -88.706        3.441       70.063       57.729       38.477     4908.882     3332.583     1480.512        1.445        0.486      138.486       40.537        0.086      337.131        8.897      861.268
03/02/2014  21:45:00     -174.708     -190.993      -15.163       83.944       78.015       37.739     7046.679     6086.302     1424.196        4.089        0.728      258.846       33.581        0.017      337.215        9.036      861.261
03/02/2014  21:46:00     -106.431     -119.521       -2.196       58.475       51.437       35.938     3419.345     2645.781     1291.509        1.649        0.368      160.040       35.869        0.050      337.222        9.051      861.262
03/02/2014  21:47:00     -160.969     -147.860       -8.635       62.302       72.469       34.347     3881.501     5251.790     1179.701        2.908        0.516      218.572       31.164        0.020      337.228        9.058      861.260
03/02/2014  21:48:00      -75.793     -110.434       -5.039       33.493       53.360       26.367     1121.787     2847.338      695.203        1.131        0.233      133.941       17.069        0.016      337.279        9.146      861.258
03/02/2014  21:49:00      -54.610       -0.742       -4.452       20.825       19.066       15.855      433.678      363.508      251.395        0.203        0.052       54.615       13.490        0.061      337.306        9.192      861.251
03/02/2014  21:50:00      -83.174      -76.087       -0.218       46.063       44.671       24.047     2121.828     1995.531      578.235        0.870        0.235      112.726       14.497        0.017      337.313        9.203      861.266
03/02/2014  21:51:00     -113.944     -116.533        0.035       61.751       62.317       37.591     3813.131     3883.461     1413.065        1.783        0.455      162.982       36.045        0.049      337.232        9.065      861.302
03/02/2014  21:52:00     -162.897      -97.254       -4.711       53.442       54.163       33.378     2856.025     2933.661     1114.082        2.146        0.345      189.721       19.163        0.010      337.173        8.967      861.342
03/02/2014  21:53:00     -133.183     -101.832      -10.334       39.053       28.334       24.274     1525.150      802.794      589.251        1.557        0.146      167.653       11.102        0.004      337.169        8.962      861.357
03/02/2014  21:54:00     -109.135      -62.636       -3.662       40.298       36.576       17.764     1623.906     1337.835      315.571        0.956        0.164      125.832       13.270        0.011      337.220        9.047      861.377
03/02/2014  21:55:00      -46.086      -73.888       -1.833       37.155       30.195       17.066     1380.507      911.736      291.247        0.508        0.129       87.082       14.906        0.029      337.231        9.067      861.381
03/02/2014  21:56:00      -14.025      -39.967        2.197       18.632       14.696       19.584      347.143      215.977      383.542        0.137        0.047       42.356        8.134        0.037      337.252        9.101      861.373
03/02/2014  21:57:00      -26.358       11.304       22.320       24.439       25.872       27.046      597.270      669.375      731.467        0.166        0.100       28.680       14.281        0.248      337.117        8.875      861.347
03/02/2014  21:58:00        3.938       36.810       67.370       29.433       39.379       28.277      866.329     1550.726      799.572        0.456        0.161       37.020       20.157        0.296      336.969        8.625      861.315
03/02/2014  21:59:00       65.305      -54.279       21.547       69.654       90.972       61.174     4851.617     8275.954     3742.200        1.227        0.843       84.918       68.025        0.642      336.989        8.657      861.303
03/02/2014  22:00:00       74.318      -87.137        8.370       61.738       70.679       52.775     3811.589     4995.517     2785.185        1.239        0.580      114.525       55.749        0.237      336.989        8.659      861.313
03/02/2014  22:01:00       31.967      -38.336       47.029       62.085       82.690       58.791     3854.584     6837.602     3456.384        0.942        0.707       49.915       56.616        1.286      336.986        8.655      861.303
03/02/2014  22:02:00       29.121     -114.651      -14.779       47.639       59.989       48.006     2269.436     3598.646     2304.564        1.119        0.409      118.292       34.574        0.085      337.096        8.838      861.321
03/02/2014  22:03:00       29.038      -89.592      -20.418       45.431       39.841       25.445     2064.002     1587.303      647.439        0.679        0.215       94.180       11.159        0.014      337.111        8.863      861.341
03/02/2014  22:04:00       13.938      -45.645        7.514       55.514       29.390       26.716     3081.799      863.781      713.764        0.350        0.233       47.726       24.434        0.262      337.075        8.805      861.352
03/02/2014  22:05:00       16.091      -12.738       26.528       38.156       47.070       33.011     1455.883     2215.585     1089.695        0.294        0.238       20.523       35.188        2.940      337.042        8.748      861.327
03/02/2014  22:06:00        1.623       45.186       69.754       29.345       46.449       40.155      861.105     2157.524     1612.433        0.577        0.232       45.215       38.281        0.717      336.998        8.675      861.284
03/02/2014  22:07:00       -5.166       58.148       89.891       34.274       46.832       31.260     1174.729     2193.270      977.188        0.792        0.217       58.377       32.534        0.311      337.058        8.775      861.258
03/02/2014  22:08:00       45.880      -45.161       24.315       41.815       67.136       38.886     1748.465     4507.287     1512.107        0.625        0.388       64.378       45.707        0.504      337.131        8.898      861.277
03/02/2014  22:09:00      -20.771      -41.745        5.329       53.099       39.222       26.151     2819.507     1538.356      683.876        0.362        0.252       46.627       29.786        0.408      336.997        8.673      861.323
03/02/2014  22:10:00     -144.839     -114.291       -1.969       74.416       42.799       36.499     5537.785     1831.721     1332.197        2.137        0.435      184.501       33.245        0.032      336.889        8.490      861.373
03/02/2014  22:11:00     -177.728     -101.176        4.541       92.571       48.300       35.102     8569.394     2332.867     1232.123        2.699        0.607      204.508       44.470        0.047      336.992        8.662      861.392
03/02/2014  22:12:00     -144.820      -87.900        5.883       66.194       62.835       35.271     4381.704     3948.284     1244.044        1.915        0.479      169.408       39.785        0.055      337.038        8.740      861.408
03/02/2014  22:13:00     -111.884      -97.607        1.581       55.457       48.122       28.559     3075.478     2315.768      815.624        1.413        0.310      148.476       28.482        0.037      337.196        9.007      861.433
03/02/2014  22:14:00      -88.065     -104.767        3.343       55.250       60.524       31.044     3052.576     3663.164      963.740        1.321        0.384      136.863       29.181        0.045      337.274        9.137      861.468
03/02/2014  22:15:00      -72.829      -54.335       12.795       64.029       47.694       26.916     4099.763     2274.761      724.485        0.776        0.355       90.864       31.529        0.120      337.191        8.999      861.496
03/02/2014  22:16:00     -117.958      -88.203       -2.237       56.593       48.050       28.723     3202.792     2308.786      824.992        1.402        0.317      147.288       29.501        0.040      337.221        9.049      861.530
03/02/2014  22:17:00      -83.463      -56.499       -4.361       51.430       30.599       21.798     2645.093      936.272      475.170        0.712        0.203      100.788       21.506        0.046      337.155        8.938      861.561
03/02/2014  22:18:00      -49.163      -65.752      -12.352       33.395       24.174       19.466     1115.212      584.361      378.926        0.449        0.104       82.099        3.395        0.002      337.198        9.010      861.591
03/02/2014  22:19:00      -37.381      -29.308        4.459       36.241       28.258       19.777     1313.421      798.518      391.139        0.239        0.125       47.501       21.825        0.211      337.147        8.925      861.614
03/02/2014  22:20:00      -62.041      -73.627       -8.037       21.951       37.525       20.138      481.836     1408.122      405.533        0.581        0.115       96.281        8.269        0.007      337.121        8.882      861.628
03/02/2014  22:21:00      -26.194      -46.358       -1.036       28.351       36.366       24.780      803.753     1322.490      614.032        0.279        0.137       53.246       24.852        0.218      337.103        8.851      861.630
03/02/2014  22:22:00      -64.919      -21.138       -0.254       27.966       38.147       14.166      782.082     1455.197      200.670        0.355        0.122       68.273       15.388        0.051      337.045        8.752      861.625
03/02/2014  22:23:00     -124.306      -14.444       -6.399       31.554       28.949       19.710      995.626      838.041      388.472        0.896        0.111      125.142       15.988        0.016      336.936        8.573      861.620
03/02/2014  22:24:00     -146.218       -7.749      -10.423       40.433       43.463       24.729     1634.798     1889.009      611.533        1.284        0.207      146.423       21.677        0.022      336.813        8.368      861.609
03/02/2014  22:25:00     -136.498       -3.934       -2.419       56.790       45.778       30.206     3225.109     2095.601      912.421        1.244        0.312      136.554       28.596        0.044      336.958        8.610      861.590
03/02/2014  22:26:00      -87.997        5.995       -1.476       59.383       38.891       19.897     3526.322     1512.513      395.880        0.661        0.272       88.201       25.390        0.083      337.592        9.670      861.564
03/02/2014  22:27:00      -73.779      -49.578        6.656       46.554       30.985       25.419     2167.305      960.098      646.135        0.586        0.189       88.890       27.827        0.098      337.486        9.494      861.530
03/02/2014  22:28:00     -112.334      -78.308        3.268       72.113       62.693       33.018     5200.270     3930.448     1090.169        1.449        0.511      136.934       36.851        0.072      337.344        9.253      861.512
03/02/2014  22:29:00     -217.895     -152.733       -1.120       81.085       73.913       45.378     6574.747     5463.153     2059.160        4.245        0.705      266.093       42.987        0.026      337.658        9.776      861.510
03/02/2014  22:30:00        2.945      -88.933      -21.819      103.593       58.362       43.088    10731.448     3406.146     1856.614        1.219        0.800       88.982       52.674        0.350      337.698        9.848      861.511
03/02/2014  22:31:00      138.505        3.652       18.831       48.882       53.126       59.109     2389.472     2822.321     3493.870        1.413        0.435      138.553       24.609        0.032      337.623        9.721      861.465
03/02/2014  22:32:00        8.569       42.270       14.726       85.450       46.604       25.257     7301.637     2171.900      637.899        0.609        0.506       43.130       14.323        0.110      337.676        9.811      861.406
03/02/2014  22:33:00       -3.262       20.014       11.277       39.189       31.069       24.543     1535.762      965.266      602.337        0.182        0.155       20.278       14.154        0.487      337.611        9.702      861.393
03/02/2014  22:34:00      -58.124      -51.157      -10.685       98.537       66.516       41.649     9709.492     4424.329     1734.619        1.099        0.793       77.430       42.246        0.298      337.534        9.572      861.400
03/02/2014  22:35:00     -126.690     -111.526       -3.364       64.862       57.338       35.344     4207.085     3287.631     1249.179        1.862        0.437      168.785       30.942        0.034      337.464        9.454      861.408
03/02/2014  22:36:00      -80.762      -75.487        5.337       77.200       79.700       44.311     5959.897     6352.108     1963.438        1.326        0.714      110.548       41.369        0.140      337.501        9.517      861.404
03/02/2014  22:37:00      -46.651     -198.379        7.859       85.431       53.656       39.253     7298.508     2878.958     1540.832        2.665        0.586      203.790       39.224        0.037      337.520        9.545      861.425
03/02/2014  22:38:00      -62.724     -131.781      -17.516       46.082       44.210       24.884     2123.554     1954.519      619.231        1.315        0.235      145.947       20.778        0.020      337.464        9.455      861.427
03/02/2014  22:39:00      -19.785      -10.991        2.968       43.687       55.048       36.435     1908.527     3030.307     1327.522        0.339        0.313       22.633       37.312        2.718      337.271        9.133      861.449
03/02/2014  22:40:00       29.050       47.234        7.741       64.223       35.770       32.925     4124.548     1279.500     1084.070        0.481        0.324       55.453       23.148        0.174      337.185        8.988      861.484
03/02/2014  22:41:00      107.228       78.144       20.287       30.002       23.059       23.874      900.095      531.699      569.962        1.001        0.100      132.681       16.089        0.015      337.110        8.862      861.516
03/02/2014  22:42:00      104.991       55.722       16.096       52.244       44.091       36.902     2729.438     1943.995     1361.787        1.021        0.302      118.861       21.041        0.031      337.107        8.858      861.518
03/02/2014  22:43:00       97.371       46.375       49.575       63.401       51.876       50.253     4019.655     2691.149     2525.318        1.166        0.462      107.851       27.210        0.064      337.068        8.792      861.513
03/02/2014  22:44:00      136.313       61.442        9.272       45.736       31.838       22.482     2091.811     1013.648      505.434        1.303        0.181      149.520       12.360        0.007      337.064        8.786      861.507
03/02/2014  22:45:00       84.451       36.587       26.499       53.249       37.938       39.636     2835.429     1439.313     1570.974        0.751        0.292       92.036       30.378        0.109      336.981        8.646      861.496
03/02/2014  22:46:00       71.531       52.557        2.511       41.975       30.003       26.669     1761.893      900.167      711.251        0.563        0.169       88.763       19.182        0.047      336.958        8.608      861.496
03/02/2014  22:47:00       55.473       87.811      -11.260       27.238       43.691       22.029      741.922     1908.947      485.263        0.702        0.157      103.866       20.043        0.037      337.038        8.741      861.507
03/02/2014  22:48:00       62.357       56.479       13.196       38.213       31.062       30.087     1460.202      964.830      905.222        0.529        0.167       84.133       20.615        0.060      336.995        8.669      861.502
03/02/2014  22:49:00       42.710      131.257      -17.217       31.751       52.979       26.839     1008.126     2806.796      720.313        1.194        0.227      138.031       30.682        0.049      337.004        8.684      861.508
03/02/2014  22:50:00        4.817      101.768      -22.881       19.569       22.568       11.321      382.935      509.314      128.163        0.596        0.051      101.882        9.955        0.010      336.968        8.623      861.512
03/02/2014  22:51:00        1.877       82.360      -16.124       22.035       23.246        9.521      485.546      540.356       90.641        0.408        0.056       82.381       11.741        0.020      337.010        8.695      861.529
03/02/2014  22:52:00       38.839       59.796       -3.938       44.576       32.980       24.548     1987.000     1087.656      602.610        0.439        0.184       71.302       19.418        0.074      336.975        8.637      861.557
03/02/2014  22:53:00       89.981       66.930       20.466       35.333       22.511       23.199     1248.442      506.767      538.183        0.764        0.115      112.143       19.374        0.030      337.035        8.736      861.570
03/02/2014  22:54:00       82.870       54.364       16.901       26.472       15.564       14.624      700.773      242.230      213.863        0.563        0.058       99.110        8.459        0.007      337.113        8.867      861.583
03/02/2014  22:55:00       66.492       50.674       16.035       26.472       26.203       31.078      700.763      686.575      965.838        0.480        0.118       83.601       17.130        0.042      337.186        8.990      861.585
03/02/2014  22:56:00      107.545       29.275       34.871       31.877       42.874       40.535     1016.170     1838.222     1643.064        0.907        0.225      111.458       23.501        0.044      337.479        9.481      861.586
03/02/2014  22:57:00       45.744      -24.807       11.675       56.982       34.841       24.245     3246.973     1213.862      587.817        0.395        0.252       52.037       25.339        0.237      337.472        9.468      861.576
03/02/2014  22:58:00       10.983      -55.285        6.190       49.051       35.449       26.153     2406.000     1256.611      683.970        0.378        0.217       56.365       15.478        0.075      337.441        9.415      861.574
03/02/2014  22:59:00       -7.519      -51.652       -1.392       33.020       47.795       20.718     1090.338     2284.361      429.228        0.326        0.190       52.197       13.718        0.069      337.447        9.428      861.562
03/02/2014  23:00:00      -36.303      -70.271       -9.673       29.509       36.264       22.009      870.752     1315.086      484.376        0.451        0.134       79.094       15.359        0.038      337.588        9.666      861.564
03/02/2014  23:01:00     -122.480      -71.126       -6.308       53.576       29.563       32.431     2870.410      873.990     1051.767        1.245        0.240      141.635       28.037        0.039      337.523        9.554      861.566
03/02/2014  23:02:00     -119.874     -116.670        2.279       87.035       58.696       45.076     7575.146     3445.177     2031.826        2.052        0.653      167.278       53.808        0.103      337.343        9.250      861.602
03/02/2014  23:03:00      -83.683      -36.344       -3.694       41.685       33.730       21.298     1737.605     1137.696      453.610        0.583        0.166       91.235       12.991        0.020      337.284        9.155      861.620
03/02/2014  23:04:00     -113.266      -31.695      -11.016       24.595       39.693       16.028      604.921     1575.515      256.900        0.820        0.122      117.617       10.460        0.008      337.203        9.018      861.630
03/02/2014  23:05:00      -84.746      -29.065        3.401       42.280       50.553       23.156     1787.616     2555.593      536.217        0.646        0.244       89.591       24.680        0.076      337.347        9.261      861.619
03/02/2014  23:06:00       -0.525      -31.647      -17.189       38.891       26.952       20.344     1512.518      726.397      413.883        0.197        0.133       31.651       17.814        0.317      337.439        9.415      861.623
03/02/2014  23:07:00      -85.061       19.813       -4.622       56.501       31.636       19.827     3192.312     1000.807      393.107        0.612        0.229       87.338       19.220        0.048      337.422        9.386      861.635
03/02/2014  23:08:00      -95.065       25.768      -12.388       52.035       47.183       26.417     2707.600     2226.197      697.835        0.774        0.282       98.496       29.450        0.089      337.389        9.330      861.630
03/02/2014  23:09:00      -83.715        3.319       -5.498       74.247       42.986       29.605     5512.626     1847.782      876.465        0.764        0.412       83.780       33.146        0.157      337.296        9.175      861.617
03/02/2014  23:10:00     -176.420      -18.125       -9.681       79.857       56.042       30.465     6377.159     3140.686      928.094        2.099        0.522      177.349       30.488        0.030      337.399        9.344      861.616
03/02/2014  23:11:00     -117.477      -83.223       -6.417       55.088       51.441       28.804     3034.695     2646.140      829.676        1.364        0.326      143.968       21.938        0.023      337.249        9.095      861.614
03/02/2014  23:12:00      -63.945      -47.380        6.683       59.757       29.355       25.095     3570.923      861.711      629.771        0.572        0.253       79.585       25.574        0.103      337.119        8.879      861.613
03/02/2014  23:13:00     -102.522      -39.304       -1.443       34.066       24.706       18.517     1160.503      610.367      342.875        0.709        0.106      109.798       18.496        0.028      337.004        8.684      861.606
03/02/2014  23:14:00      -22.138      -32.353        8.060       34.275       15.510       11.366     1174.747      240.573      129.176        0.157        0.077       39.202        3.178        0.007      337.027        8.723      861.596
03/02/2014  23:15:00      -31.267      -40.487        3.253       32.061       28.037       18.495     1027.916      786.069      342.063        0.239        0.108       51.155       21.562        0.178      337.267        9.127      861.580
03/02/2014  23:16:00        1.618       -1.080       14.854       37.553       21.915       25.858     1410.212      480.260      668.633        0.139        0.128        1.945        7.226       13.802      337.047        8.756      861.576
03/02/2014  23:17:00      -61.488        8.826       -7.881       32.389       29.139       18.137     1049.066      849.069      328.954        0.307        0.111       62.119       17.744        0.082      337.173        8.968      861.585
03/02/2014  23:18:00      -86.000       -8.092       -3.107       57.404       27.453       31.437     3295.275      753.682      988.276        0.625        0.252       86.380       30.830        0.127      337.335        9.240      861.573
03/02/2014  23:19:00      -88.399      -64.576       13.708       96.240       64.074       45.247     9262.215     4105.473     2047.332        1.379        0.771      109.474       41.709        0.145      337.216        9.040      861.548
03/02/2014  23:20:00       -8.128      -49.607       -6.405       42.866       39.884       22.122     1837.469     1590.726      489.390        0.324        0.196       50.268       20.254        0.162      337.224        9.054      861.560
03/02/2014  23:21:00       34.220       34.763       57.083       42.790       37.465       36.427     1830.977     1403.640     1326.959        0.510        0.228       48.780       25.819        0.280      336.862        8.449      861.573
03/02/2014  23:22:00       28.992       79.587       75.608       38.415       38.633       27.628     1475.682     1492.517      763.323        0.831        0.187       84.703       24.025        0.080      336.762        8.282      861.565
03/02/2014  23:23:00       95.015       40.524       51.193       34.438       48.427       43.712     1185.953     2345.174     1910.710        0.937        0.272      103.296       37.706        0.133      336.725        8.221      861.586
03/02/2014  23:24:00       20.023      -21.506       29.282       60.926       62.495       32.762     3711.925     3905.685     1073.327        0.520        0.435       29.384       43.825        2.224      336.848        8.426      861.615
03/02/2014  23:25:00      -46.492      -19.344       -8.599       49.935       43.693       18.754     2493.500     1909.090      351.695        0.368        0.238       50.355       13.036        0.067      336.986        8.655      861.651
03/02/2014  23:26:00       -7.723      -32.117       -4.407       33.287       24.600       19.489     1108.017      605.157      379.816        0.160        0.105       33.032       11.337        0.118      336.968        8.624      861.666
03/02/2014  23:27:00       -4.105        0.119       18.035       18.562       17.149        7.759      344.539      294.087       60.207        0.052        0.035        4.106        6.324        2.372      336.863        8.450      861.658
03/02/2014  23:28:00       12.473      -34.956       12.218       43.766       70.745       33.011     1915.479     5004.925     1089.715        0.477        0.401       37.115       44.755        1.454      336.797        8.340      861.646
03/02/2014  23:29:00       70.125     -144.550      -29.337       42.668       33.978       21.790     1820.530     1154.499      474.799        1.506        0.172      160.662       15.227        0.009      337.174        8.969      861.662
03/02/2014  23:30:00      -34.367      -75.400       -1.449       27.995       42.157       25.634      783.733     1777.195      657.092        0.504        0.161       82.862       15.694        0.036      337.165        8.955      861.681
03/02/2014  23:31:00      -32.751      -88.423      -13.476       43.384       30.934       25.859     1882.184      956.917      668.689        0.629        0.175       94.293       24.749        0.069      337.216        9.040      861.727
03/02/2014  23:32:00       21.370      -39.655       14.391       32.089       60.154       37.617     1029.707     3618.471     1415.017        0.415        0.303       45.046       32.949        0.535      337.069        8.795      861.754
03/02/2014  23:33:00      -49.651      -65.813        3.839       35.860       57.116       36.085     1285.927     3262.245     1302.146        0.633        0.293       82.442       40.890        0.246      336.987        8.658      861.758
03/02/2014  23:34:00      -46.249      -24.767        6.412       36.497       28.455       18.074     1332.023      809.711      326.677        0.263        0.123       52.463       19.672        0.141      336.919        8.542      861.730
03/02/2014  23:35:00      -38.282      -15.843       13.061       38.115       31.217       24.926     1452.728      974.520      621.328        0.247        0.152       41.431       21.981        0.281      336.841        8.414      861.703
03/02/2014  23:36:00      -14.552        4.508        9.535       25.757       31.746       18.660      663.399     1007.778      348.213        0.117        0.101       15.234       15.621        1.051      336.900        8.513      861.674
03/02/2014  23:37:00      -40.309      -37.509       -7.117       39.940       21.995       15.761     1595.165      483.765      248.421        0.270        0.116       55.061        8.825        0.026      336.924        8.551      861.657
03/02/2014  23:38:00      -42.444      -54.120       -2.121       48.947       24.007       24.055     2395.811      576.331      578.629        0.414        0.178       68.778       12.822        0.035      336.809        8.360      861.662
03/02/2014  23:39:00      -60.302      -69.171       -4.515       45.990       30.147       13.790     2115.110      908.849      190.168        0.583        0.161       91.766       11.969        0.017      336.712        8.200      861.652
03/02/2014  23:40:00     -131.352      -75.186        1.058       43.318       33.632       21.957     1876.422     1131.142      482.126        1.320        0.174      151.348       20.033        0.018      336.689        8.159      861.639
03/02/2014  23:41:00      -99.278      -86.564       11.357       59.986       39.368       34.513     3598.298     1549.850     1191.171        1.191        0.317      131.718       32.853        0.062      336.712        8.198      861.633
03/02/2014  23:42:00      -80.748      -70.118       -7.168       50.226       32.853       30.611     2522.673     1079.304      937.008        0.801        0.227      106.943       32.411        0.092      336.686        8.156      861.627
03/02/2014  23:43:00      -55.504     -112.697        1.101       35.003       29.379       19.137     1225.222      863.113      366.236        0.912        0.123      125.624       15.972        0.016      336.813        8.369      861.625
03/02/2014  23:44:00      -76.337      -69.589        6.186       70.709       49.708       32.059     4999.732     2470.874     1027.780        0.960        0.425      103.296       23.667        0.052      336.719        8.211      861.644
03/02/2014  23:45:00      -98.377     -102.643        1.669       47.068       48.158       31.062     2215.404     2319.178      964.833        1.286        0.275      142.175       24.889        0.031      336.603        8.016      861.677
03/02/2014  23:46:00      -52.460      -84.432       -0.173       30.857       35.065       22.450      952.133     1229.586      504.023        0.628        0.134       99.402       11.250        0.013      336.809        8.360      861.646
03/02/2014  23:47:00       -3.611       32.171       41.764       19.097       31.684       23.227      364.698     1003.882      539.483        0.235        0.095       32.373       21.001        0.421      336.708        8.192      861.620
03/02/2014  23:48:00        8.957      -17.060       35.949       27.618       44.846       28.691      762.746     2011.165      823.195        0.263        0.180       19.268       33.288        2.985      336.817        8.374      861.583
03/02/2014  23:49:00      -22.444      -35.648        0.231       37.538       25.633       22.598     1409.106      657.037      510.666        0.218        0.129       42.125       15.844        0.141      336.898        8.508      861.618
03/02/2014  23:50:00      -97.989       18.547       -3.925       26.093       17.663       16.188      680.833      311.993      262.042        0.561        0.063       99.728       14.295        0.021      336.947        8.590      861.627
03/02/2014  23:51:00       43.691       32.486       18.210       39.820       24.606       19.721     1585.594      605.467      388.907        0.294        0.129       54.445       16.149        0.088      336.842        8.416      861.591
03/02/2014  23:52:00       -4.382       27.648       57.751       29.682       41.520       26.750      881.048     1723.946      715.554        0.372        0.166       27.993       25.924        0.858      336.675        8.137      861.552
03/02/2014  23:53:00        6.916        0.430       47.782       24.296       41.305       18.144      590.292     1706.071      329.202        0.248        0.131        6.929       16.916        5.961      336.615        8.038      861.560
03/02/2014  23:54:00      -28.001       24.262       46.940       31.687       39.266       28.265     1004.075     1541.848      798.892        0.346        0.167       37.050       29.567        0.637      336.698        8.176      861.546
03/02/2014  23:55:00     -107.564       22.178       -7.330       40.301       31.749       28.955     1624.206     1007.981      838.371        0.779        0.174      109.827       19.854        0.033      336.949        8.595      861.597
03/02/2014  23:56:00      -66.597      -18.394        5.627       71.127       57.545       29.216     5059.059     3311.401      853.564        0.701        0.461       69.091       36.176        0.274      336.982        8.649      861.627
03/02/2014  23:57:00       -3.844       28.971       35.371       15.492       24.360       25.101      240.004      593.399      630.070        0.178        0.073       29.225       17.741        0.369      336.635        8.069      861.620
03/02/2014  23:58:00       37.588       42.157       29.014       39.675       40.095       41.516     1574.133     1607.579     1723.594        0.447        0.245       56.481       31.134        0.304      336.573        7.967      861.597
03/02/2014  23:59:00      -59.263      -10.517       -7.008       21.579       28.625       13.384      465.655      819.369      179.124        0.257        0.073       60.189        9.164        0.023      336.777        8.306      861.640
